<?xml version="1.0" encoding="UTF-8" standalone="no" ?>
<gpx xmlns="http://www.topografix.com/GPX/1/1" xmlns:xsi="http://www.w3.org/2001/XMLSchema-instance" xsi:schemaLocation="http://www.topografix.com/GPX/1/1 http://www.topografix.com/GPX/1/1/gpx.xsd" version="1.1" creator="VisuGPX - https://www.visugpx.com">
  <metadata>
    <name>Tuca Basibé (2.729 m), desde Ampriu</name>
    <desc><![CDATA[Ascensión invernal a la Tuca de Basibé.
Necesario crampones y piolet.]]></desc>
  </metadata>
  <wpt lat="42.56246" lon="0.57049">
    <ele>1923.106934</ele>
    <name><![CDATA[01_AparcamientoAmpriu]]></name>
  </wpt>
  <wpt lat="42.55277" lon="0.58403">
    <ele>2237.424561</ele>
    <name><![CDATA[02_Pilonas]]></name>
  </wpt>
  <wpt lat="42.55177" lon="0.58611">
    <ele>2249.518066</ele>
    <name><![CDATA[03_PistaBasibe]]></name>
  </wpt>
  <wpt lat="42.54193" lon="0.59097">
    <ele>2584.661133</ele>
    <name><![CDATA[04_Cordal]]></name>
  </wpt>
  <wpt lat="42.54097" lon="0.59829">
    <ele>2728.706299</ele>
    <name><![CDATA[05_TucaBasibe]]></name>
  </wpt>
  <trk>
    <name><![CDATA[20150110_Basibe]]></name>
    <trkseg>
      <trkpt lat="42.56241" lon="0.57047">
        <ele>1921.81</ele>
        <time>2015-01-10T08:06:31Z</time>
      </trkpt>
      <trkpt lat="42.56241" lon="0.57047">
        <ele>1921.81</ele>
        <time>2015-01-10T08:06:32Z</time>
      </trkpt>
      <trkpt lat="42.56241" lon="0.57049">
        <ele>1921.81</ele>
        <time>2015-01-10T08:07:00Z</time>
      </trkpt>
      <trkpt lat="42.56238" lon="0.5705">
        <ele>1921.81</ele>
        <time>2015-01-10T08:07:39Z</time>
      </trkpt>
      <trkpt lat="42.5624" lon="0.57053">
        <ele>1921.81</ele>
        <time>2015-01-10T08:08:18Z</time>
      </trkpt>
      <trkpt lat="42.5624" lon="0.57054">
        <ele>1921.81</ele>
        <time>2015-01-10T08:08:49Z</time>
      </trkpt>
      <trkpt lat="42.56241" lon="0.57053">
        <ele>1921.81</ele>
        <time>2015-01-10T08:09:19Z</time>
      </trkpt>
      <trkpt lat="42.56239" lon="0.57051">
        <ele>1921.81</ele>
        <time>2015-01-10T08:10:04Z</time>
      </trkpt>
      <trkpt lat="42.56239" lon="0.57052">
        <ele>1921.81</ele>
        <time>2015-01-10T08:10:08Z</time>
      </trkpt>
      <trkpt lat="42.56243" lon="0.57051">
        <ele>1922.77</ele>
        <time>2015-01-10T08:10:15Z</time>
      </trkpt>
      <trkpt lat="42.56246" lon="0.57048">
        <ele>1923.25</ele>
        <time>2015-01-10T08:10:35Z</time>
      </trkpt>
      <trkpt lat="42.56246" lon="0.57048">
        <ele>1922.77</ele>
        <time>2015-01-10T08:10:58Z</time>
      </trkpt>
      <trkpt lat="42.56248" lon="0.57049">
        <ele>1922.77</ele>
        <time>2015-01-10T08:11:25Z</time>
      </trkpt>
      <trkpt lat="42.56243" lon="0.57048">
        <ele>1922.77</ele>
        <time>2015-01-10T08:11:39Z</time>
      </trkpt>
      <trkpt lat="42.56244" lon="0.57048">
        <ele>1922.77</ele>
        <time>2015-01-10T08:11:59Z</time>
      </trkpt>
      <trkpt lat="42.56242" lon="0.57048">
        <ele>1922.77</ele>
        <time>2015-01-10T08:12:23Z</time>
      </trkpt>
      <trkpt lat="42.56242" lon="0.57045">
        <ele>1922.77</ele>
        <time>2015-01-10T08:12:38Z</time>
      </trkpt>
      <trkpt lat="42.56241" lon="0.57047">
        <ele>1922.77</ele>
        <time>2015-01-10T08:13:01Z</time>
      </trkpt>
      <trkpt lat="42.56243" lon="0.57047">
        <ele>1922.77</ele>
        <time>2015-01-10T08:13:13Z</time>
      </trkpt>
      <trkpt lat="42.56245" lon="0.57045">
        <ele>1922.77</ele>
        <time>2015-01-10T08:13:29Z</time>
      </trkpt>
      <trkpt lat="42.56243" lon="0.57048">
        <ele>1922.77</ele>
        <time>2015-01-10T08:13:41Z</time>
      </trkpt>
      <trkpt lat="42.56243" lon="0.57049">
        <ele>1922.77</ele>
        <time>2015-01-10T08:13:57Z</time>
      </trkpt>
      <trkpt lat="42.56248" lon="0.57045">
        <ele>1922.77</ele>
        <time>2015-01-10T08:14:10Z</time>
      </trkpt>
      <trkpt lat="42.56246" lon="0.57044">
        <ele>1922.77</ele>
        <time>2015-01-10T08:14:31Z</time>
      </trkpt>
      <trkpt lat="42.56248" lon="0.57046">
        <ele>1922.29</ele>
        <time>2015-01-10T08:14:46Z</time>
      </trkpt>
      <trkpt lat="42.56247" lon="0.57046">
        <ele>1922.77</ele>
        <time>2015-01-10T08:15:08Z</time>
      </trkpt>
      <trkpt lat="42.56247" lon="0.57046">
        <ele>1922.29</ele>
        <time>2015-01-10T08:15:29Z</time>
      </trkpt>
      <trkpt lat="42.56248" lon="0.57047">
        <ele>1922.77</ele>
        <time>2015-01-10T08:15:55Z</time>
      </trkpt>
      <trkpt lat="42.56248" lon="0.57047">
        <ele>1922.29</ele>
        <time>2015-01-10T08:16:21Z</time>
      </trkpt>
      <trkpt lat="42.56247" lon="0.57047">
        <ele>1922.29</ele>
        <time>2015-01-10T08:16:44Z</time>
      </trkpt>
      <trkpt lat="42.56247" lon="0.57049">
        <ele>1922.29</ele>
        <time>2015-01-10T08:16:58Z</time>
      </trkpt>
      <trkpt lat="42.56244" lon="0.57053">
        <ele>1922.29</ele>
        <time>2015-01-10T08:17:15Z</time>
      </trkpt>
      <trkpt lat="42.56246" lon="0.57055">
        <ele>1922.29</ele>
        <time>2015-01-10T08:17:49Z</time>
      </trkpt>
      <trkpt lat="42.56244" lon="0.57051">
        <ele>1923.25</ele>
        <time>2015-01-10T08:18:14Z</time>
      </trkpt>
      <trkpt lat="42.5624" lon="0.57055">
        <ele>1923.74</ele>
        <time>2015-01-10T08:18:28Z</time>
      </trkpt>
      <trkpt lat="42.56239" lon="0.57056">
        <ele>1923.74</ele>
        <time>2015-01-10T08:18:30Z</time>
      </trkpt>
      <trkpt lat="42.56233" lon="0.57059">
        <ele>1923.74</ele>
        <time>2015-01-10T08:18:39Z</time>
      </trkpt>
      <trkpt lat="42.56224" lon="0.57058">
        <ele>1924.7</ele>
        <time>2015-01-10T08:18:52Z</time>
      </trkpt>
      <trkpt lat="42.56216" lon="0.57059">
        <ele>1926.62</ele>
        <time>2015-01-10T08:19:06Z</time>
      </trkpt>
      <trkpt lat="42.5621" lon="0.57064">
        <ele>1928.54</ele>
        <time>2015-01-10T08:19:20Z</time>
      </trkpt>
      <trkpt lat="42.56201" lon="0.57066">
        <ele>1930.46</ele>
        <time>2015-01-10T08:19:32Z</time>
      </trkpt>
      <trkpt lat="42.56197" lon="0.57068">
        <ele>1931.43</ele>
        <time>2015-01-10T08:19:47Z</time>
      </trkpt>
      <trkpt lat="42.56198" lon="0.57065">
        <ele>1931.43</ele>
        <time>2015-01-10T08:20:22Z</time>
      </trkpt>
      <trkpt lat="42.56197" lon="0.5707">
        <ele>1931.43</ele>
        <time>2015-01-10T08:20:54Z</time>
      </trkpt>
      <trkpt lat="42.56195" lon="0.57074">
        <ele>1931.91</ele>
        <time>2015-01-10T08:20:59Z</time>
      </trkpt>
      <trkpt lat="42.56186" lon="0.57079">
        <ele>1932.87</ele>
        <time>2015-01-10T08:21:12Z</time>
      </trkpt>
      <trkpt lat="42.56184" lon="0.57079">
        <ele>1932.87</ele>
        <time>2015-01-10T08:21:14Z</time>
      </trkpt>
      <trkpt lat="42.56169" lon="0.57077">
        <ele>1933.83</ele>
        <time>2015-01-10T08:21:28Z</time>
      </trkpt>
      <trkpt lat="42.56165" lon="0.57075">
        <ele>1934.31</ele>
        <time>2015-01-10T08:21:31Z</time>
      </trkpt>
      <trkpt lat="42.56161" lon="0.57073">
        <ele>1934.31</ele>
        <time>2015-01-10T08:21:35Z</time>
      </trkpt>
      <trkpt lat="42.56149" lon="0.57058">
        <ele>1934.79</ele>
        <time>2015-01-10T08:21:48Z</time>
      </trkpt>
      <trkpt lat="42.56148" lon="0.57056">
        <ele>1935.27</ele>
        <time>2015-01-10T08:21:50Z</time>
      </trkpt>
      <trkpt lat="42.56141" lon="0.57047">
        <ele>1936.23</ele>
        <time>2015-01-10T08:21:59Z</time>
      </trkpt>
      <trkpt lat="42.56132" lon="0.57034">
        <ele>1936.71</ele>
        <time>2015-01-10T08:22:09Z</time>
      </trkpt>
      <trkpt lat="42.5613" lon="0.57033">
        <ele>1937.19</ele>
        <time>2015-01-10T08:22:11Z</time>
      </trkpt>
      <trkpt lat="42.56125" lon="0.57031">
        <ele>1937.19</ele>
        <time>2015-01-10T08:22:17Z</time>
      </trkpt>
      <trkpt lat="42.56117" lon="0.57037">
        <ele>1936.71</ele>
        <time>2015-01-10T08:22:26Z</time>
      </trkpt>
      <trkpt lat="42.56105" lon="0.57042">
        <ele>1936.23</ele>
        <time>2015-01-10T08:22:38Z</time>
      </trkpt>
      <trkpt lat="42.56102" lon="0.57042">
        <ele>1935.75</ele>
        <time>2015-01-10T08:22:41Z</time>
      </trkpt>
      <trkpt lat="42.56091" lon="0.57042">
        <ele>1935.75</ele>
        <time>2015-01-10T08:22:52Z</time>
      </trkpt>
      <trkpt lat="42.56086" lon="0.57044">
        <ele>1936.23</ele>
        <time>2015-01-10T08:22:56Z</time>
      </trkpt>
      <trkpt lat="42.56079" lon="0.57055">
        <ele>1936.71</ele>
        <time>2015-01-10T08:23:08Z</time>
      </trkpt>
      <trkpt lat="42.56074" lon="0.57063">
        <ele>1937.19</ele>
        <time>2015-01-10T08:23:18Z</time>
      </trkpt>
      <trkpt lat="42.56073" lon="0.57068">
        <ele>1937.19</ele>
        <time>2015-01-10T08:23:23Z</time>
      </trkpt>
      <trkpt lat="42.56072" lon="0.57072">
        <ele>1937.19</ele>
        <time>2015-01-10T08:23:26Z</time>
      </trkpt>
      <trkpt lat="42.56069" lon="0.57074">
        <ele>1937.19</ele>
        <time>2015-01-10T08:23:29Z</time>
      </trkpt>
      <trkpt lat="42.56068" lon="0.57076">
        <ele>1937.19</ele>
        <time>2015-01-10T08:23:31Z</time>
      </trkpt>
      <trkpt lat="42.56061" lon="0.57081">
        <ele>1938.16</ele>
        <time>2015-01-10T08:23:37Z</time>
      </trkpt>
      <trkpt lat="42.56058" lon="0.57084">
        <ele>1938.16</ele>
        <time>2015-01-10T08:23:41Z</time>
      </trkpt>
      <trkpt lat="42.56053" lon="0.57091">
        <ele>1938.16</ele>
        <time>2015-01-10T08:23:49Z</time>
      </trkpt>
      <trkpt lat="42.56051" lon="0.57095">
        <ele>1938.16</ele>
        <time>2015-01-10T08:23:53Z</time>
      </trkpt>
      <trkpt lat="42.56049" lon="0.57101">
        <ele>1937.19</ele>
        <time>2015-01-10T08:23:58Z</time>
      </trkpt>
      <trkpt lat="42.56047" lon="0.57106">
        <ele>1936.71</ele>
        <time>2015-01-10T08:24:02Z</time>
      </trkpt>
      <trkpt lat="42.56043" lon="0.5712">
        <ele>1937.19</ele>
        <time>2015-01-10T08:24:14Z</time>
      </trkpt>
      <trkpt lat="42.56043" lon="0.5712">
        <ele>1937.67</ele>
        <time>2015-01-10T08:24:15Z</time>
      </trkpt>
      <trkpt lat="42.56049" lon="0.57133">
        <ele>1938.16</ele>
        <time>2015-01-10T08:24:30Z</time>
      </trkpt>
      <trkpt lat="42.56049" lon="0.57134">
        <ele>1938.16</ele>
        <time>2015-01-10T08:24:31Z</time>
      </trkpt>
      <trkpt lat="42.5604" lon="0.5715">
        <ele>1939.12</ele>
        <time>2015-01-10T08:24:45Z</time>
      </trkpt>
      <trkpt lat="42.5604" lon="0.57159">
        <ele>1940.08</ele>
        <time>2015-01-10T08:24:54Z</time>
      </trkpt>
      <trkpt lat="42.56043" lon="0.57162">
        <ele>1941.04</ele>
        <time>2015-01-10T08:24:58Z</time>
      </trkpt>
      <trkpt lat="42.56046" lon="0.57172">
        <ele>1941.04</ele>
        <time>2015-01-10T08:25:05Z</time>
      </trkpt>
      <trkpt lat="42.56046" lon="0.57188">
        <ele>1942.48</ele>
        <time>2015-01-10T08:25:16Z</time>
      </trkpt>
      <trkpt lat="42.56046" lon="0.57205">
        <ele>1942.96</ele>
        <time>2015-01-10T08:25:29Z</time>
      </trkpt>
      <trkpt lat="42.56046" lon="0.5722">
        <ele>1944.88</ele>
        <time>2015-01-10T08:25:43Z</time>
      </trkpt>
      <trkpt lat="42.56036" lon="0.57237">
        <ele>1945.85</ele>
        <time>2015-01-10T08:25:57Z</time>
      </trkpt>
      <trkpt lat="42.56035" lon="0.5725">
        <ele>1947.77</ele>
        <time>2015-01-10T08:26:11Z</time>
      </trkpt>
      <trkpt lat="42.56031" lon="0.5726">
        <ele>1949.69</ele>
        <time>2015-01-10T08:26:24Z</time>
      </trkpt>
      <trkpt lat="42.56021" lon="0.57273">
        <ele>1952.09</ele>
        <time>2015-01-10T08:26:40Z</time>
      </trkpt>
      <trkpt lat="42.5602" lon="0.57274">
        <ele>1952.57</ele>
        <time>2015-01-10T08:26:41Z</time>
      </trkpt>
      <trkpt lat="42.56013" lon="0.57279">
        <ele>1954.02</ele>
        <time>2015-01-10T08:26:53Z</time>
      </trkpt>
      <trkpt lat="42.56012" lon="0.57281">
        <ele>1954.5</ele>
        <time>2015-01-10T08:26:55Z</time>
      </trkpt>
      <trkpt lat="42.56014" lon="0.57295">
        <ele>1955.94</ele>
        <time>2015-01-10T08:27:06Z</time>
      </trkpt>
      <trkpt lat="42.56006" lon="0.57309">
        <ele>1956.9</ele>
        <time>2015-01-10T08:27:19Z</time>
      </trkpt>
      <trkpt lat="42.56001" lon="0.57316">
        <ele>1958.82</ele>
        <time>2015-01-10T08:27:31Z</time>
      </trkpt>
      <trkpt lat="42.55996" lon="0.5732">
        <ele>1960.27</ele>
        <time>2015-01-10T08:27:46Z</time>
      </trkpt>
      <trkpt lat="42.5599" lon="0.57321">
        <ele>1962.19</ele>
        <time>2015-01-10T08:27:58Z</time>
      </trkpt>
      <trkpt lat="42.55987" lon="0.57327">
        <ele>1964.59</ele>
        <time>2015-01-10T08:28:11Z</time>
      </trkpt>
      <trkpt lat="42.55982" lon="0.57336">
        <ele>1966.03</ele>
        <time>2015-01-10T08:28:23Z</time>
      </trkpt>
      <trkpt lat="42.55978" lon="0.57342">
        <ele>1967.96</ele>
        <time>2015-01-10T08:28:36Z</time>
      </trkpt>
      <trkpt lat="42.55973" lon="0.57334">
        <ele>1969.88</ele>
        <time>2015-01-10T08:28:47Z</time>
      </trkpt>
      <trkpt lat="42.55963" lon="0.57331">
        <ele>1972.76</ele>
        <time>2015-01-10T08:29:03Z</time>
      </trkpt>
      <trkpt lat="42.55952" lon="0.57337">
        <ele>1974.2</ele>
        <time>2015-01-10T08:29:18Z</time>
      </trkpt>
      <trkpt lat="42.55952" lon="0.57347">
        <ele>1977.57</ele>
        <time>2015-01-10T08:29:33Z</time>
      </trkpt>
      <trkpt lat="42.55952" lon="0.57355">
        <ele>1979.49</ele>
        <time>2015-01-10T08:29:45Z</time>
      </trkpt>
      <trkpt lat="42.55945" lon="0.57366">
        <ele>1981.41</ele>
        <time>2015-01-10T08:29:58Z</time>
      </trkpt>
      <trkpt lat="42.55944" lon="0.57379">
        <ele>1982.38</ele>
        <time>2015-01-10T08:30:12Z</time>
      </trkpt>
      <trkpt lat="42.5594" lon="0.57381">
        <ele>1984.78</ele>
        <time>2015-01-10T08:30:26Z</time>
      </trkpt>
      <trkpt lat="42.55937" lon="0.57393">
        <ele>1985.26</ele>
        <time>2015-01-10T08:30:36Z</time>
      </trkpt>
      <trkpt lat="42.55932" lon="0.57395">
        <ele>1985.74</ele>
        <time>2015-01-10T08:30:49Z</time>
      </trkpt>
      <trkpt lat="42.55928" lon="0.574">
        <ele>1987.18</ele>
        <time>2015-01-10T08:31:03Z</time>
      </trkpt>
      <trkpt lat="42.55927" lon="0.57406">
        <ele>1987.66</ele>
        <time>2015-01-10T08:31:06Z</time>
      </trkpt>
      <trkpt lat="42.55927" lon="0.57413">
        <ele>1988.14</ele>
        <time>2015-01-10T08:31:10Z</time>
      </trkpt>
      <trkpt lat="42.55928" lon="0.57418">
        <ele>1988.62</ele>
        <time>2015-01-10T08:31:13Z</time>
      </trkpt>
      <trkpt lat="42.55919" lon="0.57432">
        <ele>1991.03</ele>
        <time>2015-01-10T08:31:27Z</time>
      </trkpt>
      <trkpt lat="42.55911" lon="0.57443">
        <ele>1993.91</ele>
        <time>2015-01-10T08:31:40Z</time>
      </trkpt>
      <trkpt lat="42.55911" lon="0.57443">
        <ele>1993.43</ele>
        <time>2015-01-10T08:31:41Z</time>
      </trkpt>
      <trkpt lat="42.55909" lon="0.57449">
        <ele>1994.39</ele>
        <time>2015-01-10T08:31:46Z</time>
      </trkpt>
      <trkpt lat="42.55902" lon="0.57461">
        <ele>1996.32</ele>
        <time>2015-01-10T08:31:58Z</time>
      </trkpt>
      <trkpt lat="42.55898" lon="0.57469">
        <ele>1998.24</ele>
        <time>2015-01-10T08:32:10Z</time>
      </trkpt>
      <trkpt lat="42.55897" lon="0.57477">
        <ele>2000.16</ele>
        <time>2015-01-10T08:32:21Z</time>
      </trkpt>
      <trkpt lat="42.55893" lon="0.57487">
        <ele>2001.6</ele>
        <time>2015-01-10T08:32:33Z</time>
      </trkpt>
      <trkpt lat="42.55889" lon="0.57497">
        <ele>2004.01</ele>
        <time>2015-01-10T08:32:45Z</time>
      </trkpt>
      <trkpt lat="42.55883" lon="0.57509">
        <ele>2005.45</ele>
        <time>2015-01-10T08:32:58Z</time>
      </trkpt>
      <trkpt lat="42.55888" lon="0.57517">
        <ele>2007.85</ele>
        <time>2015-01-10T08:33:10Z</time>
      </trkpt>
      <trkpt lat="42.5589" lon="0.57519">
        <ele>2008.33</ele>
        <time>2015-01-10T08:33:14Z</time>
      </trkpt>
      <trkpt lat="42.55883" lon="0.5753">
        <ele>2009.29</ele>
        <time>2015-01-10T08:33:25Z</time>
      </trkpt>
      <trkpt lat="42.55876" lon="0.57542">
        <ele>2011.22</ele>
        <time>2015-01-10T08:33:37Z</time>
      </trkpt>
      <trkpt lat="42.55875" lon="0.57545">
        <ele>2011.7</ele>
        <time>2015-01-10T08:33:40Z</time>
      </trkpt>
      <trkpt lat="42.55869" lon="0.57552">
        <ele>2013.14</ele>
        <time>2015-01-10T08:33:51Z</time>
      </trkpt>
      <trkpt lat="42.55874" lon="0.57559">
        <ele>2014.58</ele>
        <time>2015-01-10T08:34:02Z</time>
      </trkpt>
      <trkpt lat="42.55873" lon="0.57566">
        <ele>2015.54</ele>
        <time>2015-01-10T08:34:08Z</time>
      </trkpt>
      <trkpt lat="42.55874" lon="0.57575">
        <ele>2015.06</ele>
        <time>2015-01-10T08:34:15Z</time>
      </trkpt>
      <trkpt lat="42.55874" lon="0.57587">
        <ele>2016.02</ele>
        <time>2015-01-10T08:34:28Z</time>
      </trkpt>
      <trkpt lat="42.55875" lon="0.57589">
        <ele>2016.02</ele>
        <time>2015-01-10T08:34:30Z</time>
      </trkpt>
      <trkpt lat="42.55875" lon="0.576">
        <ele>2018.91</ele>
        <time>2015-01-10T08:34:42Z</time>
      </trkpt>
      <trkpt lat="42.55874" lon="0.57605">
        <ele>2019.39</ele>
        <time>2015-01-10T08:34:47Z</time>
      </trkpt>
      <trkpt lat="42.5588" lon="0.57615">
        <ele>2017.94</ele>
        <time>2015-01-10T08:35:00Z</time>
      </trkpt>
      <trkpt lat="42.55873" lon="0.57626">
        <ele>2017.46</ele>
        <time>2015-01-10T08:35:13Z</time>
      </trkpt>
      <trkpt lat="42.55873" lon="0.57627">
        <ele>2016.98</ele>
        <time>2015-01-10T08:35:14Z</time>
      </trkpt>
      <trkpt lat="42.5587" lon="0.57632">
        <ele>2018.43</ele>
        <time>2015-01-10T08:35:25Z</time>
      </trkpt>
      <trkpt lat="42.55867" lon="0.57632">
        <ele>2019.39</ele>
        <time>2015-01-10T08:35:28Z</time>
      </trkpt>
      <trkpt lat="42.55855" lon="0.57633">
        <ele>2021.31</ele>
        <time>2015-01-10T08:35:40Z</time>
      </trkpt>
      <trkpt lat="42.55851" lon="0.57635">
        <ele>2021.79</ele>
        <time>2015-01-10T08:35:45Z</time>
      </trkpt>
      <trkpt lat="42.55845" lon="0.57646">
        <ele>2025.15</ele>
        <time>2015-01-10T08:35:59Z</time>
      </trkpt>
      <trkpt lat="42.55837" lon="0.57661">
        <ele>2027.08</ele>
        <time>2015-01-10T08:36:15Z</time>
      </trkpt>
      <trkpt lat="42.5583" lon="0.57664">
        <ele>2028.04</ele>
        <time>2015-01-10T08:36:27Z</time>
      </trkpt>
      <trkpt lat="42.55827" lon="0.57664">
        <ele>2029.48</ele>
        <time>2015-01-10T08:36:38Z</time>
      </trkpt>
      <trkpt lat="42.55821" lon="0.57668">
        <ele>2030.92</ele>
        <time>2015-01-10T08:36:50Z</time>
      </trkpt>
      <trkpt lat="42.5582" lon="0.57673">
        <ele>2032.36</ele>
        <time>2015-01-10T08:37:01Z</time>
      </trkpt>
      <trkpt lat="42.55812" lon="0.57681">
        <ele>2034.29</ele>
        <time>2015-01-10T08:37:16Z</time>
      </trkpt>
      <trkpt lat="42.55809" lon="0.57687">
        <ele>2036.21</ele>
        <time>2015-01-10T08:37:30Z</time>
      </trkpt>
      <trkpt lat="42.55808" lon="0.57692">
        <ele>2037.65</ele>
        <time>2015-01-10T08:37:42Z</time>
      </trkpt>
      <trkpt lat="42.55804" lon="0.57694">
        <ele>2040.05</ele>
        <time>2015-01-10T08:37:55Z</time>
      </trkpt>
      <trkpt lat="42.55801" lon="0.57696">
        <ele>2041.02</ele>
        <time>2015-01-10T08:38:01Z</time>
      </trkpt>
      <trkpt lat="42.55794" lon="0.57699">
        <ele>2043.9</ele>
        <time>2015-01-10T08:38:14Z</time>
      </trkpt>
      <trkpt lat="42.55792" lon="0.57708">
        <ele>2046.3</ele>
        <time>2015-01-10T08:38:26Z</time>
      </trkpt>
      <trkpt lat="42.55785" lon="0.57715">
        <ele>2048.23</ele>
        <time>2015-01-10T08:38:40Z</time>
      </trkpt>
      <trkpt lat="42.55778" lon="0.57721">
        <ele>2052.07</ele>
        <time>2015-01-10T08:38:55Z</time>
      </trkpt>
      <trkpt lat="42.55772" lon="0.57727">
        <ele>2052.07</ele>
        <time>2015-01-10T08:39:08Z</time>
      </trkpt>
      <trkpt lat="42.55767" lon="0.57735">
        <ele>2053.51</ele>
        <time>2015-01-10T08:39:24Z</time>
      </trkpt>
      <trkpt lat="42.5576" lon="0.57742">
        <ele>2055.92</ele>
        <time>2015-01-10T08:39:38Z</time>
      </trkpt>
      <trkpt lat="42.55756" lon="0.57748">
        <ele>2057.84</ele>
        <time>2015-01-10T08:39:51Z</time>
      </trkpt>
      <trkpt lat="42.55752" lon="0.57757">
        <ele>2059.28</ele>
        <time>2015-01-10T08:40:04Z</time>
      </trkpt>
      <trkpt lat="42.55749" lon="0.57762">
        <ele>2061.2</ele>
        <time>2015-01-10T08:40:17Z</time>
      </trkpt>
      <trkpt lat="42.55746" lon="0.57768">
        <ele>2062.65</ele>
        <time>2015-01-10T08:40:27Z</time>
      </trkpt>
      <trkpt lat="42.55745" lon="0.57774">
        <ele>2064.09</ele>
        <time>2015-01-10T08:40:40Z</time>
      </trkpt>
      <trkpt lat="42.5574" lon="0.57777">
        <ele>2065.53</ele>
        <time>2015-01-10T08:40:51Z</time>
      </trkpt>
      <trkpt lat="42.55738" lon="0.57784">
        <ele>2067.45</ele>
        <time>2015-01-10T08:41:04Z</time>
      </trkpt>
      <trkpt lat="42.55736" lon="0.57787">
        <ele>2069.38</ele>
        <time>2015-01-10T08:41:17Z</time>
      </trkpt>
      <trkpt lat="42.55732" lon="0.57787">
        <ele>2071.3</ele>
        <time>2015-01-10T08:41:29Z</time>
      </trkpt>
      <trkpt lat="42.55725" lon="0.57784">
        <ele>2073.7</ele>
        <time>2015-01-10T08:41:42Z</time>
      </trkpt>
      <trkpt lat="42.55721" lon="0.57788">
        <ele>2075.14</ele>
        <time>2015-01-10T08:41:54Z</time>
      </trkpt>
      <trkpt lat="42.55717" lon="0.57791">
        <ele>2077.07</ele>
        <time>2015-01-10T08:42:08Z</time>
      </trkpt>
      <trkpt lat="42.55714" lon="0.57785">
        <ele>2078.99</ele>
        <time>2015-01-10T08:42:20Z</time>
      </trkpt>
      <trkpt lat="42.55708" lon="0.57787">
        <ele>2080.91</ele>
        <time>2015-01-10T08:42:34Z</time>
      </trkpt>
      <trkpt lat="42.55703" lon="0.57788">
        <ele>2082.83</ele>
        <time>2015-01-10T08:42:47Z</time>
      </trkpt>
      <trkpt lat="42.55699" lon="0.57789">
        <ele>2085.72</ele>
        <time>2015-01-10T08:42:58Z</time>
      </trkpt>
      <trkpt lat="42.55695" lon="0.57788">
        <ele>2085.72</ele>
        <time>2015-01-10T08:43:08Z</time>
      </trkpt>
      <trkpt lat="42.55691" lon="0.5779">
        <ele>2088.12</ele>
        <time>2015-01-10T08:43:20Z</time>
      </trkpt>
      <trkpt lat="42.55684" lon="0.57796">
        <ele>2090.52</ele>
        <time>2015-01-10T08:43:35Z</time>
      </trkpt>
      <trkpt lat="42.55678" lon="0.57801">
        <ele>2092.45</ele>
        <time>2015-01-10T08:43:48Z</time>
      </trkpt>
      <trkpt lat="42.55678" lon="0.57808">
        <ele>2094.37</ele>
        <time>2015-01-10T08:44:03Z</time>
      </trkpt>
      <trkpt lat="42.55673" lon="0.57815">
        <ele>2095.81</ele>
        <time>2015-01-10T08:44:16Z</time>
      </trkpt>
      <trkpt lat="42.55668" lon="0.57827">
        <ele>2097.73</ele>
        <time>2015-01-10T08:44:31Z</time>
      </trkpt>
      <trkpt lat="42.55666" lon="0.57838">
        <ele>2098.7</ele>
        <time>2015-01-10T08:44:46Z</time>
      </trkpt>
      <trkpt lat="42.55662" lon="0.57846">
        <ele>2101.58</ele>
        <time>2015-01-10T08:44:59Z</time>
      </trkpt>
      <trkpt lat="42.5566" lon="0.57857">
        <ele>2100.62</ele>
        <time>2015-01-10T08:45:14Z</time>
      </trkpt>
      <trkpt lat="42.55659" lon="0.57866">
        <ele>2101.58</ele>
        <time>2015-01-10T08:45:28Z</time>
      </trkpt>
      <trkpt lat="42.55658" lon="0.57875">
        <ele>2103.02</ele>
        <time>2015-01-10T08:45:40Z</time>
      </trkpt>
      <trkpt lat="42.55658" lon="0.57885">
        <ele>2103.98</ele>
        <time>2015-01-10T08:45:53Z</time>
      </trkpt>
      <trkpt lat="42.55654" lon="0.57889">
        <ele>2105.42</ele>
        <time>2015-01-10T08:46:05Z</time>
      </trkpt>
      <trkpt lat="42.5565" lon="0.57891">
        <ele>2107.83</ele>
        <time>2015-01-10T08:46:18Z</time>
      </trkpt>
      <trkpt lat="42.55646" lon="0.57889">
        <ele>2109.27</ele>
        <time>2015-01-10T08:46:33Z</time>
      </trkpt>
      <trkpt lat="42.55644" lon="0.57897">
        <ele>2111.67</ele>
        <time>2015-01-10T08:46:47Z</time>
      </trkpt>
      <trkpt lat="42.55644" lon="0.57898">
        <ele>2111.67</ele>
        <time>2015-01-10T08:46:48Z</time>
      </trkpt>
      <trkpt lat="42.55641" lon="0.57906">
        <ele>2115.52</ele>
        <time>2015-01-10T08:47:00Z</time>
      </trkpt>
      <trkpt lat="42.55633" lon="0.57904">
        <ele>2116.48</ele>
        <time>2015-01-10T08:47:16Z</time>
      </trkpt>
      <trkpt lat="42.55627" lon="0.57905">
        <ele>2118.88</ele>
        <time>2015-01-10T08:47:29Z</time>
      </trkpt>
      <trkpt lat="42.55621" lon="0.57907">
        <ele>2120.81</ele>
        <time>2015-01-10T08:47:44Z</time>
      </trkpt>
      <trkpt lat="42.55614" lon="0.57911">
        <ele>2123.21</ele>
        <time>2015-01-10T08:47:59Z</time>
      </trkpt>
      <trkpt lat="42.55607" lon="0.57914">
        <ele>2125.61</ele>
        <time>2015-01-10T08:48:13Z</time>
      </trkpt>
      <trkpt lat="42.55605" lon="0.57915">
        <ele>2126.09</ele>
        <time>2015-01-10T08:48:17Z</time>
      </trkpt>
      <trkpt lat="42.55601" lon="0.57918">
        <ele>2127.05</ele>
        <time>2015-01-10T08:48:29Z</time>
      </trkpt>
      <trkpt lat="42.55596" lon="0.57927">
        <ele>2128.98</ele>
        <time>2015-01-10T08:48:43Z</time>
      </trkpt>
      <trkpt lat="42.55599" lon="0.57942">
        <ele>2131.86</ele>
        <time>2015-01-10T08:48:59Z</time>
      </trkpt>
      <trkpt lat="42.556" lon="0.57954">
        <ele>2133.78</ele>
        <time>2015-01-10T08:49:13Z</time>
      </trkpt>
      <trkpt lat="42.55599" lon="0.57965">
        <ele>2135.23</ele>
        <time>2015-01-10T08:49:24Z</time>
      </trkpt>
      <trkpt lat="42.55598" lon="0.57972">
        <ele>2135.23</ele>
        <time>2015-01-10T08:49:30Z</time>
      </trkpt>
      <trkpt lat="42.55598" lon="0.57981">
        <ele>2136.19</ele>
        <time>2015-01-10T08:49:43Z</time>
      </trkpt>
      <trkpt lat="42.55597" lon="0.57994">
        <ele>2135.71</ele>
        <time>2015-01-10T08:49:56Z</time>
      </trkpt>
      <trkpt lat="42.55588" lon="0.58002">
        <ele>2135.23</ele>
        <time>2015-01-10T08:50:06Z</time>
      </trkpt>
      <trkpt lat="42.55587" lon="0.58003">
        <ele>2135.23</ele>
        <time>2015-01-10T08:50:08Z</time>
      </trkpt>
      <trkpt lat="42.55576" lon="0.58005">
        <ele>2131.86</ele>
        <time>2015-01-10T08:50:21Z</time>
      </trkpt>
      <trkpt lat="42.55573" lon="0.58004">
        <ele>2131.38</ele>
        <time>2015-01-10T08:50:24Z</time>
      </trkpt>
      <trkpt lat="42.55572" lon="0.58006">
        <ele>2130.9</ele>
        <time>2015-01-10T08:50:26Z</time>
      </trkpt>
      <trkpt lat="42.55569" lon="0.58005">
        <ele>2130.42</ele>
        <time>2015-01-10T08:50:28Z</time>
      </trkpt>
      <trkpt lat="42.55562" lon="0.58008">
        <ele>2129.94</ele>
        <time>2015-01-10T08:50:34Z</time>
      </trkpt>
      <trkpt lat="42.55558" lon="0.58015">
        <ele>2130.9</ele>
        <time>2015-01-10T08:50:41Z</time>
      </trkpt>
      <trkpt lat="42.55551" lon="0.58025">
        <ele>2132.34</ele>
        <time>2015-01-10T08:50:51Z</time>
      </trkpt>
      <trkpt lat="42.55547" lon="0.58037">
        <ele>2133.3</ele>
        <time>2015-01-10T08:51:03Z</time>
      </trkpt>
      <trkpt lat="42.55548" lon="0.58045">
        <ele>2134.26</ele>
        <time>2015-01-10T08:51:13Z</time>
      </trkpt>
      <trkpt lat="42.55549" lon="0.58048">
        <ele>2134.74</ele>
        <time>2015-01-10T08:51:17Z</time>
      </trkpt>
      <trkpt lat="42.55542" lon="0.58054">
        <ele>2136.67</ele>
        <time>2015-01-10T08:51:30Z</time>
      </trkpt>
      <trkpt lat="42.55537" lon="0.58061">
        <ele>2139.07</ele>
        <time>2015-01-10T08:51:43Z</time>
      </trkpt>
      <trkpt lat="42.55536" lon="0.58063">
        <ele>2139.55</ele>
        <time>2015-01-10T08:51:46Z</time>
      </trkpt>
      <trkpt lat="42.5553" lon="0.58073">
        <ele>2141.47</ele>
        <time>2015-01-10T08:52:00Z</time>
      </trkpt>
      <trkpt lat="42.55523" lon="0.58084">
        <ele>2142.92</ele>
        <time>2015-01-10T08:52:12Z</time>
      </trkpt>
      <trkpt lat="42.55515" lon="0.5809">
        <ele>2144.36</ele>
        <time>2015-01-10T08:52:25Z</time>
      </trkpt>
      <trkpt lat="42.55506" lon="0.58088">
        <ele>2145.8</ele>
        <time>2015-01-10T08:52:38Z</time>
      </trkpt>
      <trkpt lat="42.55501" lon="0.58093">
        <ele>2147.72</ele>
        <time>2015-01-10T08:52:50Z</time>
      </trkpt>
      <trkpt lat="42.55495" lon="0.58098">
        <ele>2151.09</ele>
        <time>2015-01-10T08:53:03Z</time>
      </trkpt>
      <trkpt lat="42.55489" lon="0.58104">
        <ele>2150.61</ele>
        <time>2015-01-10T08:53:15Z</time>
      </trkpt>
      <trkpt lat="42.55486" lon="0.5811">
        <ele>2151.09</ele>
        <time>2015-01-10T08:53:25Z</time>
      </trkpt>
      <trkpt lat="42.55482" lon="0.58116">
        <ele>2151.09</ele>
        <time>2015-01-10T08:53:34Z</time>
      </trkpt>
      <trkpt lat="42.55473" lon="0.58127">
        <ele>2151.57</ele>
        <time>2015-01-10T08:53:49Z</time>
      </trkpt>
      <trkpt lat="42.55471" lon="0.58137">
        <ele>2151.57</ele>
        <time>2015-01-10T08:54:00Z</time>
      </trkpt>
      <trkpt lat="42.55467" lon="0.58145">
        <ele>2152.53</ele>
        <time>2015-01-10T08:54:11Z</time>
      </trkpt>
      <trkpt lat="42.55466" lon="0.58152">
        <ele>2152.05</ele>
        <time>2015-01-10T08:54:18Z</time>
      </trkpt>
      <trkpt lat="42.55464" lon="0.58163">
        <ele>2153.01</ele>
        <time>2015-01-10T08:54:29Z</time>
      </trkpt>
      <trkpt lat="42.55465" lon="0.58171">
        <ele>2153.97</ele>
        <time>2015-01-10T08:54:43Z</time>
      </trkpt>
      <trkpt lat="42.55462" lon="0.58181">
        <ele>2155.41</ele>
        <time>2015-01-10T08:54:58Z</time>
      </trkpt>
      <trkpt lat="42.55459" lon="0.58188">
        <ele>2156.86</ele>
        <time>2015-01-10T08:55:14Z</time>
      </trkpt>
      <trkpt lat="42.55456" lon="0.58197">
        <ele>2158.3</ele>
        <time>2015-01-10T08:55:30Z</time>
      </trkpt>
      <trkpt lat="42.55452" lon="0.58203">
        <ele>2159.26</ele>
        <time>2015-01-10T08:55:44Z</time>
      </trkpt>
      <trkpt lat="42.55446" lon="0.58208">
        <ele>2161.66</ele>
        <time>2015-01-10T08:55:58Z</time>
      </trkpt>
      <trkpt lat="42.5544" lon="0.58214">
        <ele>2162.62</ele>
        <time>2015-01-10T08:56:12Z</time>
      </trkpt>
      <trkpt lat="42.55436" lon="0.58217">
        <ele>2164.06</ele>
        <time>2015-01-10T08:56:26Z</time>
      </trkpt>
      <trkpt lat="42.55429" lon="0.5822">
        <ele>2165.99</ele>
        <time>2015-01-10T08:56:38Z</time>
      </trkpt>
      <trkpt lat="42.55423" lon="0.58223">
        <ele>2167.43</ele>
        <time>2015-01-10T08:56:53Z</time>
      </trkpt>
      <trkpt lat="42.55419" lon="0.58226">
        <ele>2169.35</ele>
        <time>2015-01-10T08:57:05Z</time>
      </trkpt>
      <trkpt lat="42.55415" lon="0.58234">
        <ele>2170.31</ele>
        <time>2015-01-10T08:57:20Z</time>
      </trkpt>
      <trkpt lat="42.55412" lon="0.58241">
        <ele>2171.76</ele>
        <time>2015-01-10T08:57:34Z</time>
      </trkpt>
      <trkpt lat="42.55408" lon="0.58245">
        <ele>2173.2</ele>
        <time>2015-01-10T08:57:49Z</time>
      </trkpt>
      <trkpt lat="42.55405" lon="0.5825">
        <ele>2175.12</ele>
        <time>2015-01-10T08:58:03Z</time>
      </trkpt>
      <trkpt lat="42.55404" lon="0.58256">
        <ele>2176.08</ele>
        <time>2015-01-10T08:58:16Z</time>
      </trkpt>
      <trkpt lat="42.55401" lon="0.58263">
        <ele>2178</ele>
        <time>2015-01-10T08:58:30Z</time>
      </trkpt>
      <trkpt lat="42.55398" lon="0.58269">
        <ele>2179.93</ele>
        <time>2015-01-10T08:58:47Z</time>
      </trkpt>
      <trkpt lat="42.55395" lon="0.58273">
        <ele>2181.37</ele>
        <time>2015-01-10T08:59:03Z</time>
      </trkpt>
      <trkpt lat="42.55395" lon="0.58277">
        <ele>2183.77</ele>
        <time>2015-01-10T08:59:16Z</time>
      </trkpt>
      <trkpt lat="42.55393" lon="0.58284">
        <ele>2185.21</ele>
        <time>2015-01-10T08:59:30Z</time>
      </trkpt>
      <trkpt lat="42.55392" lon="0.58289">
        <ele>2187.14</ele>
        <time>2015-01-10T08:59:45Z</time>
      </trkpt>
      <trkpt lat="42.55389" lon="0.58293">
        <ele>2189.06</ele>
        <time>2015-01-10T08:59:57Z</time>
      </trkpt>
      <trkpt lat="42.55387" lon="0.58297">
        <ele>2190.02</ele>
        <time>2015-01-10T09:00:09Z</time>
      </trkpt>
      <trkpt lat="42.55386" lon="0.58302">
        <ele>2192.42</ele>
        <time>2015-01-10T09:00:25Z</time>
      </trkpt>
      <trkpt lat="42.55381" lon="0.58308">
        <ele>2194.35</ele>
        <time>2015-01-10T09:00:40Z</time>
      </trkpt>
      <trkpt lat="42.55379" lon="0.58313">
        <ele>2195.79</ele>
        <time>2015-01-10T09:00:54Z</time>
      </trkpt>
      <trkpt lat="42.55379" lon="0.58318">
        <ele>2199.15</ele>
        <time>2015-01-10T09:01:06Z</time>
      </trkpt>
      <trkpt lat="42.55379" lon="0.58323">
        <ele>2199.63</ele>
        <time>2015-01-10T09:01:19Z</time>
      </trkpt>
      <trkpt lat="42.55376" lon="0.58332">
        <ele>2201.56</ele>
        <time>2015-01-10T09:01:32Z</time>
      </trkpt>
      <trkpt lat="42.55372" lon="0.58338">
        <ele>2203</ele>
        <time>2015-01-10T09:01:45Z</time>
      </trkpt>
      <trkpt lat="42.55367" lon="0.58347">
        <ele>2203.96</ele>
        <time>2015-01-10T09:02:01Z</time>
      </trkpt>
      <trkpt lat="42.5536" lon="0.58351">
        <ele>2205.4</ele>
        <time>2015-01-10T09:02:14Z</time>
      </trkpt>
      <trkpt lat="42.55352" lon="0.58351">
        <ele>2206.84</ele>
        <time>2015-01-10T09:02:30Z</time>
      </trkpt>
      <trkpt lat="42.55346" lon="0.58347">
        <ele>2208.29</ele>
        <time>2015-01-10T09:02:45Z</time>
      </trkpt>
      <trkpt lat="42.55343" lon="0.58341">
        <ele>2209.73</ele>
        <time>2015-01-10T09:02:59Z</time>
      </trkpt>
      <trkpt lat="42.55339" lon="0.5834">
        <ele>2211.65</ele>
        <time>2015-01-10T09:03:12Z</time>
      </trkpt>
      <trkpt lat="42.55335" lon="0.58337">
        <ele>2214.05</ele>
        <time>2015-01-10T09:03:24Z</time>
      </trkpt>
      <trkpt lat="42.55333" lon="0.58338">
        <ele>2215.5</ele>
        <time>2015-01-10T09:03:36Z</time>
      </trkpt>
      <trkpt lat="42.55331" lon="0.58342">
        <ele>2215.98</ele>
        <time>2015-01-10T09:03:50Z</time>
      </trkpt>
      <trkpt lat="42.55332" lon="0.58342">
        <ele>2215.98</ele>
        <time>2015-01-10T09:04:11Z</time>
      </trkpt>
      <trkpt lat="42.5533" lon="0.58338">
        <ele>2215.5</ele>
        <time>2015-01-10T09:04:33Z</time>
      </trkpt>
      <trkpt lat="42.55329" lon="0.58337">
        <ele>2215.5</ele>
        <time>2015-01-10T09:04:53Z</time>
      </trkpt>
      <trkpt lat="42.55329" lon="0.5834">
        <ele>2215.01</ele>
        <time>2015-01-10T09:05:17Z</time>
      </trkpt>
      <trkpt lat="42.55329" lon="0.58338">
        <ele>2215.98</ele>
        <time>2015-01-10T09:05:40Z</time>
      </trkpt>
      <trkpt lat="42.55329" lon="0.58338">
        <ele>2215.98</ele>
        <time>2015-01-10T09:06:06Z</time>
      </trkpt>
      <trkpt lat="42.55329" lon="0.5834">
        <ele>2216.46</ele>
        <time>2015-01-10T09:06:44Z</time>
      </trkpt>
      <trkpt lat="42.55328" lon="0.58342">
        <ele>2216.46</ele>
        <time>2015-01-10T09:07:12Z</time>
      </trkpt>
      <trkpt lat="42.55327" lon="0.58341">
        <ele>2216.46</ele>
        <time>2015-01-10T09:07:39Z</time>
      </trkpt>
      <trkpt lat="42.55328" lon="0.58339">
        <ele>2216.46</ele>
        <time>2015-01-10T09:08:04Z</time>
      </trkpt>
      <trkpt lat="42.55332" lon="0.58343">
        <ele>2216.46</ele>
        <time>2015-01-10T09:08:21Z</time>
      </trkpt>
      <trkpt lat="42.5533" lon="0.58342">
        <ele>2216.46</ele>
        <time>2015-01-10T09:08:45Z</time>
      </trkpt>
      <trkpt lat="42.55324" lon="0.58347">
        <ele>2217.9</ele>
        <time>2015-01-10T09:08:59Z</time>
      </trkpt>
      <trkpt lat="42.55319" lon="0.58355">
        <ele>2220.78</ele>
        <time>2015-01-10T09:09:13Z</time>
      </trkpt>
      <trkpt lat="42.55315" lon="0.58361">
        <ele>2222.22</ele>
        <time>2015-01-10T09:09:27Z</time>
      </trkpt>
      <trkpt lat="42.55309" lon="0.58368">
        <ele>2224.63</ele>
        <time>2015-01-10T09:09:42Z</time>
      </trkpt>
      <trkpt lat="42.55305" lon="0.58373">
        <ele>2226.55</ele>
        <time>2015-01-10T09:09:57Z</time>
      </trkpt>
      <trkpt lat="42.553" lon="0.58378">
        <ele>2229.92</ele>
        <time>2015-01-10T09:10:11Z</time>
      </trkpt>
      <trkpt lat="42.55293" lon="0.58381">
        <ele>2231.84</ele>
        <time>2015-01-10T09:10:23Z</time>
      </trkpt>
      <trkpt lat="42.55289" lon="0.58387">
        <ele>2233.28</ele>
        <time>2015-01-10T09:10:39Z</time>
      </trkpt>
      <trkpt lat="42.55286" lon="0.5839">
        <ele>2234.72</ele>
        <time>2015-01-10T09:10:49Z</time>
      </trkpt>
      <trkpt lat="42.55283" lon="0.58396">
        <ele>2237.13</ele>
        <time>2015-01-10T09:11:02Z</time>
      </trkpt>
      <trkpt lat="42.55278" lon="0.58403">
        <ele>2237.13</ele>
        <time>2015-01-10T09:11:13Z</time>
      </trkpt>
      <trkpt lat="42.55277" lon="0.58403">
        <ele>2237.13</ele>
        <time>2015-01-10T09:11:14Z</time>
      </trkpt>
      <trkpt lat="42.55274" lon="0.58409">
        <ele>2240.01</ele>
        <time>2015-01-10T09:11:21Z</time>
      </trkpt>
      <trkpt lat="42.55269" lon="0.58417">
        <ele>2240.97</ele>
        <time>2015-01-10T09:11:30Z</time>
      </trkpt>
      <trkpt lat="42.55263" lon="0.58424">
        <ele>2240.49</ele>
        <time>2015-01-10T09:11:43Z</time>
      </trkpt>
      <trkpt lat="42.55257" lon="0.58435">
        <ele>2239.05</ele>
        <time>2015-01-10T09:11:57Z</time>
      </trkpt>
      <trkpt lat="42.5525" lon="0.58439">
        <ele>2238.09</ele>
        <time>2015-01-10T09:12:09Z</time>
      </trkpt>
      <trkpt lat="42.55244" lon="0.58446">
        <ele>2236.64</ele>
        <time>2015-01-10T09:12:21Z</time>
      </trkpt>
      <trkpt lat="42.5524" lon="0.58453">
        <ele>2235.2</ele>
        <time>2015-01-10T09:12:34Z</time>
      </trkpt>
      <trkpt lat="42.55237" lon="0.58456">
        <ele>2235.2</ele>
        <time>2015-01-10T09:12:46Z</time>
      </trkpt>
      <trkpt lat="42.55231" lon="0.58462">
        <ele>2234.72</ele>
        <time>2015-01-10T09:13:00Z</time>
      </trkpt>
      <trkpt lat="42.55229" lon="0.58467">
        <ele>2234.24</ele>
        <time>2015-01-10T09:13:05Z</time>
      </trkpt>
      <trkpt lat="42.55225" lon="0.58475">
        <ele>2234.72</ele>
        <time>2015-01-10T09:13:17Z</time>
      </trkpt>
      <trkpt lat="42.55223" lon="0.5848">
        <ele>2235.68</ele>
        <time>2015-01-10T09:13:22Z</time>
      </trkpt>
      <trkpt lat="42.55218" lon="0.58491">
        <ele>2237.13</ele>
        <time>2015-01-10T09:13:36Z</time>
      </trkpt>
      <trkpt lat="42.55215" lon="0.58498">
        <ele>2238.09</ele>
        <time>2015-01-10T09:13:49Z</time>
      </trkpt>
      <trkpt lat="42.55209" lon="0.58507">
        <ele>2240.01</ele>
        <time>2015-01-10T09:14:03Z</time>
      </trkpt>
      <trkpt lat="42.55204" lon="0.58517">
        <ele>2241.93</ele>
        <time>2015-01-10T09:14:18Z</time>
      </trkpt>
      <trkpt lat="42.55204" lon="0.58531">
        <ele>2243.37</ele>
        <time>2015-01-10T09:14:33Z</time>
      </trkpt>
      <trkpt lat="42.55203" lon="0.58533">
        <ele>2243.85</ele>
        <time>2015-01-10T09:14:35Z</time>
      </trkpt>
      <trkpt lat="42.552" lon="0.58539">
        <ele>2244.33</ele>
        <time>2015-01-10T09:14:43Z</time>
      </trkpt>
      <trkpt lat="42.55197" lon="0.58549">
        <ele>2245.3</ele>
        <time>2015-01-10T09:14:54Z</time>
      </trkpt>
      <trkpt lat="42.55196" lon="0.58551">
        <ele>2245.3</ele>
        <time>2015-01-10T09:14:57Z</time>
      </trkpt>
      <trkpt lat="42.55191" lon="0.58563">
        <ele>2246.26</ele>
        <time>2015-01-10T09:15:10Z</time>
      </trkpt>
      <trkpt lat="42.55186" lon="0.58572">
        <ele>2247.22</ele>
        <time>2015-01-10T09:15:21Z</time>
      </trkpt>
      <trkpt lat="42.55183" lon="0.58583">
        <ele>2247.22</ele>
        <time>2015-01-10T09:15:35Z</time>
      </trkpt>
      <trkpt lat="42.55179" lon="0.58597">
        <ele>2248.18</ele>
        <time>2015-01-10T09:15:49Z</time>
      </trkpt>
      <trkpt lat="42.55177" lon="0.58603">
        <ele>2248.66</ele>
        <time>2015-01-10T09:16:01Z</time>
      </trkpt>
      <trkpt lat="42.55177" lon="0.58603">
        <ele>2249.14</ele>
        <time>2015-01-10T09:16:21Z</time>
      </trkpt>
      <trkpt lat="42.55179" lon="0.58604">
        <ele>2248.66</ele>
        <time>2015-01-10T09:16:37Z</time>
      </trkpt>
      <trkpt lat="42.55179" lon="0.58605">
        <ele>2249.14</ele>
        <time>2015-01-10T09:16:51Z</time>
      </trkpt>
      <trkpt lat="42.55177" lon="0.58615">
        <ele>2249.62</ele>
        <time>2015-01-10T09:17:02Z</time>
      </trkpt>
      <trkpt lat="42.55176" lon="0.58632">
        <ele>2251.06</ele>
        <time>2015-01-10T09:17:14Z</time>
      </trkpt>
      <trkpt lat="42.55178" lon="0.58642">
        <ele>2251.06</ele>
        <time>2015-01-10T09:17:21Z</time>
      </trkpt>
      <trkpt lat="42.55179" lon="0.58661">
        <ele>2252.51</ele>
        <time>2015-01-10T09:17:36Z</time>
      </trkpt>
      <trkpt lat="42.55179" lon="0.58663">
        <ele>2252.51</ele>
        <time>2015-01-10T09:17:37Z</time>
      </trkpt>
      <trkpt lat="42.5518" lon="0.58674">
        <ele>2253.95</ele>
        <time>2015-01-10T09:17:48Z</time>
      </trkpt>
      <trkpt lat="42.5518" lon="0.58678">
        <ele>2254.43</ele>
        <time>2015-01-10T09:17:51Z</time>
      </trkpt>
      <trkpt lat="42.55182" lon="0.58688">
        <ele>2255.39</ele>
        <time>2015-01-10T09:18:00Z</time>
      </trkpt>
      <trkpt lat="42.55183" lon="0.58693">
        <ele>2255.39</ele>
        <time>2015-01-10T09:18:04Z</time>
      </trkpt>
      <trkpt lat="42.55184" lon="0.58696">
        <ele>2255.87</ele>
        <time>2015-01-10T09:18:06Z</time>
      </trkpt>
      <trkpt lat="42.55185" lon="0.58699">
        <ele>2255.87</ele>
        <time>2015-01-10T09:18:09Z</time>
      </trkpt>
      <trkpt lat="42.55194" lon="0.58715">
        <ele>2256.83</ele>
        <time>2015-01-10T09:18:25Z</time>
      </trkpt>
      <trkpt lat="42.55203" lon="0.58727">
        <ele>2258.27</ele>
        <time>2015-01-10T09:18:39Z</time>
      </trkpt>
      <trkpt lat="42.55204" lon="0.58728">
        <ele>2258.27</ele>
        <time>2015-01-10T09:18:40Z</time>
      </trkpt>
      <trkpt lat="42.55219" lon="0.58741">
        <ele>2259.24</ele>
        <time>2015-01-10T09:18:57Z</time>
      </trkpt>
      <trkpt lat="42.5523" lon="0.5875">
        <ele>2259.72</ele>
        <time>2015-01-10T09:19:10Z</time>
      </trkpt>
      <trkpt lat="42.55239" lon="0.58756">
        <ele>2260.68</ele>
        <time>2015-01-10T09:19:21Z</time>
      </trkpt>
      <trkpt lat="42.55242" lon="0.58758">
        <ele>2260.68</ele>
        <time>2015-01-10T09:19:25Z</time>
      </trkpt>
      <trkpt lat="42.55254" lon="0.58765">
        <ele>2261.64</ele>
        <time>2015-01-10T09:19:38Z</time>
      </trkpt>
      <trkpt lat="42.55258" lon="0.58769">
        <ele>2261.64</ele>
        <time>2015-01-10T09:19:43Z</time>
      </trkpt>
      <trkpt lat="42.55268" lon="0.58779">
        <ele>2262.6</ele>
        <time>2015-01-10T09:19:58Z</time>
      </trkpt>
      <trkpt lat="42.55271" lon="0.58781">
        <ele>2263.08</ele>
        <time>2015-01-10T09:20:03Z</time>
      </trkpt>
      <trkpt lat="42.55273" lon="0.58783">
        <ele>2263.56</ele>
        <time>2015-01-10T09:20:05Z</time>
      </trkpt>
      <trkpt lat="42.55277" lon="0.58791">
        <ele>2264.52</ele>
        <time>2015-01-10T09:20:15Z</time>
      </trkpt>
      <trkpt lat="42.55282" lon="0.58798">
        <ele>2266.45</ele>
        <time>2015-01-10T09:20:26Z</time>
      </trkpt>
      <trkpt lat="42.55283" lon="0.58798">
        <ele>2266.45</ele>
        <time>2015-01-10T09:20:27Z</time>
      </trkpt>
      <trkpt lat="42.55283" lon="0.588">
        <ele>2266.45</ele>
        <time>2015-01-10T09:20:29Z</time>
      </trkpt>
      <trkpt lat="42.55289" lon="0.5881">
        <ele>2268.37</ele>
        <time>2015-01-10T09:20:40Z</time>
      </trkpt>
      <trkpt lat="42.55294" lon="0.58818">
        <ele>2269.81</ele>
        <time>2015-01-10T09:20:50Z</time>
      </trkpt>
      <trkpt lat="42.553" lon="0.58824">
        <ele>2271.25</ele>
        <time>2015-01-10T09:21:00Z</time>
      </trkpt>
      <trkpt lat="42.553" lon="0.58826">
        <ele>2271.73</ele>
        <time>2015-01-10T09:21:02Z</time>
      </trkpt>
      <trkpt lat="42.55302" lon="0.58828">
        <ele>2272.21</ele>
        <time>2015-01-10T09:21:05Z</time>
      </trkpt>
      <trkpt lat="42.55308" lon="0.58838">
        <ele>2273.17</ele>
        <time>2015-01-10T09:21:18Z</time>
      </trkpt>
      <trkpt lat="42.55312" lon="0.58846">
        <ele>2274.62</ele>
        <time>2015-01-10T09:21:28Z</time>
      </trkpt>
      <trkpt lat="42.55316" lon="0.58853">
        <ele>2276.06</ele>
        <time>2015-01-10T09:21:36Z</time>
      </trkpt>
      <trkpt lat="42.55322" lon="0.58862">
        <ele>2277.5</ele>
        <time>2015-01-10T09:21:47Z</time>
      </trkpt>
      <trkpt lat="42.55326" lon="0.58868">
        <ele>2278.94</ele>
        <time>2015-01-10T09:21:58Z</time>
      </trkpt>
      <trkpt lat="42.55331" lon="0.58877">
        <ele>2280.38</ele>
        <time>2015-01-10T09:22:09Z</time>
      </trkpt>
      <trkpt lat="42.55336" lon="0.58889">
        <ele>2281.83</ele>
        <time>2015-01-10T09:22:21Z</time>
      </trkpt>
      <trkpt lat="42.5534" lon="0.589">
        <ele>2283.27</ele>
        <time>2015-01-10T09:22:32Z</time>
      </trkpt>
      <trkpt lat="42.55339" lon="0.58915">
        <ele>2285.19</ele>
        <time>2015-01-10T09:22:44Z</time>
      </trkpt>
      <trkpt lat="42.55338" lon="0.5892">
        <ele>2286.15</ele>
        <time>2015-01-10T09:22:49Z</time>
      </trkpt>
      <trkpt lat="42.55333" lon="0.58935">
        <ele>2287.11</ele>
        <time>2015-01-10T09:23:04Z</time>
      </trkpt>
      <trkpt lat="42.55331" lon="0.5894">
        <ele>2288.08</ele>
        <time>2015-01-10T09:23:10Z</time>
      </trkpt>
      <trkpt lat="42.55329" lon="0.58952">
        <ele>2289.04</ele>
        <time>2015-01-10T09:23:22Z</time>
      </trkpt>
      <trkpt lat="42.55324" lon="0.58965">
        <ele>2290.96</ele>
        <time>2015-01-10T09:23:35Z</time>
      </trkpt>
      <trkpt lat="42.55319" lon="0.58974">
        <ele>2291.92</ele>
        <time>2015-01-10T09:23:48Z</time>
      </trkpt>
      <trkpt lat="42.55314" lon="0.58983">
        <ele>2293.36</ele>
        <time>2015-01-10T09:23:59Z</time>
      </trkpt>
      <trkpt lat="42.55311" lon="0.58992">
        <ele>2295.28</ele>
        <time>2015-01-10T09:24:13Z</time>
      </trkpt>
      <trkpt lat="42.55306" lon="0.59004">
        <ele>2296.73</ele>
        <time>2015-01-10T09:24:28Z</time>
      </trkpt>
      <trkpt lat="42.55302" lon="0.59015">
        <ele>2297.69</ele>
        <time>2015-01-10T09:24:40Z</time>
      </trkpt>
      <trkpt lat="42.55296" lon="0.59018">
        <ele>2299.61</ele>
        <time>2015-01-10T09:24:54Z</time>
      </trkpt>
      <trkpt lat="42.55294" lon="0.59022">
        <ele>2300.57</ele>
        <time>2015-01-10T09:25:06Z</time>
      </trkpt>
      <trkpt lat="42.55292" lon="0.59027">
        <ele>2301.53</ele>
        <time>2015-01-10T09:25:17Z</time>
      </trkpt>
      <trkpt lat="42.55292" lon="0.59028">
        <ele>2301.53</ele>
        <time>2015-01-10T09:25:18Z</time>
      </trkpt>
      <trkpt lat="42.55289" lon="0.59037">
        <ele>2303.46</ele>
        <time>2015-01-10T09:25:29Z</time>
      </trkpt>
      <trkpt lat="42.55285" lon="0.59043">
        <ele>2304.9</ele>
        <time>2015-01-10T09:25:38Z</time>
      </trkpt>
      <trkpt lat="42.55282" lon="0.5905">
        <ele>2306.34</ele>
        <time>2015-01-10T09:25:49Z</time>
      </trkpt>
      <trkpt lat="42.55278" lon="0.59056">
        <ele>2307.78</ele>
        <time>2015-01-10T09:25:59Z</time>
      </trkpt>
      <trkpt lat="42.55277" lon="0.5906">
        <ele>2308.74</ele>
        <time>2015-01-10T09:26:03Z</time>
      </trkpt>
      <trkpt lat="42.55274" lon="0.59072">
        <ele>2309.7</ele>
        <time>2015-01-10T09:26:17Z</time>
      </trkpt>
      <trkpt lat="42.5527" lon="0.59074">
        <ele>2310.67</ele>
        <time>2015-01-10T09:26:28Z</time>
      </trkpt>
      <trkpt lat="42.55262" lon="0.59073">
        <ele>2313.07</ele>
        <time>2015-01-10T09:26:42Z</time>
      </trkpt>
      <trkpt lat="42.55253" lon="0.59079">
        <ele>2314.51</ele>
        <time>2015-01-10T09:26:57Z</time>
      </trkpt>
      <trkpt lat="42.55247" lon="0.59084">
        <ele>2314.99</ele>
        <time>2015-01-10T09:27:06Z</time>
      </trkpt>
      <trkpt lat="42.55237" lon="0.59093">
        <ele>2315.95</ele>
        <time>2015-01-10T09:27:20Z</time>
      </trkpt>
      <trkpt lat="42.55231" lon="0.59097">
        <ele>2316.43</ele>
        <time>2015-01-10T09:27:32Z</time>
      </trkpt>
      <trkpt lat="42.55228" lon="0.59098">
        <ele>2316.91</ele>
        <time>2015-01-10T09:27:49Z</time>
      </trkpt>
      <trkpt lat="42.55225" lon="0.59099">
        <ele>2316.91</ele>
        <time>2015-01-10T09:27:51Z</time>
      </trkpt>
      <trkpt lat="42.55223" lon="0.59104">
        <ele>2317.4</ele>
        <time>2015-01-10T09:27:55Z</time>
      </trkpt>
      <trkpt lat="42.55222" lon="0.59107">
        <ele>2317.4</ele>
        <time>2015-01-10T09:27:59Z</time>
      </trkpt>
      <trkpt lat="42.5522" lon="0.59109">
        <ele>2317.4</ele>
        <time>2015-01-10T09:28:01Z</time>
      </trkpt>
      <trkpt lat="42.5522" lon="0.59111">
        <ele>2317.4</ele>
        <time>2015-01-10T09:28:03Z</time>
      </trkpt>
      <trkpt lat="42.55216" lon="0.59116">
        <ele>2318.84</ele>
        <time>2015-01-10T09:28:11Z</time>
      </trkpt>
      <trkpt lat="42.55211" lon="0.59117">
        <ele>2319.8</ele>
        <time>2015-01-10T09:28:16Z</time>
      </trkpt>
      <trkpt lat="42.55205" lon="0.59123">
        <ele>2321.24</ele>
        <time>2015-01-10T09:28:28Z</time>
      </trkpt>
      <trkpt lat="42.55199" lon="0.59128">
        <ele>2322.2</ele>
        <time>2015-01-10T09:28:41Z</time>
      </trkpt>
      <trkpt lat="42.55198" lon="0.59128">
        <ele>2322.2</ele>
        <time>2015-01-10T09:28:42Z</time>
      </trkpt>
      <trkpt lat="42.55193" lon="0.59129">
        <ele>2323.64</ele>
        <time>2015-01-10T09:28:49Z</time>
      </trkpt>
      <trkpt lat="42.55187" lon="0.59126">
        <ele>2324.61</ele>
        <time>2015-01-10T09:28:57Z</time>
      </trkpt>
      <trkpt lat="42.5518" lon="0.59129">
        <ele>2326.53</ele>
        <time>2015-01-10T09:29:11Z</time>
      </trkpt>
      <trkpt lat="42.55178" lon="0.59139">
        <ele>2328.45</ele>
        <time>2015-01-10T09:29:24Z</time>
      </trkpt>
      <trkpt lat="42.55172" lon="0.59146">
        <ele>2329.89</ele>
        <time>2015-01-10T09:29:37Z</time>
      </trkpt>
      <trkpt lat="42.55167" lon="0.59147">
        <ele>2331.33</ele>
        <time>2015-01-10T09:29:47Z</time>
      </trkpt>
      <trkpt lat="42.55165" lon="0.59147">
        <ele>2331.81</ele>
        <time>2015-01-10T09:30:04Z</time>
      </trkpt>
      <trkpt lat="42.55166" lon="0.59145">
        <ele>2331.81</ele>
        <time>2015-01-10T09:30:22Z</time>
      </trkpt>
      <trkpt lat="42.55165" lon="0.59144">
        <ele>2331.81</ele>
        <time>2015-01-10T09:30:39Z</time>
      </trkpt>
      <trkpt lat="42.55162" lon="0.59144">
        <ele>2332.78</ele>
        <time>2015-01-10T09:30:52Z</time>
      </trkpt>
      <trkpt lat="42.5516" lon="0.59142">
        <ele>2333.74</ele>
        <time>2015-01-10T09:31:05Z</time>
      </trkpt>
      <trkpt lat="42.55159" lon="0.59143">
        <ele>2333.74</ele>
        <time>2015-01-10T09:31:19Z</time>
      </trkpt>
      <trkpt lat="42.55154" lon="0.59145">
        <ele>2336.14</ele>
        <time>2015-01-10T09:31:31Z</time>
      </trkpt>
      <trkpt lat="42.55152" lon="0.59149">
        <ele>2337.1</ele>
        <time>2015-01-10T09:31:41Z</time>
      </trkpt>
      <trkpt lat="42.55151" lon="0.59155">
        <ele>2338.54</ele>
        <time>2015-01-10T09:31:53Z</time>
      </trkpt>
      <trkpt lat="42.55154" lon="0.59162">
        <ele>2338.54</ele>
        <time>2015-01-10T09:32:06Z</time>
      </trkpt>
      <trkpt lat="42.55155" lon="0.59165">
        <ele>2339.02</ele>
        <time>2015-01-10T09:32:19Z</time>
      </trkpt>
      <trkpt lat="42.55155" lon="0.59166">
        <ele>2338.54</ele>
        <time>2015-01-10T09:32:20Z</time>
      </trkpt>
      <trkpt lat="42.5515" lon="0.59173">
        <ele>2338.54</ele>
        <time>2015-01-10T09:32:33Z</time>
      </trkpt>
      <trkpt lat="42.55149" lon="0.59174">
        <ele>2338.54</ele>
        <time>2015-01-10T09:32:55Z</time>
      </trkpt>
      <trkpt lat="42.55146" lon="0.59173">
        <ele>2338.54</ele>
        <time>2015-01-10T09:33:26Z</time>
      </trkpt>
      <trkpt lat="42.55147" lon="0.59173">
        <ele>2339.02</ele>
        <time>2015-01-10T09:33:55Z</time>
      </trkpt>
      <trkpt lat="42.5515" lon="0.59175">
        <ele>2338.54</ele>
        <time>2015-01-10T09:34:17Z</time>
      </trkpt>
      <trkpt lat="42.55145" lon="0.59175">
        <ele>2338.06</ele>
        <time>2015-01-10T09:34:29Z</time>
      </trkpt>
      <trkpt lat="42.55143" lon="0.59177">
        <ele>2337.1</ele>
        <time>2015-01-10T09:34:43Z</time>
      </trkpt>
      <trkpt lat="42.5514" lon="0.59178">
        <ele>2336.14</ele>
        <time>2015-01-10T09:34:57Z</time>
      </trkpt>
      <trkpt lat="42.55137" lon="0.59179">
        <ele>2334.7</ele>
        <time>2015-01-10T09:35:08Z</time>
      </trkpt>
      <trkpt lat="42.55133" lon="0.5918">
        <ele>2333.26</ele>
        <time>2015-01-10T09:35:23Z</time>
      </trkpt>
      <trkpt lat="42.55131" lon="0.59183">
        <ele>2331.81</ele>
        <time>2015-01-10T09:35:34Z</time>
      </trkpt>
      <trkpt lat="42.55125" lon="0.59182">
        <ele>2331.33</ele>
        <time>2015-01-10T09:35:47Z</time>
      </trkpt>
      <trkpt lat="42.55124" lon="0.59182">
        <ele>2331.33</ele>
        <time>2015-01-10T09:35:59Z</time>
      </trkpt>
      <trkpt lat="42.55124" lon="0.59182">
        <ele>2331.33</ele>
        <time>2015-01-10T09:36:00Z</time>
      </trkpt>
      <trkpt lat="42.55121" lon="0.59183">
        <ele>2331.33</ele>
        <time>2015-01-10T09:36:14Z</time>
      </trkpt>
      <trkpt lat="42.55124" lon="0.59187">
        <ele>2329.89</ele>
        <time>2015-01-10T09:36:28Z</time>
      </trkpt>
      <trkpt lat="42.55122" lon="0.59187">
        <ele>2327.97</ele>
        <time>2015-01-10T09:36:41Z</time>
      </trkpt>
      <trkpt lat="42.55121" lon="0.59187">
        <ele>2327.97</ele>
        <time>2015-01-10T09:36:52Z</time>
      </trkpt>
      <trkpt lat="42.55123" lon="0.59191">
        <ele>2326.53</ele>
        <time>2015-01-10T09:37:03Z</time>
      </trkpt>
      <trkpt lat="42.55123" lon="0.59194">
        <ele>2324.12</ele>
        <time>2015-01-10T09:37:14Z</time>
      </trkpt>
      <trkpt lat="42.55125" lon="0.59198">
        <ele>2322.2</ele>
        <time>2015-01-10T09:37:25Z</time>
      </trkpt>
      <trkpt lat="42.55121" lon="0.592">
        <ele>2319.8</ele>
        <time>2015-01-10T09:37:37Z</time>
      </trkpt>
      <trkpt lat="42.5512" lon="0.59199">
        <ele>2319.32</ele>
        <time>2015-01-10T09:37:50Z</time>
      </trkpt>
      <trkpt lat="42.55119" lon="0.59205">
        <ele>2317.88</ele>
        <time>2015-01-10T09:38:03Z</time>
      </trkpt>
      <trkpt lat="42.55113" lon="0.59205">
        <ele>2315.95</ele>
        <time>2015-01-10T09:38:15Z</time>
      </trkpt>
      <trkpt lat="42.55112" lon="0.59208">
        <ele>2314.99</ele>
        <time>2015-01-10T09:38:25Z</time>
      </trkpt>
      <trkpt lat="42.55109" lon="0.59208">
        <ele>2313.55</ele>
        <time>2015-01-10T09:38:37Z</time>
      </trkpt>
      <trkpt lat="42.55109" lon="0.59209">
        <ele>2312.11</ele>
        <time>2015-01-10T09:38:48Z</time>
      </trkpt>
      <trkpt lat="42.55111" lon="0.59211">
        <ele>2310.19</ele>
        <time>2015-01-10T09:38:59Z</time>
      </trkpt>
      <trkpt lat="42.55103" lon="0.59212">
        <ele>2309.7</ele>
        <time>2015-01-10T09:39:10Z</time>
      </trkpt>
      <trkpt lat="42.55099" lon="0.59213">
        <ele>2309.22</ele>
        <time>2015-01-10T09:39:22Z</time>
      </trkpt>
      <trkpt lat="42.55095" lon="0.59213">
        <ele>2308.74</ele>
        <time>2015-01-10T09:39:37Z</time>
      </trkpt>
      <trkpt lat="42.55094" lon="0.59216">
        <ele>2307.3</ele>
        <time>2015-01-10T09:39:48Z</time>
      </trkpt>
      <trkpt lat="42.55091" lon="0.59215">
        <ele>2306.82</ele>
        <time>2015-01-10T09:40:04Z</time>
      </trkpt>
      <trkpt lat="42.55088" lon="0.59214">
        <ele>2305.86</ele>
        <time>2015-01-10T09:40:17Z</time>
      </trkpt>
      <trkpt lat="42.55078" lon="0.59213">
        <ele>2304.9</ele>
        <time>2015-01-10T09:40:31Z</time>
      </trkpt>
      <trkpt lat="42.55072" lon="0.59211">
        <ele>2304.9</ele>
        <time>2015-01-10T09:40:42Z</time>
      </trkpt>
      <trkpt lat="42.55066" lon="0.59209">
        <ele>2304.42</ele>
        <time>2015-01-10T09:40:55Z</time>
      </trkpt>
      <trkpt lat="42.55057" lon="0.59206">
        <ele>2304.9</ele>
        <time>2015-01-10T09:41:09Z</time>
      </trkpt>
      <trkpt lat="42.55051" lon="0.59205">
        <ele>2306.34</ele>
        <time>2015-01-10T09:41:22Z</time>
      </trkpt>
      <trkpt lat="42.55043" lon="0.59207">
        <ele>2305.86</ele>
        <time>2015-01-10T09:41:35Z</time>
      </trkpt>
      <trkpt lat="42.55036" lon="0.59209">
        <ele>2305.86</ele>
        <time>2015-01-10T09:41:48Z</time>
      </trkpt>
      <trkpt lat="42.55031" lon="0.59211">
        <ele>2306.34</ele>
        <time>2015-01-10T09:42:00Z</time>
      </trkpt>
      <trkpt lat="42.55025" lon="0.59214">
        <ele>2306.82</ele>
        <time>2015-01-10T09:42:13Z</time>
      </trkpt>
      <trkpt lat="42.55024" lon="0.59211">
        <ele>2306.82</ele>
        <time>2015-01-10T09:42:27Z</time>
      </trkpt>
      <trkpt lat="42.55021" lon="0.5921">
        <ele>2306.82</ele>
        <time>2015-01-10T09:42:55Z</time>
      </trkpt>
      <trkpt lat="42.55026" lon="0.59212">
        <ele>2306.34</ele>
        <time>2015-01-10T09:43:06Z</time>
      </trkpt>
      <trkpt lat="42.55026" lon="0.59211">
        <ele>2306.82</ele>
        <time>2015-01-10T09:43:39Z</time>
      </trkpt>
      <trkpt lat="42.55025" lon="0.59207">
        <ele>2306.82</ele>
        <time>2015-01-10T09:44:15Z</time>
      </trkpt>
      <trkpt lat="42.55026" lon="0.59207">
        <ele>2306.34</ele>
        <time>2015-01-10T09:44:34Z</time>
      </trkpt>
      <trkpt lat="42.55026" lon="0.59207">
        <ele>2306.34</ele>
        <time>2015-01-10T09:45:01Z</time>
      </trkpt>
      <trkpt lat="42.55024" lon="0.59209">
        <ele>2306.82</ele>
        <time>2015-01-10T09:45:38Z</time>
      </trkpt>
      <trkpt lat="42.55024" lon="0.5921">
        <ele>2306.34</ele>
        <time>2015-01-10T09:46:17Z</time>
      </trkpt>
      <trkpt lat="42.55025" lon="0.5921">
        <ele>2306.82</ele>
        <time>2015-01-10T09:46:47Z</time>
      </trkpt>
      <trkpt lat="42.55026" lon="0.59209">
        <ele>2306.82</ele>
        <time>2015-01-10T09:47:18Z</time>
      </trkpt>
      <trkpt lat="42.55024" lon="0.59211">
        <ele>2307.78</ele>
        <time>2015-01-10T09:47:48Z</time>
      </trkpt>
      <trkpt lat="42.55024" lon="0.59211">
        <ele>2307.3</ele>
        <time>2015-01-10T09:48:25Z</time>
      </trkpt>
      <trkpt lat="42.55025" lon="0.59211">
        <ele>2307.3</ele>
        <time>2015-01-10T09:48:45Z</time>
      </trkpt>
      <trkpt lat="42.55023" lon="0.59209">
        <ele>2307.3</ele>
        <time>2015-01-10T09:49:09Z</time>
      </trkpt>
      <trkpt lat="42.55024" lon="0.59207">
        <ele>2307.3</ele>
        <time>2015-01-10T09:49:43Z</time>
      </trkpt>
      <trkpt lat="42.55025" lon="0.59205">
        <ele>2307.3</ele>
        <time>2015-01-10T09:50:11Z</time>
      </trkpt>
      <trkpt lat="42.55025" lon="0.59204">
        <ele>2307.3</ele>
        <time>2015-01-10T09:50:47Z</time>
      </trkpt>
      <trkpt lat="42.55024" lon="0.59207">
        <ele>2309.22</ele>
        <time>2015-01-10T09:51:10Z</time>
      </trkpt>
      <trkpt lat="42.55024" lon="0.59211">
        <ele>2309.22</ele>
        <time>2015-01-10T09:51:21Z</time>
      </trkpt>
      <trkpt lat="42.55025" lon="0.59211">
        <ele>2309.22</ele>
        <time>2015-01-10T09:51:43Z</time>
      </trkpt>
      <trkpt lat="42.55023" lon="0.59204">
        <ele>2308.74</ele>
        <time>2015-01-10T09:52:08Z</time>
      </trkpt>
      <trkpt lat="42.55023" lon="0.59207">
        <ele>2309.22</ele>
        <time>2015-01-10T09:52:45Z</time>
      </trkpt>
      <trkpt lat="42.55023" lon="0.59209">
        <ele>2309.22</ele>
        <time>2015-01-10T09:53:08Z</time>
      </trkpt>
      <trkpt lat="42.55022" lon="0.59207">
        <ele>2308.26</ele>
        <time>2015-01-10T09:53:32Z</time>
      </trkpt>
      <trkpt lat="42.55023" lon="0.59212">
        <ele>2309.22</ele>
        <time>2015-01-10T09:53:53Z</time>
      </trkpt>
      <trkpt lat="42.55018" lon="0.59212">
        <ele>2309.22</ele>
        <time>2015-01-10T09:54:06Z</time>
      </trkpt>
      <trkpt lat="42.55007" lon="0.59211">
        <ele>2310.67</ele>
        <time>2015-01-10T09:54:22Z</time>
      </trkpt>
      <trkpt lat="42.54999" lon="0.59213">
        <ele>2311.15</ele>
        <time>2015-01-10T09:54:37Z</time>
      </trkpt>
      <trkpt lat="42.54991" lon="0.59213">
        <ele>2312.11</ele>
        <time>2015-01-10T09:54:55Z</time>
      </trkpt>
      <trkpt lat="42.54982" lon="0.59215">
        <ele>2313.07</ele>
        <time>2015-01-10T09:55:12Z</time>
      </trkpt>
      <trkpt lat="42.54976" lon="0.59214">
        <ele>2313.07</ele>
        <time>2015-01-10T09:55:28Z</time>
      </trkpt>
      <trkpt lat="42.54976" lon="0.59212">
        <ele>2313.07</ele>
        <time>2015-01-10T09:55:53Z</time>
      </trkpt>
      <trkpt lat="42.54974" lon="0.59211">
        <ele>2312.59</ele>
        <time>2015-01-10T09:56:22Z</time>
      </trkpt>
      <trkpt lat="42.54974" lon="0.59212">
        <ele>2313.07</ele>
        <time>2015-01-10T09:56:46Z</time>
      </trkpt>
      <trkpt lat="42.54972" lon="0.59215">
        <ele>2313.55</ele>
        <time>2015-01-10T09:57:19Z</time>
      </trkpt>
      <trkpt lat="42.54967" lon="0.5922">
        <ele>2314.51</ele>
        <time>2015-01-10T09:57:34Z</time>
      </trkpt>
      <trkpt lat="42.54964" lon="0.59216">
        <ele>2313.07</ele>
        <time>2015-01-10T09:57:49Z</time>
      </trkpt>
      <trkpt lat="42.54959" lon="0.59217">
        <ele>2311.63</ele>
        <time>2015-01-10T09:58:03Z</time>
      </trkpt>
      <trkpt lat="42.54953" lon="0.59218">
        <ele>2310.67</ele>
        <time>2015-01-10T09:58:13Z</time>
      </trkpt>
      <trkpt lat="42.54946" lon="0.59217">
        <ele>2309.7</ele>
        <time>2015-01-10T09:58:25Z</time>
      </trkpt>
      <trkpt lat="42.54938" lon="0.59219">
        <ele>2308.74</ele>
        <time>2015-01-10T09:58:40Z</time>
      </trkpt>
      <trkpt lat="42.54927" lon="0.59221">
        <ele>2308.74</ele>
        <time>2015-01-10T09:58:54Z</time>
      </trkpt>
      <trkpt lat="42.54918" lon="0.59223">
        <ele>2308.74</ele>
        <time>2015-01-10T09:59:07Z</time>
      </trkpt>
      <trkpt lat="42.54907" lon="0.59223">
        <ele>2307.78</ele>
        <time>2015-01-10T09:59:21Z</time>
      </trkpt>
      <trkpt lat="42.54902" lon="0.59224">
        <ele>2307.3</ele>
        <time>2015-01-10T09:59:37Z</time>
      </trkpt>
      <trkpt lat="42.54892" lon="0.59221">
        <ele>2306.82</ele>
        <time>2015-01-10T09:59:51Z</time>
      </trkpt>
      <trkpt lat="42.54883" lon="0.59224">
        <ele>2305.86</ele>
        <time>2015-01-10T10:00:06Z</time>
      </trkpt>
      <trkpt lat="42.54878" lon="0.59226">
        <ele>2305.38</ele>
        <time>2015-01-10T10:00:19Z</time>
      </trkpt>
      <trkpt lat="42.54871" lon="0.59228">
        <ele>2304.42</ele>
        <time>2015-01-10T10:00:30Z</time>
      </trkpt>
      <trkpt lat="42.54871" lon="0.59225">
        <ele>2304.42</ele>
        <time>2015-01-10T10:00:46Z</time>
      </trkpt>
      <trkpt lat="42.54871" lon="0.59223">
        <ele>2304.42</ele>
        <time>2015-01-10T10:01:07Z</time>
      </trkpt>
      <trkpt lat="42.54869" lon="0.59224">
        <ele>2304.42</ele>
        <time>2015-01-10T10:01:32Z</time>
      </trkpt>
      <trkpt lat="42.54869" lon="0.59225">
        <ele>2304.9</ele>
        <time>2015-01-10T10:01:47Z</time>
      </trkpt>
      <trkpt lat="42.54868" lon="0.59224">
        <ele>2304.9</ele>
        <time>2015-01-10T10:02:08Z</time>
      </trkpt>
      <trkpt lat="42.54865" lon="0.59225">
        <ele>2304.9</ele>
        <time>2015-01-10T10:02:33Z</time>
      </trkpt>
      <trkpt lat="42.54859" lon="0.59226">
        <ele>2304.9</ele>
        <time>2015-01-10T10:02:47Z</time>
      </trkpt>
      <trkpt lat="42.54852" lon="0.59231">
        <ele>2304.42</ele>
        <time>2015-01-10T10:03:01Z</time>
      </trkpt>
      <trkpt lat="42.5485" lon="0.59233">
        <ele>2304.9</ele>
        <time>2015-01-10T10:03:12Z</time>
      </trkpt>
      <trkpt lat="42.54845" lon="0.59236">
        <ele>2304.9</ele>
        <time>2015-01-10T10:03:26Z</time>
      </trkpt>
      <trkpt lat="42.5484" lon="0.59237">
        <ele>2305.86</ele>
        <time>2015-01-10T10:03:41Z</time>
      </trkpt>
      <trkpt lat="42.54837" lon="0.59237">
        <ele>2306.34</ele>
        <time>2015-01-10T10:03:55Z</time>
      </trkpt>
      <trkpt lat="42.54833" lon="0.59239">
        <ele>2306.82</ele>
        <time>2015-01-10T10:04:09Z</time>
      </trkpt>
      <trkpt lat="42.54829" lon="0.5924">
        <ele>2307.3</ele>
        <time>2015-01-10T10:04:23Z</time>
      </trkpt>
      <trkpt lat="42.54826" lon="0.5924">
        <ele>2307.3</ele>
        <time>2015-01-10T10:04:38Z</time>
      </trkpt>
      <trkpt lat="42.54823" lon="0.5924">
        <ele>2307.78</ele>
        <time>2015-01-10T10:04:51Z</time>
      </trkpt>
      <trkpt lat="42.54817" lon="0.59243">
        <ele>2308.26</ele>
        <time>2015-01-10T10:05:03Z</time>
      </trkpt>
      <trkpt lat="42.54812" lon="0.59248">
        <ele>2307.78</ele>
        <time>2015-01-10T10:05:16Z</time>
      </trkpt>
      <trkpt lat="42.54811" lon="0.59249">
        <ele>2307.78</ele>
        <time>2015-01-10T10:05:18Z</time>
      </trkpt>
      <trkpt lat="42.54807" lon="0.59252">
        <ele>2307.3</ele>
        <time>2015-01-10T10:05:30Z</time>
      </trkpt>
      <trkpt lat="42.54805" lon="0.59255">
        <ele>2307.78</ele>
        <time>2015-01-10T10:05:36Z</time>
      </trkpt>
      <trkpt lat="42.54798" lon="0.59262">
        <ele>2306.82</ele>
        <time>2015-01-10T10:05:49Z</time>
      </trkpt>
      <trkpt lat="42.54794" lon="0.59267">
        <ele>2306.82</ele>
        <time>2015-01-10T10:06:00Z</time>
      </trkpt>
      <trkpt lat="42.54789" lon="0.59267">
        <ele>2306.82</ele>
        <time>2015-01-10T10:06:15Z</time>
      </trkpt>
      <trkpt lat="42.54781" lon="0.59271">
        <ele>2308.74</ele>
        <time>2015-01-10T10:06:32Z</time>
      </trkpt>
      <trkpt lat="42.54774" lon="0.59274">
        <ele>2310.67</ele>
        <time>2015-01-10T10:06:47Z</time>
      </trkpt>
      <trkpt lat="42.54769" lon="0.59277">
        <ele>2311.63</ele>
        <time>2015-01-10T10:06:59Z</time>
      </trkpt>
      <trkpt lat="42.54763" lon="0.59279">
        <ele>2312.59</ele>
        <time>2015-01-10T10:07:16Z</time>
      </trkpt>
      <trkpt lat="42.54754" lon="0.59284">
        <ele>2313.55</ele>
        <time>2015-01-10T10:07:31Z</time>
      </trkpt>
      <trkpt lat="42.54748" lon="0.59287">
        <ele>2314.99</ele>
        <time>2015-01-10T10:07:44Z</time>
      </trkpt>
      <trkpt lat="42.54743" lon="0.59292">
        <ele>2316.91</ele>
        <time>2015-01-10T10:07:57Z</time>
      </trkpt>
      <trkpt lat="42.54735" lon="0.59297">
        <ele>2318.84</ele>
        <time>2015-01-10T10:08:13Z</time>
      </trkpt>
      <trkpt lat="42.54731" lon="0.593">
        <ele>2319.8</ele>
        <time>2015-01-10T10:08:26Z</time>
      </trkpt>
      <trkpt lat="42.54724" lon="0.59304">
        <ele>2321.72</ele>
        <time>2015-01-10T10:08:43Z</time>
      </trkpt>
      <trkpt lat="42.54715" lon="0.59309">
        <ele>2323.64</ele>
        <time>2015-01-10T10:08:59Z</time>
      </trkpt>
      <trkpt lat="42.54709" lon="0.59311">
        <ele>2325.57</ele>
        <time>2015-01-10T10:09:13Z</time>
      </trkpt>
      <trkpt lat="42.54703" lon="0.59313">
        <ele>2327.49</ele>
        <time>2015-01-10T10:09:26Z</time>
      </trkpt>
      <trkpt lat="42.54698" lon="0.59314">
        <ele>2330.37</ele>
        <time>2015-01-10T10:09:37Z</time>
      </trkpt>
      <trkpt lat="42.54692" lon="0.59317">
        <ele>2330.85</ele>
        <time>2015-01-10T10:09:51Z</time>
      </trkpt>
      <trkpt lat="42.54687" lon="0.5932">
        <ele>2333.26</ele>
        <time>2015-01-10T10:10:04Z</time>
      </trkpt>
      <trkpt lat="42.5468" lon="0.59324">
        <ele>2335.66</ele>
        <time>2015-01-10T10:10:19Z</time>
      </trkpt>
      <trkpt lat="42.54676" lon="0.5933">
        <ele>2338.54</ele>
        <time>2015-01-10T10:10:34Z</time>
      </trkpt>
      <trkpt lat="42.54668" lon="0.59328">
        <ele>2340.47</ele>
        <time>2015-01-10T10:10:48Z</time>
      </trkpt>
      <trkpt lat="42.54669" lon="0.59324">
        <ele>2340.47</ele>
        <time>2015-01-10T10:11:08Z</time>
      </trkpt>
      <trkpt lat="42.54668" lon="0.59322">
        <ele>2340.95</ele>
        <time>2015-01-10T10:11:32Z</time>
      </trkpt>
      <trkpt lat="42.54668" lon="0.59307">
        <ele>2342.87</ele>
        <time>2015-01-10T10:11:48Z</time>
      </trkpt>
      <trkpt lat="42.54667" lon="0.59296">
        <ele>2345.75</ele>
        <time>2015-01-10T10:12:02Z</time>
      </trkpt>
      <trkpt lat="42.54661" lon="0.59285">
        <ele>2348.64</ele>
        <time>2015-01-10T10:12:21Z</time>
      </trkpt>
      <trkpt lat="42.54654" lon="0.59283">
        <ele>2351.04</ele>
        <time>2015-01-10T10:12:36Z</time>
      </trkpt>
      <trkpt lat="42.54649" lon="0.59278">
        <ele>2352.48</ele>
        <time>2015-01-10T10:12:51Z</time>
      </trkpt>
      <trkpt lat="42.54648" lon="0.59277">
        <ele>2352.48</ele>
        <time>2015-01-10T10:13:08Z</time>
      </trkpt>
      <trkpt lat="42.54646" lon="0.59274">
        <ele>2352.96</ele>
        <time>2015-01-10T10:13:34Z</time>
      </trkpt>
      <trkpt lat="42.54647" lon="0.59275">
        <ele>2352.48</ele>
        <time>2015-01-10T10:13:52Z</time>
      </trkpt>
      <trkpt lat="42.54651" lon="0.59274">
        <ele>2353.44</ele>
        <time>2015-01-10T10:14:18Z</time>
      </trkpt>
      <trkpt lat="42.54649" lon="0.59274">
        <ele>2353.44</ele>
        <time>2015-01-10T10:14:34Z</time>
      </trkpt>
      <trkpt lat="42.54646" lon="0.59267">
        <ele>2353.44</ele>
        <time>2015-01-10T10:14:56Z</time>
      </trkpt>
      <trkpt lat="42.54645" lon="0.59263">
        <ele>2353.93</ele>
        <time>2015-01-10T10:14:59Z</time>
      </trkpt>
      <trkpt lat="42.54646" lon="0.59256">
        <ele>2354.89</ele>
        <time>2015-01-10T10:15:11Z</time>
      </trkpt>
      <trkpt lat="42.54644" lon="0.59248">
        <ele>2355.37</ele>
        <time>2015-01-10T10:15:23Z</time>
      </trkpt>
      <trkpt lat="42.54639" lon="0.59246">
        <ele>2356.81</ele>
        <time>2015-01-10T10:15:37Z</time>
      </trkpt>
      <trkpt lat="42.54637" lon="0.59248">
        <ele>2357.29</ele>
        <time>2015-01-10T10:15:55Z</time>
      </trkpt>
      <trkpt lat="42.54631" lon="0.59242">
        <ele>2357.77</ele>
        <time>2015-01-10T10:16:10Z</time>
      </trkpt>
      <trkpt lat="42.54625" lon="0.59237">
        <ele>2358.73</ele>
        <time>2015-01-10T10:16:22Z</time>
      </trkpt>
      <trkpt lat="42.54618" lon="0.59233">
        <ele>2360.17</ele>
        <time>2015-01-10T10:16:35Z</time>
      </trkpt>
      <trkpt lat="42.54614" lon="0.59232">
        <ele>2360.65</ele>
        <time>2015-01-10T10:16:45Z</time>
      </trkpt>
      <trkpt lat="42.5461" lon="0.59229">
        <ele>2362.1</ele>
        <time>2015-01-10T10:16:56Z</time>
      </trkpt>
      <trkpt lat="42.54605" lon="0.59226">
        <ele>2363.06</ele>
        <time>2015-01-10T10:17:08Z</time>
      </trkpt>
      <trkpt lat="42.54599" lon="0.59224">
        <ele>2364.02</ele>
        <time>2015-01-10T10:17:18Z</time>
      </trkpt>
      <trkpt lat="42.54593" lon="0.59223">
        <ele>2364.98</ele>
        <time>2015-01-10T10:17:31Z</time>
      </trkpt>
      <trkpt lat="42.54586" lon="0.59221">
        <ele>2366.42</ele>
        <time>2015-01-10T10:17:43Z</time>
      </trkpt>
      <trkpt lat="42.5458" lon="0.59217">
        <ele>2367.38</ele>
        <time>2015-01-10T10:17:56Z</time>
      </trkpt>
      <trkpt lat="42.54575" lon="0.59216">
        <ele>2368.35</ele>
        <time>2015-01-10T10:18:11Z</time>
      </trkpt>
      <trkpt lat="42.54568" lon="0.59214">
        <ele>2370.27</ele>
        <time>2015-01-10T10:18:25Z</time>
      </trkpt>
      <trkpt lat="42.54563" lon="0.59214">
        <ele>2372.19</ele>
        <time>2015-01-10T10:18:36Z</time>
      </trkpt>
      <trkpt lat="42.54558" lon="0.59215">
        <ele>2373.15</ele>
        <time>2015-01-10T10:18:48Z</time>
      </trkpt>
      <trkpt lat="42.54554" lon="0.59215">
        <ele>2374.11</ele>
        <time>2015-01-10T10:18:58Z</time>
      </trkpt>
      <trkpt lat="42.54551" lon="0.59214">
        <ele>2376.04</ele>
        <time>2015-01-10T10:19:08Z</time>
      </trkpt>
      <trkpt lat="42.54545" lon="0.59212">
        <ele>2377.48</ele>
        <time>2015-01-10T10:19:22Z</time>
      </trkpt>
      <trkpt lat="42.5454" lon="0.59214">
        <ele>2379.4</ele>
        <time>2015-01-10T10:19:35Z</time>
      </trkpt>
      <trkpt lat="42.54535" lon="0.59212">
        <ele>2381.32</ele>
        <time>2015-01-10T10:19:48Z</time>
      </trkpt>
      <trkpt lat="42.54529" lon="0.59211">
        <ele>2383.25</ele>
        <time>2015-01-10T10:20:04Z</time>
      </trkpt>
      <trkpt lat="42.54524" lon="0.59212">
        <ele>2385.65</ele>
        <time>2015-01-10T10:20:18Z</time>
      </trkpt>
      <trkpt lat="42.5452" lon="0.59211">
        <ele>2387.09</ele>
        <time>2015-01-10T10:20:30Z</time>
      </trkpt>
      <trkpt lat="42.54511" lon="0.59213">
        <ele>2389.49</ele>
        <time>2015-01-10T10:20:45Z</time>
      </trkpt>
      <trkpt lat="42.54505" lon="0.59214">
        <ele>2391.42</ele>
        <time>2015-01-10T10:20:59Z</time>
      </trkpt>
      <trkpt lat="42.545" lon="0.59214">
        <ele>2392.86</ele>
        <time>2015-01-10T10:21:12Z</time>
      </trkpt>
      <trkpt lat="42.54495" lon="0.59214">
        <ele>2395.26</ele>
        <time>2015-01-10T10:21:24Z</time>
      </trkpt>
      <trkpt lat="42.5449" lon="0.59215">
        <ele>2397.67</ele>
        <time>2015-01-10T10:21:39Z</time>
      </trkpt>
      <trkpt lat="42.54484" lon="0.59214">
        <ele>2400.07</ele>
        <time>2015-01-10T10:21:53Z</time>
      </trkpt>
      <trkpt lat="42.54478" lon="0.59215">
        <ele>2401.99</ele>
        <time>2015-01-10T10:22:08Z</time>
      </trkpt>
      <trkpt lat="42.54473" lon="0.59214">
        <ele>2404.39</ele>
        <time>2015-01-10T10:22:21Z</time>
      </trkpt>
      <trkpt lat="42.5447" lon="0.59215">
        <ele>2405.84</ele>
        <time>2015-01-10T10:22:34Z</time>
      </trkpt>
      <trkpt lat="42.54466" lon="0.59214">
        <ele>2407.76</ele>
        <time>2015-01-10T10:22:45Z</time>
      </trkpt>
      <trkpt lat="42.54461" lon="0.59213">
        <ele>2410.16</ele>
        <time>2015-01-10T10:23:00Z</time>
      </trkpt>
      <trkpt lat="42.54455" lon="0.59211">
        <ele>2412.57</ele>
        <time>2015-01-10T10:23:17Z</time>
      </trkpt>
      <trkpt lat="42.5445" lon="0.5921">
        <ele>2414.49</ele>
        <time>2015-01-10T10:23:31Z</time>
      </trkpt>
      <trkpt lat="42.54444" lon="0.5921">
        <ele>2417.85</ele>
        <time>2015-01-10T10:23:44Z</time>
      </trkpt>
      <trkpt lat="42.54439" lon="0.59211">
        <ele>2418.33</ele>
        <time>2015-01-10T10:23:58Z</time>
      </trkpt>
      <trkpt lat="42.54433" lon="0.59214">
        <ele>2421.22</ele>
        <time>2015-01-10T10:24:14Z</time>
      </trkpt>
      <trkpt lat="42.54428" lon="0.59213">
        <ele>2423.14</ele>
        <time>2015-01-10T10:24:29Z</time>
      </trkpt>
      <trkpt lat="42.54424" lon="0.59214">
        <ele>2425.06</ele>
        <time>2015-01-10T10:24:42Z</time>
      </trkpt>
      <trkpt lat="42.54418" lon="0.59216">
        <ele>2426.5</ele>
        <time>2015-01-10T10:24:59Z</time>
      </trkpt>
      <trkpt lat="42.54414" lon="0.59216">
        <ele>2427.95</ele>
        <time>2015-01-10T10:25:13Z</time>
      </trkpt>
      <trkpt lat="42.5441" lon="0.59218">
        <ele>2429.39</ele>
        <time>2015-01-10T10:25:24Z</time>
      </trkpt>
      <trkpt lat="42.54405" lon="0.59219">
        <ele>2431.31</ele>
        <time>2015-01-10T10:25:41Z</time>
      </trkpt>
      <trkpt lat="42.54399" lon="0.59219">
        <ele>2433.71</ele>
        <time>2015-01-10T10:25:57Z</time>
      </trkpt>
      <trkpt lat="42.54392" lon="0.5922">
        <ele>2435.64</ele>
        <time>2015-01-10T10:26:10Z</time>
      </trkpt>
      <trkpt lat="42.54388" lon="0.59219">
        <ele>2437.08</ele>
        <time>2015-01-10T10:26:24Z</time>
      </trkpt>
      <trkpt lat="42.54385" lon="0.5922">
        <ele>2437.56</ele>
        <time>2015-01-10T10:26:37Z</time>
      </trkpt>
      <trkpt lat="42.54382" lon="0.5922">
        <ele>2438.52</ele>
        <time>2015-01-10T10:26:49Z</time>
      </trkpt>
      <trkpt lat="42.54378" lon="0.5922">
        <ele>2440.92</ele>
        <time>2015-01-10T10:27:03Z</time>
      </trkpt>
      <trkpt lat="42.54373" lon="0.59219">
        <ele>2441.89</ele>
        <time>2015-01-10T10:27:14Z</time>
      </trkpt>
      <trkpt lat="42.54369" lon="0.5922">
        <ele>2443.81</ele>
        <time>2015-01-10T10:27:27Z</time>
      </trkpt>
      <trkpt lat="42.54365" lon="0.5922">
        <ele>2445.73</ele>
        <time>2015-01-10T10:27:40Z</time>
      </trkpt>
      <trkpt lat="42.54362" lon="0.5922">
        <ele>2447.17</ele>
        <time>2015-01-10T10:27:55Z</time>
      </trkpt>
      <trkpt lat="42.54356" lon="0.5922">
        <ele>2449.1</ele>
        <time>2015-01-10T10:28:08Z</time>
      </trkpt>
      <trkpt lat="42.54356" lon="0.59218">
        <ele>2449.58</ele>
        <time>2015-01-10T10:28:26Z</time>
      </trkpt>
      <trkpt lat="42.54352" lon="0.59217">
        <ele>2451.5</ele>
        <time>2015-01-10T10:28:40Z</time>
      </trkpt>
      <trkpt lat="42.54348" lon="0.59217">
        <ele>2453.42</ele>
        <time>2015-01-10T10:28:53Z</time>
      </trkpt>
      <trkpt lat="42.54345" lon="0.59216">
        <ele>2454.38</ele>
        <time>2015-01-10T10:29:16Z</time>
      </trkpt>
      <trkpt lat="42.54342" lon="0.59216">
        <ele>2455.82</ele>
        <time>2015-01-10T10:29:28Z</time>
      </trkpt>
      <trkpt lat="42.5434" lon="0.59215">
        <ele>2456.31</ele>
        <time>2015-01-10T10:29:45Z</time>
      </trkpt>
      <trkpt lat="42.54339" lon="0.59216">
        <ele>2457.27</ele>
        <time>2015-01-10T10:30:06Z</time>
      </trkpt>
      <trkpt lat="42.54338" lon="0.59212">
        <ele>2458.71</ele>
        <time>2015-01-10T10:30:18Z</time>
      </trkpt>
      <trkpt lat="42.54337" lon="0.59208">
        <ele>2461.11</ele>
        <time>2015-01-10T10:30:32Z</time>
      </trkpt>
      <trkpt lat="42.54338" lon="0.59201">
        <ele>2463.52</ele>
        <time>2015-01-10T10:30:49Z</time>
      </trkpt>
      <trkpt lat="42.54339" lon="0.59197">
        <ele>2465.44</ele>
        <time>2015-01-10T10:31:04Z</time>
      </trkpt>
      <trkpt lat="42.5434" lon="0.59194">
        <ele>2466.88</ele>
        <time>2015-01-10T10:31:15Z</time>
      </trkpt>
      <trkpt lat="42.54342" lon="0.59191">
        <ele>2468.32</ele>
        <time>2015-01-10T10:31:27Z</time>
      </trkpt>
      <trkpt lat="42.54343" lon="0.59188">
        <ele>2469.76</ele>
        <time>2015-01-10T10:31:41Z</time>
      </trkpt>
      <trkpt lat="42.54343" lon="0.59185">
        <ele>2470.73</ele>
        <time>2015-01-10T10:31:56Z</time>
      </trkpt>
      <trkpt lat="42.54343" lon="0.59182">
        <ele>2472.65</ele>
        <time>2015-01-10T10:32:08Z</time>
      </trkpt>
      <trkpt lat="42.54344" lon="0.59178">
        <ele>2474.57</ele>
        <time>2015-01-10T10:32:22Z</time>
      </trkpt>
      <trkpt lat="42.54344" lon="0.59175">
        <ele>2475.05</ele>
        <time>2015-01-10T10:32:35Z</time>
      </trkpt>
      <trkpt lat="42.54344" lon="0.59175">
        <ele>2475.53</ele>
        <time>2015-01-10T10:32:52Z</time>
      </trkpt>
      <trkpt lat="42.54343" lon="0.59175">
        <ele>2476.01</ele>
        <time>2015-01-10T10:33:14Z</time>
      </trkpt>
      <trkpt lat="42.5434" lon="0.59176">
        <ele>2478.9</ele>
        <time>2015-01-10T10:33:27Z</time>
      </trkpt>
      <trkpt lat="42.54336" lon="0.59178">
        <ele>2481.78</ele>
        <time>2015-01-10T10:33:42Z</time>
      </trkpt>
      <trkpt lat="42.54334" lon="0.59178">
        <ele>2483.7</ele>
        <time>2015-01-10T10:33:53Z</time>
      </trkpt>
      <trkpt lat="42.54333" lon="0.59172">
        <ele>2484.66</ele>
        <time>2015-01-10T10:34:07Z</time>
      </trkpt>
      <trkpt lat="42.54333" lon="0.59168">
        <ele>2485.63</ele>
        <time>2015-01-10T10:34:29Z</time>
      </trkpt>
      <trkpt lat="42.54335" lon="0.59161">
        <ele>2488.03</ele>
        <time>2015-01-10T10:34:42Z</time>
      </trkpt>
      <trkpt lat="42.54337" lon="0.59156">
        <ele>2490.43</ele>
        <time>2015-01-10T10:34:55Z</time>
      </trkpt>
      <trkpt lat="42.5434" lon="0.5915">
        <ele>2492.36</ele>
        <time>2015-01-10T10:35:10Z</time>
      </trkpt>
      <trkpt lat="42.54341" lon="0.59142">
        <ele>2495.24</ele>
        <time>2015-01-10T10:35:26Z</time>
      </trkpt>
      <trkpt lat="42.54342" lon="0.59134">
        <ele>2498.12</ele>
        <time>2015-01-10T10:35:42Z</time>
      </trkpt>
      <trkpt lat="42.54342" lon="0.59128">
        <ele>2500.05</ele>
        <time>2015-01-10T10:35:55Z</time>
      </trkpt>
      <trkpt lat="42.54343" lon="0.59128">
        <ele>2500.53</ele>
        <time>2015-01-10T10:36:14Z</time>
      </trkpt>
      <trkpt lat="42.54344" lon="0.59126">
        <ele>2500.05</ele>
        <time>2015-01-10T10:36:36Z</time>
      </trkpt>
      <trkpt lat="42.54341" lon="0.59124">
        <ele>2500.53</ele>
        <time>2015-01-10T10:36:54Z</time>
      </trkpt>
      <trkpt lat="42.54343" lon="0.59121">
        <ele>2501.97</ele>
        <time>2015-01-10T10:37:10Z</time>
      </trkpt>
      <trkpt lat="42.54343" lon="0.59122">
        <ele>2502.45</ele>
        <time>2015-01-10T10:37:32Z</time>
      </trkpt>
      <trkpt lat="42.54339" lon="0.59128">
        <ele>2504.37</ele>
        <time>2015-01-10T10:37:45Z</time>
      </trkpt>
      <trkpt lat="42.54335" lon="0.59129">
        <ele>2506.29</ele>
        <time>2015-01-10T10:37:58Z</time>
      </trkpt>
      <trkpt lat="42.54331" lon="0.59126">
        <ele>2508.22</ele>
        <time>2015-01-10T10:38:11Z</time>
      </trkpt>
      <trkpt lat="42.5433" lon="0.59123">
        <ele>2508.22</ele>
        <time>2015-01-10T10:38:30Z</time>
      </trkpt>
      <trkpt lat="42.54334" lon="0.59115">
        <ele>2510.14</ele>
        <time>2015-01-10T10:38:50Z</time>
      </trkpt>
      <trkpt lat="42.54336" lon="0.59109">
        <ele>2512.54</ele>
        <time>2015-01-10T10:39:04Z</time>
      </trkpt>
      <trkpt lat="42.54338" lon="0.59104">
        <ele>2514.47</ele>
        <time>2015-01-10T10:39:18Z</time>
      </trkpt>
      <trkpt lat="42.5434" lon="0.59101">
        <ele>2514.95</ele>
        <time>2015-01-10T10:39:28Z</time>
      </trkpt>
      <trkpt lat="42.54343" lon="0.59094">
        <ele>2517.83</ele>
        <time>2015-01-10T10:39:45Z</time>
      </trkpt>
      <trkpt lat="42.54346" lon="0.59087">
        <ele>2520.71</ele>
        <time>2015-01-10T10:40:01Z</time>
      </trkpt>
      <trkpt lat="42.54347" lon="0.59079">
        <ele>2522.64</ele>
        <time>2015-01-10T10:40:15Z</time>
      </trkpt>
      <trkpt lat="42.54348" lon="0.59075">
        <ele>2524.56</ele>
        <time>2015-01-10T10:40:29Z</time>
      </trkpt>
      <trkpt lat="42.54349" lon="0.59076">
        <ele>2524.56</ele>
        <time>2015-01-10T10:40:49Z</time>
      </trkpt>
      <trkpt lat="42.54347" lon="0.59079">
        <ele>2526</ele>
        <time>2015-01-10T10:41:02Z</time>
      </trkpt>
      <trkpt lat="42.54342" lon="0.5908">
        <ele>2528.4</ele>
        <time>2015-01-10T10:41:17Z</time>
      </trkpt>
      <trkpt lat="42.54337" lon="0.59079">
        <ele>2529.85</ele>
        <time>2015-01-10T10:41:29Z</time>
      </trkpt>
      <trkpt lat="42.54332" lon="0.59081">
        <ele>2531.77</ele>
        <time>2015-01-10T10:41:43Z</time>
      </trkpt>
      <trkpt lat="42.54328" lon="0.59084">
        <ele>2533.69</ele>
        <time>2015-01-10T10:41:58Z</time>
      </trkpt>
      <trkpt lat="42.54324" lon="0.59083">
        <ele>2534.65</ele>
        <time>2015-01-10T10:42:11Z</time>
      </trkpt>
      <trkpt lat="42.54322" lon="0.59084">
        <ele>2535.61</ele>
        <time>2015-01-10T10:42:26Z</time>
      </trkpt>
      <trkpt lat="42.5432" lon="0.59083">
        <ele>2537.06</ele>
        <time>2015-01-10T10:42:39Z</time>
      </trkpt>
      <trkpt lat="42.54315" lon="0.59083">
        <ele>2538.5</ele>
        <time>2015-01-10T10:42:50Z</time>
      </trkpt>
      <trkpt lat="42.54312" lon="0.59084">
        <ele>2540.9</ele>
        <time>2015-01-10T10:43:05Z</time>
      </trkpt>
      <trkpt lat="42.54308" lon="0.59085">
        <ele>2541.86</ele>
        <time>2015-01-10T10:43:17Z</time>
      </trkpt>
      <trkpt lat="42.54303" lon="0.59085">
        <ele>2543.31</ele>
        <time>2015-01-10T10:43:30Z</time>
      </trkpt>
      <trkpt lat="42.543" lon="0.59087">
        <ele>2545.23</ele>
        <time>2015-01-10T10:43:43Z</time>
      </trkpt>
      <trkpt lat="42.54298" lon="0.59085">
        <ele>2546.19</ele>
        <time>2015-01-10T10:43:57Z</time>
      </trkpt>
      <trkpt lat="42.54298" lon="0.59081">
        <ele>2546.67</ele>
        <time>2015-01-10T10:44:20Z</time>
      </trkpt>
      <trkpt lat="42.54299" lon="0.59075">
        <ele>2549.07</ele>
        <time>2015-01-10T10:44:38Z</time>
      </trkpt>
      <trkpt lat="42.543" lon="0.59072">
        <ele>2550.51</ele>
        <time>2015-01-10T10:44:52Z</time>
      </trkpt>
      <trkpt lat="42.54298" lon="0.59076">
        <ele>2551.96</ele>
        <time>2015-01-10T10:45:16Z</time>
      </trkpt>
      <trkpt lat="42.54293" lon="0.59077">
        <ele>2553.4</ele>
        <time>2015-01-10T10:45:27Z</time>
      </trkpt>
      <trkpt lat="42.54289" lon="0.59077">
        <ele>2555.8</ele>
        <time>2015-01-10T10:45:40Z</time>
      </trkpt>
      <trkpt lat="42.54285" lon="0.59078">
        <ele>2557.24</ele>
        <time>2015-01-10T10:45:51Z</time>
      </trkpt>
      <trkpt lat="42.54284" lon="0.59077">
        <ele>2558.69</ele>
        <time>2015-01-10T10:46:04Z</time>
      </trkpt>
      <trkpt lat="42.5428" lon="0.59079">
        <ele>2561.09</ele>
        <time>2015-01-10T10:46:17Z</time>
      </trkpt>
      <trkpt lat="42.54279" lon="0.59072">
        <ele>2562.53</ele>
        <time>2015-01-10T10:46:31Z</time>
      </trkpt>
      <trkpt lat="42.54278" lon="0.59072">
        <ele>2564.45</ele>
        <time>2015-01-10T10:46:46Z</time>
      </trkpt>
      <trkpt lat="42.54274" lon="0.59073">
        <ele>2566.38</ele>
        <time>2015-01-10T10:46:58Z</time>
      </trkpt>
      <trkpt lat="42.54269" lon="0.59074">
        <ele>2568.3</ele>
        <time>2015-01-10T10:47:10Z</time>
      </trkpt>
      <trkpt lat="42.54264" lon="0.59075">
        <ele>2569.26</ele>
        <time>2015-01-10T10:47:24Z</time>
      </trkpt>
      <trkpt lat="42.54256" lon="0.59077">
        <ele>2571.18</ele>
        <time>2015-01-10T10:47:40Z</time>
      </trkpt>
      <trkpt lat="42.5425" lon="0.5908">
        <ele>2573.11</ele>
        <time>2015-01-10T10:47:55Z</time>
      </trkpt>
      <trkpt lat="42.54245" lon="0.59081">
        <ele>2574.55</ele>
        <time>2015-01-10T10:48:08Z</time>
      </trkpt>
      <trkpt lat="42.54237" lon="0.59086">
        <ele>2575.03</ele>
        <time>2015-01-10T10:48:22Z</time>
      </trkpt>
      <trkpt lat="42.54231" lon="0.5909">
        <ele>2575.03</ele>
        <time>2015-01-10T10:48:37Z</time>
      </trkpt>
      <trkpt lat="42.54224" lon="0.59091">
        <ele>2575.99</ele>
        <time>2015-01-10T10:48:52Z</time>
      </trkpt>
      <trkpt lat="42.54219" lon="0.5909">
        <ele>2577.91</ele>
        <time>2015-01-10T10:49:05Z</time>
      </trkpt>
      <trkpt lat="42.54215" lon="0.59091">
        <ele>2579.84</ele>
        <time>2015-01-10T10:49:19Z</time>
      </trkpt>
      <trkpt lat="42.5421" lon="0.59092">
        <ele>2581.28</ele>
        <time>2015-01-10T10:49:31Z</time>
      </trkpt>
      <trkpt lat="42.54204" lon="0.59094">
        <ele>2581.76</ele>
        <time>2015-01-10T10:49:43Z</time>
      </trkpt>
      <trkpt lat="42.54199" lon="0.59093">
        <ele>2582.72</ele>
        <time>2015-01-10T10:49:54Z</time>
      </trkpt>
      <trkpt lat="42.54196" lon="0.59094">
        <ele>2586.08</ele>
        <time>2015-01-10T10:50:04Z</time>
      </trkpt>
      <trkpt lat="42.54193" lon="0.59094">
        <ele>2587.53</ele>
        <time>2015-01-10T10:50:14Z</time>
      </trkpt>
      <trkpt lat="42.54194" lon="0.59092">
        <ele>2586.56</ele>
        <time>2015-01-10T10:50:26Z</time>
      </trkpt>
      <trkpt lat="42.54195" lon="0.59096">
        <ele>2585.6</ele>
        <time>2015-01-10T10:50:39Z</time>
      </trkpt>
      <trkpt lat="42.54194" lon="0.59096">
        <ele>2585.6</ele>
        <time>2015-01-10T10:50:52Z</time>
      </trkpt>
      <trkpt lat="42.54192" lon="0.59096">
        <ele>2585.6</ele>
        <time>2015-01-10T10:51:19Z</time>
      </trkpt>
      <trkpt lat="42.54192" lon="0.59095">
        <ele>2585.6</ele>
        <time>2015-01-10T10:51:40Z</time>
      </trkpt>
      <trkpt lat="42.54193" lon="0.59096">
        <ele>2585.12</ele>
        <time>2015-01-10T10:52:08Z</time>
      </trkpt>
      <trkpt lat="42.54194" lon="0.59097">
        <ele>2585.12</ele>
        <time>2015-01-10T10:52:32Z</time>
      </trkpt>
      <trkpt lat="42.54192" lon="0.59096">
        <ele>2585.12</ele>
        <time>2015-01-10T10:52:57Z</time>
      </trkpt>
      <trkpt lat="42.54192" lon="0.59094">
        <ele>2586.08</ele>
        <time>2015-01-10T10:53:07Z</time>
      </trkpt>
      <trkpt lat="42.54191" lon="0.59094">
        <ele>2585.6</ele>
        <time>2015-01-10T10:53:34Z</time>
      </trkpt>
      <trkpt lat="42.54192" lon="0.59093">
        <ele>2585.6</ele>
        <time>2015-01-10T10:54:02Z</time>
      </trkpt>
      <trkpt lat="42.54193" lon="0.59095">
        <ele>2586.08</ele>
        <time>2015-01-10T10:54:28Z</time>
      </trkpt>
      <trkpt lat="42.54192" lon="0.59098">
        <ele>2584.16</ele>
        <time>2015-01-10T10:54:37Z</time>
      </trkpt>
      <trkpt lat="42.54188" lon="0.59103">
        <ele>2583.2</ele>
        <time>2015-01-10T10:54:51Z</time>
      </trkpt>
      <trkpt lat="42.54183" lon="0.59113">
        <ele>2580.8</ele>
        <time>2015-01-10T10:55:04Z</time>
      </trkpt>
      <trkpt lat="42.54183" lon="0.59116">
        <ele>2579.35</ele>
        <time>2015-01-10T10:55:07Z</time>
      </trkpt>
      <trkpt lat="42.54182" lon="0.59131">
        <ele>2577.91</ele>
        <time>2015-01-10T10:55:19Z</time>
      </trkpt>
      <trkpt lat="42.54178" lon="0.5915">
        <ele>2577.91</ele>
        <time>2015-01-10T10:55:34Z</time>
      </trkpt>
      <trkpt lat="42.54174" lon="0.59167">
        <ele>2576.47</ele>
        <time>2015-01-10T10:55:47Z</time>
      </trkpt>
      <trkpt lat="42.54173" lon="0.59182">
        <ele>2575.99</ele>
        <time>2015-01-10T10:55:59Z</time>
      </trkpt>
      <trkpt lat="42.5417" lon="0.59193">
        <ele>2576.47</ele>
        <time>2015-01-10T10:56:09Z</time>
      </trkpt>
      <trkpt lat="42.54164" lon="0.59205">
        <ele>2575.51</ele>
        <time>2015-01-10T10:56:23Z</time>
      </trkpt>
      <trkpt lat="42.54159" lon="0.59215">
        <ele>2574.55</ele>
        <time>2015-01-10T10:56:35Z</time>
      </trkpt>
      <trkpt lat="42.54159" lon="0.59218">
        <ele>2575.51</ele>
        <time>2015-01-10T10:56:40Z</time>
      </trkpt>
      <trkpt lat="42.54157" lon="0.59222">
        <ele>2575.51</ele>
        <time>2015-01-10T10:56:46Z</time>
      </trkpt>
      <trkpt lat="42.54152" lon="0.5923">
        <ele>2574.55</ele>
        <time>2015-01-10T10:56:58Z</time>
      </trkpt>
      <trkpt lat="42.5415" lon="0.59238">
        <ele>2575.51</ele>
        <time>2015-01-10T10:57:09Z</time>
      </trkpt>
      <trkpt lat="42.54147" lon="0.59246">
        <ele>2575.99</ele>
        <time>2015-01-10T10:57:26Z</time>
      </trkpt>
      <trkpt lat="42.54144" lon="0.59257">
        <ele>2577.43</ele>
        <time>2015-01-10T10:57:41Z</time>
      </trkpt>
      <trkpt lat="42.5414" lon="0.59268">
        <ele>2577.91</ele>
        <time>2015-01-10T10:57:58Z</time>
      </trkpt>
      <trkpt lat="42.54138" lon="0.59274">
        <ele>2577.91</ele>
        <time>2015-01-10T10:58:12Z</time>
      </trkpt>
      <trkpt lat="42.54138" lon="0.59284">
        <ele>2578.39</ele>
        <time>2015-01-10T10:58:24Z</time>
      </trkpt>
      <trkpt lat="42.54137" lon="0.59288">
        <ele>2578.87</ele>
        <time>2015-01-10T10:58:27Z</time>
      </trkpt>
      <trkpt lat="42.54135" lon="0.59301">
        <ele>2578.87</ele>
        <time>2015-01-10T10:58:40Z</time>
      </trkpt>
      <trkpt lat="42.54133" lon="0.5931">
        <ele>2578.87</ele>
        <time>2015-01-10T10:58:52Z</time>
      </trkpt>
      <trkpt lat="42.5413" lon="0.59321">
        <ele>2579.84</ele>
        <time>2015-01-10T10:59:05Z</time>
      </trkpt>
      <trkpt lat="42.54129" lon="0.59329">
        <ele>2579.84</ele>
        <time>2015-01-10T10:59:17Z</time>
      </trkpt>
      <trkpt lat="42.54125" lon="0.59338">
        <ele>2580.32</ele>
        <time>2015-01-10T10:59:33Z</time>
      </trkpt>
      <trkpt lat="42.54125" lon="0.59342">
        <ele>2580.32</ele>
        <time>2015-01-10T10:59:39Z</time>
      </trkpt>
      <trkpt lat="42.54121" lon="0.59353">
        <ele>2581.76</ele>
        <time>2015-01-10T10:59:53Z</time>
      </trkpt>
      <trkpt lat="42.54119" lon="0.59359">
        <ele>2582.72</ele>
        <time>2015-01-10T11:00:07Z</time>
      </trkpt>
      <trkpt lat="42.54118" lon="0.59365">
        <ele>2583.68</ele>
        <time>2015-01-10T11:00:18Z</time>
      </trkpt>
      <trkpt lat="42.54118" lon="0.59372">
        <ele>2584.64</ele>
        <time>2015-01-10T11:00:30Z</time>
      </trkpt>
      <trkpt lat="42.5412" lon="0.59379">
        <ele>2586.56</ele>
        <time>2015-01-10T11:00:42Z</time>
      </trkpt>
      <trkpt lat="42.5412" lon="0.59386">
        <ele>2588.49</ele>
        <time>2015-01-10T11:00:55Z</time>
      </trkpt>
      <trkpt lat="42.54119" lon="0.59392">
        <ele>2589.45</ele>
        <time>2015-01-10T11:01:08Z</time>
      </trkpt>
      <trkpt lat="42.54117" lon="0.59399">
        <ele>2591.37</ele>
        <time>2015-01-10T11:01:23Z</time>
      </trkpt>
      <trkpt lat="42.54116" lon="0.59406">
        <ele>2592.33</ele>
        <time>2015-01-10T11:01:37Z</time>
      </trkpt>
      <trkpt lat="42.54115" lon="0.59414">
        <ele>2593.29</ele>
        <time>2015-01-10T11:01:50Z</time>
      </trkpt>
      <trkpt lat="42.54113" lon="0.59422">
        <ele>2595.22</ele>
        <time>2015-01-10T11:02:04Z</time>
      </trkpt>
      <trkpt lat="42.54113" lon="0.59427">
        <ele>2596.66</ele>
        <time>2015-01-10T11:02:19Z</time>
      </trkpt>
      <trkpt lat="42.54113" lon="0.59432">
        <ele>2598.58</ele>
        <time>2015-01-10T11:02:31Z</time>
      </trkpt>
      <trkpt lat="42.54114" lon="0.59439">
        <ele>2600.5</ele>
        <time>2015-01-10T11:02:43Z</time>
      </trkpt>
      <trkpt lat="42.54112" lon="0.59446">
        <ele>2602.43</ele>
        <time>2015-01-10T11:02:57Z</time>
      </trkpt>
      <trkpt lat="42.54112" lon="0.59451">
        <ele>2603.39</ele>
        <time>2015-01-10T11:03:07Z</time>
      </trkpt>
      <trkpt lat="42.54111" lon="0.59455">
        <ele>2604.83</ele>
        <time>2015-01-10T11:03:19Z</time>
      </trkpt>
      <trkpt lat="42.5411" lon="0.59459">
        <ele>2605.79</ele>
        <time>2015-01-10T11:03:30Z</time>
      </trkpt>
      <trkpt lat="42.54108" lon="0.59465">
        <ele>2606.75</ele>
        <time>2015-01-10T11:03:42Z</time>
      </trkpt>
      <trkpt lat="42.54106" lon="0.5947">
        <ele>2607.71</ele>
        <time>2015-01-10T11:03:53Z</time>
      </trkpt>
      <trkpt lat="42.54105" lon="0.59473">
        <ele>2609.16</ele>
        <time>2015-01-10T11:04:07Z</time>
      </trkpt>
      <trkpt lat="42.54107" lon="0.59478">
        <ele>2610.6</ele>
        <time>2015-01-10T11:04:19Z</time>
      </trkpt>
      <trkpt lat="42.54107" lon="0.59484">
        <ele>2612.52</ele>
        <time>2015-01-10T11:04:32Z</time>
      </trkpt>
      <trkpt lat="42.54107" lon="0.59491">
        <ele>2614.44</ele>
        <time>2015-01-10T11:04:45Z</time>
      </trkpt>
      <trkpt lat="42.54106" lon="0.59501">
        <ele>2616.37</ele>
        <time>2015-01-10T11:05:02Z</time>
      </trkpt>
      <trkpt lat="42.54105" lon="0.59508">
        <ele>2618.77</ele>
        <time>2015-01-10T11:05:16Z</time>
      </trkpt>
      <trkpt lat="42.54107" lon="0.59513">
        <ele>2619.73</ele>
        <time>2015-01-10T11:05:29Z</time>
      </trkpt>
      <trkpt lat="42.5411" lon="0.59512">
        <ele>2621.17</ele>
        <time>2015-01-10T11:05:46Z</time>
      </trkpt>
      <trkpt lat="42.54112" lon="0.59514">
        <ele>2624.54</ele>
        <time>2015-01-10T11:06:00Z</time>
      </trkpt>
      <trkpt lat="42.54115" lon="0.59515">
        <ele>2624.06</ele>
        <time>2015-01-10T11:06:15Z</time>
      </trkpt>
      <trkpt lat="42.54116" lon="0.5952">
        <ele>2625.98</ele>
        <time>2015-01-10T11:06:28Z</time>
      </trkpt>
      <trkpt lat="42.54117" lon="0.59527">
        <ele>2628.86</ele>
        <time>2015-01-10T11:06:42Z</time>
      </trkpt>
      <trkpt lat="42.54118" lon="0.59531">
        <ele>2630.79</ele>
        <time>2015-01-10T11:06:55Z</time>
      </trkpt>
      <trkpt lat="42.5412" lon="0.59533">
        <ele>2632.23</ele>
        <time>2015-01-10T11:07:09Z</time>
      </trkpt>
      <trkpt lat="42.54122" lon="0.59535">
        <ele>2635.59</ele>
        <time>2015-01-10T11:07:21Z</time>
      </trkpt>
      <trkpt lat="42.54122" lon="0.59536">
        <ele>2635.59</ele>
        <time>2015-01-10T11:07:22Z</time>
      </trkpt>
      <trkpt lat="42.54122" lon="0.59545">
        <ele>2637.51</ele>
        <time>2015-01-10T11:07:38Z</time>
      </trkpt>
      <trkpt lat="42.54122" lon="0.59553">
        <ele>2638.96</ele>
        <time>2015-01-10T11:07:55Z</time>
      </trkpt>
      <trkpt lat="42.54122" lon="0.5956">
        <ele>2639.92</ele>
        <time>2015-01-10T11:08:09Z</time>
      </trkpt>
      <trkpt lat="42.54121" lon="0.59571">
        <ele>2642.32</ele>
        <time>2015-01-10T11:08:27Z</time>
      </trkpt>
      <trkpt lat="42.5412" lon="0.59577">
        <ele>2644.24</ele>
        <time>2015-01-10T11:08:43Z</time>
      </trkpt>
      <trkpt lat="42.54117" lon="0.59586">
        <ele>2645.69</ele>
        <time>2015-01-10T11:08:56Z</time>
      </trkpt>
      <trkpt lat="42.54116" lon="0.59593">
        <ele>2647.13</ele>
        <time>2015-01-10T11:09:09Z</time>
      </trkpt>
      <trkpt lat="42.54116" lon="0.59603">
        <ele>2649.53</ele>
        <time>2015-01-10T11:09:28Z</time>
      </trkpt>
      <trkpt lat="42.54117" lon="0.59607">
        <ele>2651.45</ele>
        <time>2015-01-10T11:09:41Z</time>
      </trkpt>
      <trkpt lat="42.54117" lon="0.59615">
        <ele>2653.86</ele>
        <time>2015-01-10T11:09:55Z</time>
      </trkpt>
      <trkpt lat="42.54117" lon="0.59624">
        <ele>2655.3</ele>
        <time>2015-01-10T11:10:10Z</time>
      </trkpt>
      <trkpt lat="42.54116" lon="0.59631">
        <ele>2656.74</ele>
        <time>2015-01-10T11:10:26Z</time>
      </trkpt>
      <trkpt lat="42.54116" lon="0.59638">
        <ele>2659.62</ele>
        <time>2015-01-10T11:10:42Z</time>
      </trkpt>
      <trkpt lat="42.54113" lon="0.59646">
        <ele>2661.55</ele>
        <time>2015-01-10T11:10:57Z</time>
      </trkpt>
      <trkpt lat="42.54113" lon="0.59651">
        <ele>2662.51</ele>
        <time>2015-01-10T11:11:12Z</time>
      </trkpt>
      <trkpt lat="42.54113" lon="0.5965">
        <ele>2662.03</ele>
        <time>2015-01-10T11:11:32Z</time>
      </trkpt>
      <trkpt lat="42.54112" lon="0.59649">
        <ele>2662.51</ele>
        <time>2015-01-10T11:12:02Z</time>
      </trkpt>
      <trkpt lat="42.54111" lon="0.59651">
        <ele>2662.03</ele>
        <time>2015-01-10T11:12:36Z</time>
      </trkpt>
      <trkpt lat="42.54112" lon="0.59656">
        <ele>2663.47</ele>
        <time>2015-01-10T11:12:53Z</time>
      </trkpt>
      <trkpt lat="42.54114" lon="0.59664">
        <ele>2665.87</ele>
        <time>2015-01-10T11:13:08Z</time>
      </trkpt>
      <trkpt lat="42.54113" lon="0.59677">
        <ele>2668.76</ele>
        <time>2015-01-10T11:13:24Z</time>
      </trkpt>
      <trkpt lat="42.54113" lon="0.59685">
        <ele>2671.64</ele>
        <time>2015-01-10T11:13:41Z</time>
      </trkpt>
      <trkpt lat="42.54111" lon="0.5969">
        <ele>2674.04</ele>
        <time>2015-01-10T11:13:59Z</time>
      </trkpt>
      <trkpt lat="42.54111" lon="0.59698">
        <ele>2676.93</ele>
        <time>2015-01-10T11:14:13Z</time>
      </trkpt>
      <trkpt lat="42.54111" lon="0.59705">
        <ele>2678.85</ele>
        <time>2015-01-10T11:14:26Z</time>
      </trkpt>
      <trkpt lat="42.54111" lon="0.59712">
        <ele>2680.77</ele>
        <time>2015-01-10T11:14:40Z</time>
      </trkpt>
      <trkpt lat="42.5411" lon="0.59715">
        <ele>2683.18</ele>
        <time>2015-01-10T11:14:56Z</time>
      </trkpt>
      <trkpt lat="42.54109" lon="0.59718">
        <ele>2685.58</ele>
        <time>2015-01-10T11:15:08Z</time>
      </trkpt>
      <trkpt lat="42.54108" lon="0.59726">
        <ele>2687.5</ele>
        <time>2015-01-10T11:15:23Z</time>
      </trkpt>
      <trkpt lat="42.54107" lon="0.59733">
        <ele>2690.39</ele>
        <time>2015-01-10T11:15:37Z</time>
      </trkpt>
      <trkpt lat="42.54105" lon="0.5974">
        <ele>2692.31</ele>
        <time>2015-01-10T11:15:52Z</time>
      </trkpt>
      <trkpt lat="42.54104" lon="0.59745">
        <ele>2694.71</ele>
        <time>2015-01-10T11:16:08Z</time>
      </trkpt>
      <trkpt lat="42.54103" lon="0.59749">
        <ele>2696.64</ele>
        <time>2015-01-10T11:16:23Z</time>
      </trkpt>
      <trkpt lat="42.54102" lon="0.59753">
        <ele>2698.56</ele>
        <time>2015-01-10T11:16:37Z</time>
      </trkpt>
      <trkpt lat="42.54102" lon="0.59757">
        <ele>2700.48</ele>
        <time>2015-01-10T11:16:52Z</time>
      </trkpt>
      <trkpt lat="42.54101" lon="0.59764">
        <ele>2703.85</ele>
        <time>2015-01-10T11:17:08Z</time>
      </trkpt>
      <trkpt lat="42.541" lon="0.59768">
        <ele>2705.77</ele>
        <time>2015-01-10T11:17:22Z</time>
      </trkpt>
      <trkpt lat="42.54098" lon="0.59775">
        <ele>2708.17</ele>
        <time>2015-01-10T11:17:40Z</time>
      </trkpt>
      <trkpt lat="42.54098" lon="0.59779">
        <ele>2709.61</ele>
        <time>2015-01-10T11:17:54Z</time>
      </trkpt>
      <trkpt lat="42.54096" lon="0.59783">
        <ele>2711.54</ele>
        <time>2015-01-10T11:18:09Z</time>
      </trkpt>
      <trkpt lat="42.54097" lon="0.59785">
        <ele>2712.98</ele>
        <time>2015-01-10T11:18:24Z</time>
      </trkpt>
      <trkpt lat="42.54097" lon="0.59787">
        <ele>2713.94</ele>
        <time>2015-01-10T11:18:34Z</time>
      </trkpt>
      <trkpt lat="42.54096" lon="0.59789">
        <ele>2715.38</ele>
        <time>2015-01-10T11:18:49Z</time>
      </trkpt>
      <trkpt lat="42.54096" lon="0.59792">
        <ele>2716.82</ele>
        <time>2015-01-10T11:19:03Z</time>
      </trkpt>
      <trkpt lat="42.54093" lon="0.59797">
        <ele>2718.27</ele>
        <time>2015-01-10T11:19:19Z</time>
      </trkpt>
      <trkpt lat="42.54093" lon="0.59801">
        <ele>2719.71</ele>
        <time>2015-01-10T11:19:32Z</time>
      </trkpt>
      <trkpt lat="42.54093" lon="0.59803">
        <ele>2721.63</ele>
        <time>2015-01-10T11:19:41Z</time>
      </trkpt>
      <trkpt lat="42.54094" lon="0.5981">
        <ele>2723.55</ele>
        <time>2015-01-10T11:19:55Z</time>
      </trkpt>
      <trkpt lat="42.54094" lon="0.59812">
        <ele>2725.48</ele>
        <time>2015-01-10T11:20:06Z</time>
      </trkpt>
      <trkpt lat="42.54096" lon="0.59819">
        <ele>2727.88</ele>
        <time>2015-01-10T11:20:20Z</time>
      </trkpt>
      <trkpt lat="42.54096" lon="0.59828">
        <ele>2728.84</ele>
        <time>2015-01-10T11:20:31Z</time>
      </trkpt>
      <trkpt lat="42.54097" lon="0.59829">
        <ele>2729.32</ele>
        <time>2015-01-10T11:20:46Z</time>
      </trkpt>
      <trkpt lat="42.54097" lon="0.59829">
        <ele>2729.32</ele>
        <time>2015-01-10T11:21:14Z</time>
      </trkpt>
      <trkpt lat="42.54097" lon="0.59827">
        <ele>2728.84</ele>
        <time>2015-01-10T11:21:39Z</time>
      </trkpt>
      <trkpt lat="42.54095" lon="0.5983">
        <ele>2728.84</ele>
        <time>2015-01-10T11:21:58Z</time>
      </trkpt>
      <trkpt lat="42.54097" lon="0.59832">
        <ele>2728.36</ele>
        <time>2015-01-10T11:22:11Z</time>
      </trkpt>
      <trkpt lat="42.54099" lon="0.59832">
        <ele>2728.36</ele>
        <time>2015-01-10T11:22:44Z</time>
      </trkpt>
      <trkpt lat="42.54097" lon="0.59834">
        <ele>2728.36</ele>
        <time>2015-01-10T11:23:25Z</time>
      </trkpt>
      <trkpt lat="42.54097" lon="0.59836">
        <ele>2728.84</ele>
        <time>2015-01-10T11:24:08Z</time>
      </trkpt>
      <trkpt lat="42.54099" lon="0.59836">
        <ele>2729.32</ele>
        <time>2015-01-10T11:24:47Z</time>
      </trkpt>
      <trkpt lat="42.54095" lon="0.59834">
        <ele>2729.32</ele>
        <time>2015-01-10T11:25:41Z</time>
      </trkpt>
      <trkpt lat="42.541" lon="0.59839">
        <ele>2729.32</ele>
        <time>2015-01-10T11:26:20Z</time>
      </trkpt>
      <trkpt lat="42.541" lon="0.59837">
        <ele>2729.32</ele>
        <time>2015-01-10T11:27:08Z</time>
      </trkpt>
      <trkpt lat="42.54099" lon="0.59836">
        <ele>2729.8</ele>
        <time>2015-01-10T11:27:54Z</time>
      </trkpt>
      <trkpt lat="42.54099" lon="0.59835">
        <ele>2729.8</ele>
        <time>2015-01-10T11:28:51Z</time>
      </trkpt>
      <trkpt lat="42.541" lon="0.59835">
        <ele>2729.8</ele>
        <time>2015-01-10T11:29:36Z</time>
      </trkpt>
      <trkpt lat="42.54099" lon="0.59832">
        <ele>2729.8</ele>
        <time>2015-01-10T11:30:10Z</time>
      </trkpt>
      <trkpt lat="42.54098" lon="0.59831">
        <ele>2730.28</ele>
        <time>2015-01-10T11:30:52Z</time>
      </trkpt>
      <trkpt lat="42.54098" lon="0.59831">
        <ele>2730.28</ele>
        <time>2015-01-10T11:31:36Z</time>
      </trkpt>
      <trkpt lat="42.541" lon="0.59831">
        <ele>2730.28</ele>
        <time>2015-01-10T11:32:25Z</time>
      </trkpt>
      <trkpt lat="42.541" lon="0.59829">
        <ele>2730.28</ele>
        <time>2015-01-10T11:33:10Z</time>
      </trkpt>
      <trkpt lat="42.54099" lon="0.5983">
        <ele>2730.76</ele>
        <time>2015-01-10T11:33:58Z</time>
      </trkpt>
      <trkpt lat="42.541" lon="0.5983">
        <ele>2730.76</ele>
        <time>2015-01-10T11:34:46Z</time>
      </trkpt>
      <trkpt lat="42.541" lon="0.59831">
        <ele>2730.76</ele>
        <time>2015-01-10T11:35:32Z</time>
      </trkpt>
      <trkpt lat="42.541" lon="0.59832">
        <ele>2730.76</ele>
        <time>2015-01-10T11:36:13Z</time>
      </trkpt>
      <trkpt lat="42.541" lon="0.59831">
        <ele>2730.76</ele>
        <time>2015-01-10T11:37:04Z</time>
      </trkpt>
      <trkpt lat="42.54099" lon="0.59831">
        <ele>2730.76</ele>
        <time>2015-01-10T11:37:52Z</time>
      </trkpt>
      <trkpt lat="42.54099" lon="0.59831">
        <ele>2730.76</ele>
        <time>2015-01-10T11:38:33Z</time>
      </trkpt>
      <trkpt lat="42.541" lon="0.59831">
        <ele>2731.24</ele>
        <time>2015-01-10T11:39:17Z</time>
      </trkpt>
      <trkpt lat="42.54101" lon="0.59831">
        <ele>2731.24</ele>
        <time>2015-01-10T11:40:10Z</time>
      </trkpt>
      <trkpt lat="42.541" lon="0.59832">
        <ele>2731.24</ele>
        <time>2015-01-10T11:40:53Z</time>
      </trkpt>
      <trkpt lat="42.54099" lon="0.59832">
        <ele>2731.24</ele>
        <time>2015-01-10T11:41:34Z</time>
      </trkpt>
      <trkpt lat="42.54099" lon="0.59831">
        <ele>2731.24</ele>
        <time>2015-01-10T11:42:11Z</time>
      </trkpt>
      <trkpt lat="42.541" lon="0.59831">
        <ele>2731.72</ele>
        <time>2015-01-10T11:42:54Z</time>
      </trkpt>
      <trkpt lat="42.541" lon="0.59831">
        <ele>2731.24</ele>
        <time>2015-01-10T11:43:53Z</time>
      </trkpt>
      <trkpt lat="42.54099" lon="0.59831">
        <ele>2731.72</ele>
        <time>2015-01-10T11:44:45Z</time>
      </trkpt>
      <trkpt lat="42.541" lon="0.59832">
        <ele>2731.24</ele>
        <time>2015-01-10T11:45:27Z</time>
      </trkpt>
      <trkpt lat="42.54099" lon="0.59831">
        <ele>2731.24</ele>
        <time>2015-01-10T11:46:11Z</time>
      </trkpt>
      <trkpt lat="42.54098" lon="0.59832">
        <ele>2731.72</ele>
        <time>2015-01-10T11:46:56Z</time>
      </trkpt>
      <trkpt lat="42.54099" lon="0.59831">
        <ele>2731.72</ele>
        <time>2015-01-10T11:47:40Z</time>
      </trkpt>
      <trkpt lat="42.54099" lon="0.59832">
        <ele>2731.72</ele>
        <time>2015-01-10T11:48:25Z</time>
      </trkpt>
      <trkpt lat="42.54098" lon="0.59832">
        <ele>2731.72</ele>
        <time>2015-01-10T11:49:08Z</time>
      </trkpt>
      <trkpt lat="42.54098" lon="0.59832">
        <ele>2731.72</ele>
        <time>2015-01-10T11:49:45Z</time>
      </trkpt>
      <trkpt lat="42.54098" lon="0.59831">
        <ele>2731.24</ele>
        <time>2015-01-10T11:50:37Z</time>
      </trkpt>
      <trkpt lat="42.54097" lon="0.59831">
        <ele>2731.72</ele>
        <time>2015-01-10T11:51:18Z</time>
      </trkpt>
      <trkpt lat="42.54097" lon="0.59831">
        <ele>2731.72</ele>
        <time>2015-01-10T11:51:59Z</time>
      </trkpt>
      <trkpt lat="42.54098" lon="0.59831">
        <ele>2731.72</ele>
        <time>2015-01-10T11:52:39Z</time>
      </trkpt>
      <trkpt lat="42.54098" lon="0.59829">
        <ele>2732.2</ele>
        <time>2015-01-10T11:53:25Z</time>
      </trkpt>
      <trkpt lat="42.541" lon="0.5983">
        <ele>2732.2</ele>
        <time>2015-01-10T11:54:08Z</time>
      </trkpt>
      <trkpt lat="42.54101" lon="0.59832">
        <ele>2732.2</ele>
        <time>2015-01-10T11:54:50Z</time>
      </trkpt>
      <trkpt lat="42.54099" lon="0.5983">
        <ele>2732.2</ele>
        <time>2015-01-10T11:55:32Z</time>
      </trkpt>
      <trkpt lat="42.54097" lon="0.59832">
        <ele>2733.17</ele>
        <time>2015-01-10T11:55:45Z</time>
      </trkpt>
      <trkpt lat="42.541" lon="0.59833">
        <ele>2733.65</ele>
        <time>2015-01-10T11:56:01Z</time>
      </trkpt>
      <trkpt lat="42.54099" lon="0.59834">
        <ele>2733.17</ele>
        <time>2015-01-10T11:56:13Z</time>
      </trkpt>
      <trkpt lat="42.54098" lon="0.59836">
        <ele>2733.17</ele>
        <time>2015-01-10T11:56:39Z</time>
      </trkpt>
      <trkpt lat="42.54098" lon="0.59836">
        <ele>2732.68</ele>
        <time>2015-01-10T11:57:02Z</time>
      </trkpt>
      <trkpt lat="42.54098" lon="0.59837">
        <ele>2733.17</ele>
        <time>2015-01-10T11:57:22Z</time>
      </trkpt>
      <trkpt lat="42.54099" lon="0.59835">
        <ele>2732.68</ele>
        <time>2015-01-10T11:57:39Z</time>
      </trkpt>
      <trkpt lat="42.54097" lon="0.59832">
        <ele>2732.68</ele>
        <time>2015-01-10T11:58:05Z</time>
      </trkpt>
      <trkpt lat="42.54097" lon="0.59831">
        <ele>2732.68</ele>
        <time>2015-01-10T11:58:27Z</time>
      </trkpt>
      <trkpt lat="42.54096" lon="0.5983">
        <ele>2733.17</ele>
        <time>2015-01-10T11:58:48Z</time>
      </trkpt>
      <trkpt lat="42.54095" lon="0.5983">
        <ele>2733.17</ele>
        <time>2015-01-10T11:59:06Z</time>
      </trkpt>
      <trkpt lat="42.54096" lon="0.59834">
        <ele>2732.68</ele>
        <time>2015-01-10T11:59:24Z</time>
      </trkpt>
      <trkpt lat="42.54099" lon="0.59834">
        <ele>2732.68</ele>
        <time>2015-01-10T11:59:47Z</time>
      </trkpt>
      <trkpt lat="42.541" lon="0.59831">
        <ele>2732.68</ele>
        <time>2015-01-10T12:00:11Z</time>
      </trkpt>
      <trkpt lat="42.54098" lon="0.59829">
        <ele>2732.68</ele>
        <time>2015-01-10T12:00:34Z</time>
      </trkpt>
      <trkpt lat="42.54096" lon="0.59828">
        <ele>2732.68</ele>
        <time>2015-01-10T12:00:54Z</time>
      </trkpt>
      <trkpt lat="42.54094" lon="0.59826">
        <ele>2732.68</ele>
        <time>2015-01-10T12:01:11Z</time>
      </trkpt>
      <trkpt lat="42.54093" lon="0.5982">
        <ele>2732.2</ele>
        <time>2015-01-10T12:01:25Z</time>
      </trkpt>
      <trkpt lat="42.54092" lon="0.59812">
        <ele>2731.24</ele>
        <time>2015-01-10T12:01:37Z</time>
      </trkpt>
      <trkpt lat="42.54091" lon="0.59806">
        <ele>2727.88</ele>
        <time>2015-01-10T12:01:48Z</time>
      </trkpt>
      <trkpt lat="42.54091" lon="0.598">
        <ele>2725.96</ele>
        <time>2015-01-10T12:01:58Z</time>
      </trkpt>
      <trkpt lat="42.54092" lon="0.59793">
        <ele>2723.55</ele>
        <time>2015-01-10T12:02:12Z</time>
      </trkpt>
      <trkpt lat="42.54093" lon="0.59791">
        <ele>2721.63</ele>
        <time>2015-01-10T12:02:22Z</time>
      </trkpt>
      <trkpt lat="42.54095" lon="0.59786">
        <ele>2719.23</ele>
        <time>2015-01-10T12:02:36Z</time>
      </trkpt>
      <trkpt lat="42.54096" lon="0.59781">
        <ele>2717.3</ele>
        <time>2015-01-10T12:02:48Z</time>
      </trkpt>
      <trkpt lat="42.54099" lon="0.59777">
        <ele>2714.9</ele>
        <time>2015-01-10T12:03:00Z</time>
      </trkpt>
      <trkpt lat="42.54098" lon="0.59774">
        <ele>2713.46</ele>
        <time>2015-01-10T12:03:11Z</time>
      </trkpt>
      <trkpt lat="42.54099" lon="0.59768">
        <ele>2711.54</ele>
        <time>2015-01-10T12:03:23Z</time>
      </trkpt>
      <trkpt lat="42.541" lon="0.59763">
        <ele>2710.09</ele>
        <time>2015-01-10T12:03:34Z</time>
      </trkpt>
      <trkpt lat="42.54101" lon="0.59759">
        <ele>2707.69</ele>
        <time>2015-01-10T12:03:45Z</time>
      </trkpt>
      <trkpt lat="42.54101" lon="0.59754">
        <ele>2705.77</ele>
        <time>2015-01-10T12:03:57Z</time>
      </trkpt>
      <trkpt lat="42.54103" lon="0.5975">
        <ele>2703.85</ele>
        <time>2015-01-10T12:04:09Z</time>
      </trkpt>
      <trkpt lat="42.54103" lon="0.59745">
        <ele>2701.92</ele>
        <time>2015-01-10T12:04:21Z</time>
      </trkpt>
      <trkpt lat="42.54102" lon="0.59742">
        <ele>2700.48</ele>
        <time>2015-01-10T12:04:31Z</time>
      </trkpt>
      <trkpt lat="42.54103" lon="0.59737">
        <ele>2699.04</ele>
        <time>2015-01-10T12:04:42Z</time>
      </trkpt>
      <trkpt lat="42.54104" lon="0.59732">
        <ele>2696.64</ele>
        <time>2015-01-10T12:04:53Z</time>
      </trkpt>
      <trkpt lat="42.54105" lon="0.59726">
        <ele>2694.71</ele>
        <time>2015-01-10T12:05:04Z</time>
      </trkpt>
      <trkpt lat="42.54106" lon="0.59718">
        <ele>2691.35</ele>
        <time>2015-01-10T12:05:17Z</time>
      </trkpt>
      <trkpt lat="42.54106" lon="0.59713">
        <ele>2689.43</ele>
        <time>2015-01-10T12:05:27Z</time>
      </trkpt>
      <trkpt lat="42.54108" lon="0.59707">
        <ele>2686.06</ele>
        <time>2015-01-10T12:05:37Z</time>
      </trkpt>
      <trkpt lat="42.54107" lon="0.59697">
        <ele>2683.18</ele>
        <time>2015-01-10T12:05:50Z</time>
      </trkpt>
      <trkpt lat="42.54108" lon="0.59688">
        <ele>2680.29</ele>
        <time>2015-01-10T12:06:01Z</time>
      </trkpt>
      <trkpt lat="42.5411" lon="0.5968">
        <ele>2677.41</ele>
        <time>2015-01-10T12:06:14Z</time>
      </trkpt>
      <trkpt lat="42.54111" lon="0.59676">
        <ele>2676.45</ele>
        <time>2015-01-10T12:06:28Z</time>
      </trkpt>
      <trkpt lat="42.54111" lon="0.59671">
        <ele>2675.01</ele>
        <time>2015-01-10T12:06:40Z</time>
      </trkpt>
      <trkpt lat="42.54111" lon="0.59662">
        <ele>2671.64</ele>
        <time>2015-01-10T12:06:51Z</time>
      </trkpt>
      <trkpt lat="42.54109" lon="0.59653">
        <ele>2668.76</ele>
        <time>2015-01-10T12:07:03Z</time>
      </trkpt>
      <trkpt lat="42.54111" lon="0.59644">
        <ele>2666.35</ele>
        <time>2015-01-10T12:07:14Z</time>
      </trkpt>
      <trkpt lat="42.54111" lon="0.5964">
        <ele>2665.39</ele>
        <time>2015-01-10T12:07:19Z</time>
      </trkpt>
      <trkpt lat="42.54112" lon="0.59637">
        <ele>2664.43</ele>
        <time>2015-01-10T12:07:22Z</time>
      </trkpt>
      <trkpt lat="42.54113" lon="0.59626">
        <ele>2661.55</ele>
        <time>2015-01-10T12:07:32Z</time>
      </trkpt>
      <trkpt lat="42.54114" lon="0.59616">
        <ele>2659.14</ele>
        <time>2015-01-10T12:07:43Z</time>
      </trkpt>
      <trkpt lat="42.54116" lon="0.59608">
        <ele>2657.22</ele>
        <time>2015-01-10T12:07:51Z</time>
      </trkpt>
      <trkpt lat="42.54115" lon="0.59605">
        <ele>2656.26</ele>
        <time>2015-01-10T12:07:54Z</time>
      </trkpt>
      <trkpt lat="42.54115" lon="0.59595">
        <ele>2653.86</ele>
        <time>2015-01-10T12:08:05Z</time>
      </trkpt>
      <trkpt lat="42.54116" lon="0.59588">
        <ele>2652.42</ele>
        <time>2015-01-10T12:08:16Z</time>
      </trkpt>
      <trkpt lat="42.54116" lon="0.59585">
        <ele>2651.45</ele>
        <time>2015-01-10T12:08:31Z</time>
      </trkpt>
      <trkpt lat="42.54117" lon="0.5958">
        <ele>2650.01</ele>
        <time>2015-01-10T12:08:41Z</time>
      </trkpt>
      <trkpt lat="42.54116" lon="0.59571">
        <ele>2647.13</ele>
        <time>2015-01-10T12:08:55Z</time>
      </trkpt>
      <trkpt lat="42.54118" lon="0.59561">
        <ele>2644.72</ele>
        <time>2015-01-10T12:09:09Z</time>
      </trkpt>
      <trkpt lat="42.54118" lon="0.5956">
        <ele>2644.72</ele>
        <time>2015-01-10T12:09:23Z</time>
      </trkpt>
      <trkpt lat="42.54118" lon="0.5956">
        <ele>2644.72</ele>
        <time>2015-01-10T12:09:44Z</time>
      </trkpt>
      <trkpt lat="42.54119" lon="0.59561">
        <ele>2644.72</ele>
        <time>2015-01-10T12:10:06Z</time>
      </trkpt>
      <trkpt lat="42.54118" lon="0.59561">
        <ele>2644.24</ele>
        <time>2015-01-10T12:10:40Z</time>
      </trkpt>
      <trkpt lat="42.54118" lon="0.59561">
        <ele>2644.24</ele>
        <time>2015-01-10T12:11:08Z</time>
      </trkpt>
      <trkpt lat="42.54118" lon="0.5956">
        <ele>2644.24</ele>
        <time>2015-01-10T12:11:31Z</time>
      </trkpt>
      <trkpt lat="42.54118" lon="0.5956">
        <ele>2643.76</ele>
        <time>2015-01-10T12:11:51Z</time>
      </trkpt>
      <trkpt lat="42.54118" lon="0.59559">
        <ele>2643.76</ele>
        <time>2015-01-10T12:12:16Z</time>
      </trkpt>
      <trkpt lat="42.54117" lon="0.59553">
        <ele>2641.84</ele>
        <time>2015-01-10T12:12:31Z</time>
      </trkpt>
      <trkpt lat="42.54119" lon="0.59544">
        <ele>2639.92</ele>
        <time>2015-01-10T12:12:43Z</time>
      </trkpt>
      <trkpt lat="42.54119" lon="0.59536">
        <ele>2638.96</ele>
        <time>2015-01-10T12:12:54Z</time>
      </trkpt>
      <trkpt lat="42.54117" lon="0.59534">
        <ele>2637.03</ele>
        <time>2015-01-10T12:13:02Z</time>
      </trkpt>
      <trkpt lat="42.54114" lon="0.59528">
        <ele>2633.67</ele>
        <time>2015-01-10T12:13:13Z</time>
      </trkpt>
      <trkpt lat="42.54114" lon="0.59521">
        <ele>2630.79</ele>
        <time>2015-01-10T12:13:24Z</time>
      </trkpt>
      <trkpt lat="42.54113" lon="0.59515">
        <ele>2628.38</ele>
        <time>2015-01-10T12:13:39Z</time>
      </trkpt>
      <trkpt lat="42.54109" lon="0.59518">
        <ele>2625.98</ele>
        <time>2015-01-10T12:13:51Z</time>
      </trkpt>
      <trkpt lat="42.54105" lon="0.59519">
        <ele>2623.09</ele>
        <time>2015-01-10T12:14:03Z</time>
      </trkpt>
      <trkpt lat="42.54103" lon="0.59513">
        <ele>2620.21</ele>
        <time>2015-01-10T12:14:13Z</time>
      </trkpt>
      <trkpt lat="42.54103" lon="0.59512">
        <ele>2620.21</ele>
        <time>2015-01-10T12:14:14Z</time>
      </trkpt>
      <trkpt lat="42.54104" lon="0.59502">
        <ele>2618.29</ele>
        <time>2015-01-10T12:14:25Z</time>
      </trkpt>
      <trkpt lat="42.54104" lon="0.59496">
        <ele>2615.88</ele>
        <time>2015-01-10T12:14:35Z</time>
      </trkpt>
      <trkpt lat="42.54104" lon="0.59487">
        <ele>2614.92</ele>
        <time>2015-01-10T12:14:47Z</time>
      </trkpt>
      <trkpt lat="42.54104" lon="0.59481">
        <ele>2613</ele>
        <time>2015-01-10T12:14:57Z</time>
      </trkpt>
      <trkpt lat="42.54104" lon="0.59475">
        <ele>2611.08</ele>
        <time>2015-01-10T12:15:06Z</time>
      </trkpt>
      <trkpt lat="42.54104" lon="0.5947">
        <ele>2610.12</ele>
        <time>2015-01-10T12:15:16Z</time>
      </trkpt>
      <trkpt lat="42.54106" lon="0.59463">
        <ele>2608.67</ele>
        <time>2015-01-10T12:15:27Z</time>
      </trkpt>
      <trkpt lat="42.54108" lon="0.59454">
        <ele>2607.71</ele>
        <time>2015-01-10T12:15:40Z</time>
      </trkpt>
      <trkpt lat="42.54108" lon="0.59449">
        <ele>2605.79</ele>
        <time>2015-01-10T12:15:51Z</time>
      </trkpt>
      <trkpt lat="42.54108" lon="0.59442">
        <ele>2603.87</ele>
        <time>2015-01-10T12:16:02Z</time>
      </trkpt>
      <trkpt lat="42.54108" lon="0.59433">
        <ele>2601.95</ele>
        <time>2015-01-10T12:16:15Z</time>
      </trkpt>
      <trkpt lat="42.54109" lon="0.59428">
        <ele>2600.02</ele>
        <time>2015-01-10T12:16:25Z</time>
      </trkpt>
      <trkpt lat="42.54108" lon="0.59425">
        <ele>2599.54</ele>
        <time>2015-01-10T12:16:41Z</time>
      </trkpt>
      <trkpt lat="42.54109" lon="0.59418">
        <ele>2597.62</ele>
        <time>2015-01-10T12:16:51Z</time>
      </trkpt>
      <trkpt lat="42.5411" lon="0.5941">
        <ele>2595.7</ele>
        <time>2015-01-10T12:17:02Z</time>
      </trkpt>
      <trkpt lat="42.54111" lon="0.59401">
        <ele>2593.77</ele>
        <time>2015-01-10T12:17:13Z</time>
      </trkpt>
      <trkpt lat="42.54111" lon="0.59394">
        <ele>2592.33</ele>
        <time>2015-01-10T12:17:27Z</time>
      </trkpt>
      <trkpt lat="42.54111" lon="0.59385">
        <ele>2589.45</ele>
        <time>2015-01-10T12:17:40Z</time>
      </trkpt>
      <trkpt lat="42.54114" lon="0.59378">
        <ele>2588.49</ele>
        <time>2015-01-10T12:17:47Z</time>
      </trkpt>
      <trkpt lat="42.54118" lon="0.59369">
        <ele>2588.01</ele>
        <time>2015-01-10T12:17:58Z</time>
      </trkpt>
      <trkpt lat="42.5412" lon="0.59361">
        <ele>2587.04</ele>
        <time>2015-01-10T12:18:09Z</time>
      </trkpt>
      <trkpt lat="42.54119" lon="0.59356">
        <ele>2585.12</ele>
        <time>2015-01-10T12:18:21Z</time>
      </trkpt>
      <trkpt lat="42.54119" lon="0.59351">
        <ele>2584.16</ele>
        <time>2015-01-10T12:18:25Z</time>
      </trkpt>
      <trkpt lat="42.54121" lon="0.5934">
        <ele>2582.72</ele>
        <time>2015-01-10T12:18:37Z</time>
      </trkpt>
      <trkpt lat="42.54121" lon="0.59337">
        <ele>2581.76</ele>
        <time>2015-01-10T12:18:41Z</time>
      </trkpt>
      <trkpt lat="42.54123" lon="0.59325">
        <ele>2581.76</ele>
        <time>2015-01-10T12:18:53Z</time>
      </trkpt>
      <trkpt lat="42.54125" lon="0.59314">
        <ele>2580.8</ele>
        <time>2015-01-10T12:19:06Z</time>
      </trkpt>
      <trkpt lat="42.54126" lon="0.59306">
        <ele>2580.32</ele>
        <time>2015-01-10T12:19:15Z</time>
      </trkpt>
      <trkpt lat="42.5413" lon="0.59296">
        <ele>2580.32</ele>
        <time>2015-01-10T12:19:25Z</time>
      </trkpt>
      <trkpt lat="42.54132" lon="0.5929">
        <ele>2580.32</ele>
        <time>2015-01-10T12:19:31Z</time>
      </trkpt>
      <trkpt lat="42.54132" lon="0.59288">
        <ele>2580.32</ele>
        <time>2015-01-10T12:19:33Z</time>
      </trkpt>
      <trkpt lat="42.54136" lon="0.59277">
        <ele>2579.84</ele>
        <time>2015-01-10T12:19:44Z</time>
      </trkpt>
      <trkpt lat="42.54137" lon="0.5927">
        <ele>2579.35</ele>
        <time>2015-01-10T12:19:56Z</time>
      </trkpt>
      <trkpt lat="42.5414" lon="0.59259">
        <ele>2578.87</ele>
        <time>2015-01-10T12:20:08Z</time>
      </trkpt>
      <trkpt lat="42.54143" lon="0.59252">
        <ele>2578.87</ele>
        <time>2015-01-10T12:20:17Z</time>
      </trkpt>
      <trkpt lat="42.54145" lon="0.59239">
        <ele>2577.91</ele>
        <time>2015-01-10T12:20:28Z</time>
      </trkpt>
      <trkpt lat="42.54147" lon="0.59229">
        <ele>2576.95</ele>
        <time>2015-01-10T12:20:37Z</time>
      </trkpt>
      <trkpt lat="42.54153" lon="0.59217">
        <ele>2576.95</ele>
        <time>2015-01-10T12:20:49Z</time>
      </trkpt>
      <trkpt lat="42.54156" lon="0.59207">
        <ele>2575.99</ele>
        <time>2015-01-10T12:21:00Z</time>
      </trkpt>
      <trkpt lat="42.54158" lon="0.59204">
        <ele>2576.47</ele>
        <time>2015-01-10T12:21:05Z</time>
      </trkpt>
      <trkpt lat="42.54163" lon="0.59195">
        <ele>2577.43</ele>
        <time>2015-01-10T12:21:17Z</time>
      </trkpt>
      <trkpt lat="42.54163" lon="0.59193">
        <ele>2577.43</ele>
        <time>2015-01-10T12:21:18Z</time>
      </trkpt>
      <trkpt lat="42.54165" lon="0.59188">
        <ele>2577.91</ele>
        <time>2015-01-10T12:21:24Z</time>
      </trkpt>
      <trkpt lat="42.54166" lon="0.59186">
        <ele>2578.39</ele>
        <time>2015-01-10T12:21:27Z</time>
      </trkpt>
      <trkpt lat="42.54166" lon="0.59183">
        <ele>2577.91</ele>
        <time>2015-01-10T12:21:30Z</time>
      </trkpt>
      <trkpt lat="42.54167" lon="0.5918">
        <ele>2578.39</ele>
        <time>2015-01-10T12:21:32Z</time>
      </trkpt>
      <trkpt lat="42.54167" lon="0.59177">
        <ele>2577.91</ele>
        <time>2015-01-10T12:21:35Z</time>
      </trkpt>
      <trkpt lat="42.5417" lon="0.59165">
        <ele>2578.87</ele>
        <time>2015-01-10T12:21:48Z</time>
      </trkpt>
      <trkpt lat="42.54172" lon="0.59155">
        <ele>2579.35</ele>
        <time>2015-01-10T12:21:59Z</time>
      </trkpt>
      <trkpt lat="42.54173" lon="0.59145">
        <ele>2579.84</ele>
        <time>2015-01-10T12:22:09Z</time>
      </trkpt>
      <trkpt lat="42.54175" lon="0.59138">
        <ele>2579.35</ele>
        <time>2015-01-10T12:22:20Z</time>
      </trkpt>
      <trkpt lat="42.54177" lon="0.59129">
        <ele>2579.84</ele>
        <time>2015-01-10T12:22:32Z</time>
      </trkpt>
      <trkpt lat="42.54178" lon="0.59123">
        <ele>2580.32</ele>
        <time>2015-01-10T12:22:44Z</time>
      </trkpt>
      <trkpt lat="42.54179" lon="0.59114">
        <ele>2582.24</ele>
        <time>2015-01-10T12:22:59Z</time>
      </trkpt>
      <trkpt lat="42.5418" lon="0.59107">
        <ele>2583.2</ele>
        <time>2015-01-10T12:23:10Z</time>
      </trkpt>
      <trkpt lat="42.54185" lon="0.59102">
        <ele>2584.64</ele>
        <time>2015-01-10T12:23:22Z</time>
      </trkpt>
      <trkpt lat="42.54187" lon="0.59096">
        <ele>2587.04</ele>
        <time>2015-01-10T12:23:34Z</time>
      </trkpt>
      <trkpt lat="42.54187" lon="0.59093">
        <ele>2587.53</ele>
        <time>2015-01-10T12:23:51Z</time>
      </trkpt>
      <trkpt lat="42.54187" lon="0.59091">
        <ele>2587.04</ele>
        <time>2015-01-10T12:24:09Z</time>
      </trkpt>
      <trkpt lat="42.54184" lon="0.59093">
        <ele>2587.04</ele>
        <time>2015-01-10T12:24:27Z</time>
      </trkpt>
      <trkpt lat="42.54183" lon="0.59097">
        <ele>2585.6</ele>
        <time>2015-01-10T12:24:37Z</time>
      </trkpt>
      <trkpt lat="42.54183" lon="0.59095">
        <ele>2585.12</ele>
        <time>2015-01-10T12:24:54Z</time>
      </trkpt>
      <trkpt lat="42.54184" lon="0.59096">
        <ele>2585.6</ele>
        <time>2015-01-10T12:25:19Z</time>
      </trkpt>
      <trkpt lat="42.54184" lon="0.59097">
        <ele>2585.12</ele>
        <time>2015-01-10T12:25:47Z</time>
      </trkpt>
      <trkpt lat="42.54185" lon="0.59097">
        <ele>2585.12</ele>
        <time>2015-01-10T12:26:19Z</time>
      </trkpt>
      <trkpt lat="42.54184" lon="0.59095">
        <ele>2585.12</ele>
        <time>2015-01-10T12:26:52Z</time>
      </trkpt>
      <trkpt lat="42.54185" lon="0.59095">
        <ele>2585.12</ele>
        <time>2015-01-10T12:27:21Z</time>
      </trkpt>
      <trkpt lat="42.54185" lon="0.59097">
        <ele>2585.12</ele>
        <time>2015-01-10T12:27:45Z</time>
      </trkpt>
      <trkpt lat="42.54185" lon="0.59096">
        <ele>2585.12</ele>
        <time>2015-01-10T12:28:10Z</time>
      </trkpt>
      <trkpt lat="42.54187" lon="0.59095">
        <ele>2585.12</ele>
        <time>2015-01-10T12:28:37Z</time>
      </trkpt>
      <trkpt lat="42.54186" lon="0.59094">
        <ele>2585.12</ele>
        <time>2015-01-10T12:29:07Z</time>
      </trkpt>
      <trkpt lat="42.54186" lon="0.59095">
        <ele>2585.12</ele>
        <time>2015-01-10T12:29:36Z</time>
      </trkpt>
      <trkpt lat="42.54186" lon="0.59094">
        <ele>2585.12</ele>
        <time>2015-01-10T12:30:03Z</time>
      </trkpt>
      <trkpt lat="42.54186" lon="0.59095">
        <ele>2585.12</ele>
        <time>2015-01-10T12:30:46Z</time>
      </trkpt>
      <trkpt lat="42.54186" lon="0.59095">
        <ele>2585.12</ele>
        <time>2015-01-10T12:31:14Z</time>
      </trkpt>
      <trkpt lat="42.54185" lon="0.59095">
        <ele>2585.12</ele>
        <time>2015-01-10T12:31:36Z</time>
      </trkpt>
      <trkpt lat="42.54186" lon="0.59095">
        <ele>2585.12</ele>
        <time>2015-01-10T12:32:09Z</time>
      </trkpt>
      <trkpt lat="42.54186" lon="0.59094">
        <ele>2585.12</ele>
        <time>2015-01-10T12:32:33Z</time>
      </trkpt>
      <trkpt lat="42.54187" lon="0.59095">
        <ele>2584.64</ele>
        <time>2015-01-10T12:33:06Z</time>
      </trkpt>
      <trkpt lat="42.54185" lon="0.59094">
        <ele>2584.64</ele>
        <time>2015-01-10T12:33:29Z</time>
      </trkpt>
      <trkpt lat="42.54185" lon="0.59094">
        <ele>2584.64</ele>
        <time>2015-01-10T12:33:52Z</time>
      </trkpt>
      <trkpt lat="42.54185" lon="0.59093">
        <ele>2585.6</ele>
        <time>2015-01-10T12:34:15Z</time>
      </trkpt>
      <trkpt lat="42.54185" lon="0.59091">
        <ele>2585.6</ele>
        <time>2015-01-10T12:34:29Z</time>
      </trkpt>
      <trkpt lat="42.54185" lon="0.59096">
        <ele>2584.16</ele>
        <time>2015-01-10T12:34:42Z</time>
      </trkpt>
      <trkpt lat="42.54186" lon="0.59099">
        <ele>2584.16</ele>
        <time>2015-01-10T12:35:08Z</time>
      </trkpt>
      <trkpt lat="42.54185" lon="0.591">
        <ele>2584.16</ele>
        <time>2015-01-10T12:35:37Z</time>
      </trkpt>
      <trkpt lat="42.54183" lon="0.59094">
        <ele>2584.64</ele>
        <time>2015-01-10T12:36:12Z</time>
      </trkpt>
      <trkpt lat="42.54184" lon="0.59094">
        <ele>2584.64</ele>
        <time>2015-01-10T12:36:48Z</time>
      </trkpt>
      <trkpt lat="42.54183" lon="0.59093">
        <ele>2584.16</ele>
        <time>2015-01-10T12:37:22Z</time>
      </trkpt>
      <trkpt lat="42.54183" lon="0.59093">
        <ele>2584.64</ele>
        <time>2015-01-10T12:37:50Z</time>
      </trkpt>
      <trkpt lat="42.54184" lon="0.59089">
        <ele>2585.6</ele>
        <time>2015-01-10T12:38:09Z</time>
      </trkpt>
      <trkpt lat="42.54186" lon="0.59088">
        <ele>2586.08</ele>
        <time>2015-01-10T12:38:29Z</time>
      </trkpt>
      <trkpt lat="42.54186" lon="0.59089">
        <ele>2585.6</ele>
        <time>2015-01-10T12:38:51Z</time>
      </trkpt>
      <trkpt lat="42.54187" lon="0.5909">
        <ele>2586.08</ele>
        <time>2015-01-10T12:39:11Z</time>
      </trkpt>
      <trkpt lat="42.54188" lon="0.5909">
        <ele>2586.08</ele>
        <time>2015-01-10T12:39:30Z</time>
      </trkpt>
      <trkpt lat="42.5419" lon="0.59093">
        <ele>2587.53</ele>
        <time>2015-01-10T12:39:47Z</time>
      </trkpt>
      <trkpt lat="42.54193" lon="0.59092">
        <ele>2587.53</ele>
        <time>2015-01-10T12:40:04Z</time>
      </trkpt>
      <trkpt lat="42.54195" lon="0.59091">
        <ele>2587.53</ele>
        <time>2015-01-10T12:40:18Z</time>
      </trkpt>
      <trkpt lat="42.542" lon="0.5909">
        <ele>2585.12</ele>
        <time>2015-01-10T12:40:31Z</time>
      </trkpt>
      <trkpt lat="42.54205" lon="0.5909">
        <ele>2584.16</ele>
        <time>2015-01-10T12:40:42Z</time>
      </trkpt>
      <trkpt lat="42.54207" lon="0.59088">
        <ele>2583.68</ele>
        <time>2015-01-10T12:40:53Z</time>
      </trkpt>
      <trkpt lat="42.54213" lon="0.59086">
        <ele>2582.72</ele>
        <time>2015-01-10T12:41:05Z</time>
      </trkpt>
      <trkpt lat="42.54218" lon="0.59088">
        <ele>2580.8</ele>
        <time>2015-01-10T12:41:20Z</time>
      </trkpt>
      <trkpt lat="42.54223" lon="0.59088">
        <ele>2578.87</ele>
        <time>2015-01-10T12:41:33Z</time>
      </trkpt>
      <trkpt lat="42.5423" lon="0.59089">
        <ele>2577.43</ele>
        <time>2015-01-10T12:41:47Z</time>
      </trkpt>
      <trkpt lat="42.54236" lon="0.59084">
        <ele>2576.95</ele>
        <time>2015-01-10T12:42:03Z</time>
      </trkpt>
      <trkpt lat="42.54243" lon="0.5908">
        <ele>2577.91</ele>
        <time>2015-01-10T12:42:16Z</time>
      </trkpt>
      <trkpt lat="42.54248" lon="0.59079">
        <ele>2575.51</ele>
        <time>2015-01-10T12:42:30Z</time>
      </trkpt>
      <trkpt lat="42.54253" lon="0.59077">
        <ele>2575.03</ele>
        <time>2015-01-10T12:42:43Z</time>
      </trkpt>
      <trkpt lat="42.54259" lon="0.59075">
        <ele>2573.59</ele>
        <time>2015-01-10T12:42:56Z</time>
      </trkpt>
      <trkpt lat="42.54266" lon="0.59073">
        <ele>2571.66</ele>
        <time>2015-01-10T12:43:11Z</time>
      </trkpt>
      <trkpt lat="42.54271" lon="0.5907">
        <ele>2569.74</ele>
        <time>2015-01-10T12:43:28Z</time>
      </trkpt>
      <trkpt lat="42.54275" lon="0.59069">
        <ele>2568.3</ele>
        <time>2015-01-10T12:43:42Z</time>
      </trkpt>
      <trkpt lat="42.54276" lon="0.5907">
        <ele>2566.86</ele>
        <time>2015-01-10T12:43:56Z</time>
      </trkpt>
      <trkpt lat="42.54278" lon="0.5907">
        <ele>2565.9</ele>
        <time>2015-01-10T12:44:05Z</time>
      </trkpt>
      <trkpt lat="42.54279" lon="0.59071">
        <ele>2565.42</ele>
        <time>2015-01-10T12:44:19Z</time>
      </trkpt>
      <trkpt lat="42.54279" lon="0.59072">
        <ele>2564.45</ele>
        <time>2015-01-10T12:44:31Z</time>
      </trkpt>
      <trkpt lat="42.5428" lon="0.59075">
        <ele>2563.49</ele>
        <time>2015-01-10T12:44:47Z</time>
      </trkpt>
      <trkpt lat="42.54283" lon="0.59074">
        <ele>2562.05</ele>
        <time>2015-01-10T12:45:01Z</time>
      </trkpt>
      <trkpt lat="42.54286" lon="0.59074">
        <ele>2560.13</ele>
        <time>2015-01-10T12:45:15Z</time>
      </trkpt>
      <trkpt lat="42.5429" lon="0.59073">
        <ele>2557.73</ele>
        <time>2015-01-10T12:45:30Z</time>
      </trkpt>
      <trkpt lat="42.54294" lon="0.59072">
        <ele>2556.28</ele>
        <time>2015-01-10T12:45:44Z</time>
      </trkpt>
      <trkpt lat="42.54297" lon="0.59072">
        <ele>2554.36</ele>
        <time>2015-01-10T12:45:58Z</time>
      </trkpt>
      <trkpt lat="42.54298" lon="0.59075">
        <ele>2552.92</ele>
        <time>2015-01-10T12:46:14Z</time>
      </trkpt>
      <trkpt lat="42.54298" lon="0.59076">
        <ele>2551.96</ele>
        <time>2015-01-10T12:46:27Z</time>
      </trkpt>
      <trkpt lat="42.54299" lon="0.59079">
        <ele>2550.51</ele>
        <time>2015-01-10T12:46:39Z</time>
      </trkpt>
      <trkpt lat="42.54299" lon="0.59083">
        <ele>2549.07</ele>
        <time>2015-01-10T12:46:53Z</time>
      </trkpt>
      <trkpt lat="42.54299" lon="0.59081">
        <ele>2548.59</ele>
        <time>2015-01-10T12:47:11Z</time>
      </trkpt>
      <trkpt lat="42.54303" lon="0.5908">
        <ele>2547.63</ele>
        <time>2015-01-10T12:47:24Z</time>
      </trkpt>
      <trkpt lat="42.54305" lon="0.5908">
        <ele>2546.67</ele>
        <time>2015-01-10T12:47:37Z</time>
      </trkpt>
      <trkpt lat="42.54309" lon="0.59078">
        <ele>2544.27</ele>
        <time>2015-01-10T12:47:53Z</time>
      </trkpt>
      <trkpt lat="42.54311" lon="0.59078">
        <ele>2543.31</ele>
        <time>2015-01-10T12:48:04Z</time>
      </trkpt>
      <trkpt lat="42.54315" lon="0.59077">
        <ele>2540.9</ele>
        <time>2015-01-10T12:48:19Z</time>
      </trkpt>
      <trkpt lat="42.54317" lon="0.59078">
        <ele>2539.46</ele>
        <time>2015-01-10T12:48:32Z</time>
      </trkpt>
      <trkpt lat="42.54321" lon="0.59079">
        <ele>2538.02</ele>
        <time>2015-01-10T12:48:45Z</time>
      </trkpt>
      <trkpt lat="42.54322" lon="0.59078">
        <ele>2537.54</ele>
        <time>2015-01-10T12:48:55Z</time>
      </trkpt>
      <trkpt lat="42.54326" lon="0.59078">
        <ele>2536.58</ele>
        <time>2015-01-10T12:49:09Z</time>
      </trkpt>
      <trkpt lat="42.5433" lon="0.59077">
        <ele>2534.17</ele>
        <time>2015-01-10T12:49:21Z</time>
      </trkpt>
      <trkpt lat="42.54335" lon="0.59076">
        <ele>2531.77</ele>
        <time>2015-01-10T12:49:36Z</time>
      </trkpt>
      <trkpt lat="42.5434" lon="0.59076">
        <ele>2530.81</ele>
        <time>2015-01-10T12:49:50Z</time>
      </trkpt>
      <trkpt lat="42.54346" lon="0.59076">
        <ele>2528.89</ele>
        <time>2015-01-10T12:50:01Z</time>
      </trkpt>
      <trkpt lat="42.54346" lon="0.59076">
        <ele>2526.96</ele>
        <time>2015-01-10T12:50:16Z</time>
      </trkpt>
      <trkpt lat="42.54346" lon="0.59076">
        <ele>2526.96</ele>
        <time>2015-01-10T12:50:34Z</time>
      </trkpt>
      <trkpt lat="42.54346" lon="0.59087">
        <ele>2524.56</ele>
        <time>2015-01-10T12:50:47Z</time>
      </trkpt>
      <trkpt lat="42.54345" lon="0.59092">
        <ele>2522.64</ele>
        <time>2015-01-10T12:51:01Z</time>
      </trkpt>
      <trkpt lat="42.54342" lon="0.59099">
        <ele>2520.23</ele>
        <time>2015-01-10T12:51:15Z</time>
      </trkpt>
      <trkpt lat="42.5434" lon="0.59103">
        <ele>2518.79</ele>
        <time>2015-01-10T12:51:26Z</time>
      </trkpt>
      <trkpt lat="42.54338" lon="0.59107">
        <ele>2516.87</ele>
        <time>2015-01-10T12:51:38Z</time>
      </trkpt>
      <trkpt lat="42.54336" lon="0.59113">
        <ele>2515.43</ele>
        <time>2015-01-10T12:51:50Z</time>
      </trkpt>
      <trkpt lat="42.54335" lon="0.59118">
        <ele>2513.02</ele>
        <time>2015-01-10T12:52:04Z</time>
      </trkpt>
      <trkpt lat="42.54333" lon="0.59124">
        <ele>2511.1</ele>
        <time>2015-01-10T12:52:18Z</time>
      </trkpt>
      <trkpt lat="42.54332" lon="0.59128">
        <ele>2509.66</ele>
        <time>2015-01-10T12:52:32Z</time>
      </trkpt>
      <trkpt lat="42.54331" lon="0.59125">
        <ele>2509.66</ele>
        <time>2015-01-10T12:52:52Z</time>
      </trkpt>
      <trkpt lat="42.54337" lon="0.59125">
        <ele>2507.74</ele>
        <time>2015-01-10T12:53:05Z</time>
      </trkpt>
      <trkpt lat="42.54342" lon="0.59123">
        <ele>2505.33</ele>
        <time>2015-01-10T12:53:19Z</time>
      </trkpt>
      <trkpt lat="42.54341" lon="0.59123">
        <ele>2504.37</ele>
        <time>2015-01-10T12:53:33Z</time>
      </trkpt>
      <trkpt lat="42.54342" lon="0.59129">
        <ele>2503.41</ele>
        <time>2015-01-10T12:53:49Z</time>
      </trkpt>
      <trkpt lat="42.54343" lon="0.59136">
        <ele>2501.49</ele>
        <time>2015-01-10T12:54:02Z</time>
      </trkpt>
      <trkpt lat="42.54342" lon="0.59142">
        <ele>2499.57</ele>
        <time>2015-01-10T12:54:15Z</time>
      </trkpt>
      <trkpt lat="42.54342" lon="0.59148">
        <ele>2497.64</ele>
        <time>2015-01-10T12:54:27Z</time>
      </trkpt>
      <trkpt lat="42.54342" lon="0.5915">
        <ele>2496.2</ele>
        <time>2015-01-10T12:54:36Z</time>
      </trkpt>
      <trkpt lat="42.54339" lon="0.59157">
        <ele>2493.8</ele>
        <time>2015-01-10T12:54:49Z</time>
      </trkpt>
      <trkpt lat="42.54338" lon="0.59163">
        <ele>2491.39</ele>
        <time>2015-01-10T12:55:01Z</time>
      </trkpt>
      <trkpt lat="42.54336" lon="0.59168">
        <ele>2488.99</ele>
        <time>2015-01-10T12:55:14Z</time>
      </trkpt>
      <trkpt lat="42.54333" lon="0.59175">
        <ele>2487.07</ele>
        <time>2015-01-10T12:55:29Z</time>
      </trkpt>
      <trkpt lat="42.54332" lon="0.59178">
        <ele>2484.66</ele>
        <time>2015-01-10T12:55:41Z</time>
      </trkpt>
      <trkpt lat="42.54332" lon="0.59176">
        <ele>2484.66</ele>
        <time>2015-01-10T12:55:57Z</time>
      </trkpt>
      <trkpt lat="42.54335" lon="0.59174">
        <ele>2484.18</ele>
        <time>2015-01-10T12:56:14Z</time>
      </trkpt>
      <trkpt lat="42.5434" lon="0.59176">
        <ele>2481.3</ele>
        <time>2015-01-10T12:56:29Z</time>
      </trkpt>
      <trkpt lat="42.54343" lon="0.59174">
        <ele>2479.86</ele>
        <time>2015-01-10T12:56:42Z</time>
      </trkpt>
      <trkpt lat="42.54345" lon="0.59174">
        <ele>2477.94</ele>
        <time>2015-01-10T12:56:55Z</time>
      </trkpt>
      <trkpt lat="42.54344" lon="0.59176">
        <ele>2477.94</ele>
        <time>2015-01-10T12:57:12Z</time>
      </trkpt>
      <trkpt lat="42.54344" lon="0.59174">
        <ele>2477.45</ele>
        <time>2015-01-10T12:57:31Z</time>
      </trkpt>
      <trkpt lat="42.54345" lon="0.59177">
        <ele>2476.01</ele>
        <time>2015-01-10T12:57:42Z</time>
      </trkpt>
      <trkpt lat="42.54346" lon="0.5918">
        <ele>2473.61</ele>
        <time>2015-01-10T12:57:53Z</time>
      </trkpt>
      <trkpt lat="42.54349" lon="0.59182">
        <ele>2472.65</ele>
        <time>2015-01-10T12:58:06Z</time>
      </trkpt>
      <trkpt lat="42.5435" lon="0.59183">
        <ele>2471.21</ele>
        <time>2015-01-10T12:58:20Z</time>
      </trkpt>
      <trkpt lat="42.54352" lon="0.59185">
        <ele>2469.28</ele>
        <time>2015-01-10T12:58:33Z</time>
      </trkpt>
      <trkpt lat="42.54356" lon="0.59187">
        <ele>2467.84</ele>
        <time>2015-01-10T12:58:46Z</time>
      </trkpt>
      <trkpt lat="42.54358" lon="0.59189">
        <ele>2465.92</ele>
        <time>2015-01-10T12:58:58Z</time>
      </trkpt>
      <trkpt lat="42.54359" lon="0.59189">
        <ele>2464.48</ele>
        <time>2015-01-10T12:59:10Z</time>
      </trkpt>
      <trkpt lat="42.5436" lon="0.5919">
        <ele>2463.04</ele>
        <time>2015-01-10T12:59:22Z</time>
      </trkpt>
      <trkpt lat="42.54362" lon="0.5919">
        <ele>2461.59</ele>
        <time>2015-01-10T12:59:33Z</time>
      </trkpt>
      <trkpt lat="42.54363" lon="0.59191">
        <ele>2460.63</ele>
        <time>2015-01-10T12:59:47Z</time>
      </trkpt>
      <trkpt lat="42.54365" lon="0.59193">
        <ele>2459.19</ele>
        <time>2015-01-10T12:59:58Z</time>
      </trkpt>
      <trkpt lat="42.54366" lon="0.59193">
        <ele>2458.23</ele>
        <time>2015-01-10T13:00:12Z</time>
      </trkpt>
      <trkpt lat="42.54367" lon="0.59197">
        <ele>2457.27</ele>
        <time>2015-01-10T13:00:23Z</time>
      </trkpt>
      <trkpt lat="42.54366" lon="0.59196">
        <ele>2455.82</ele>
        <time>2015-01-10T13:00:35Z</time>
      </trkpt>
      <trkpt lat="42.54367" lon="0.59198">
        <ele>2453.9</ele>
        <time>2015-01-10T13:00:48Z</time>
      </trkpt>
      <trkpt lat="42.5437" lon="0.592">
        <ele>2453.9</ele>
        <time>2015-01-10T13:01:00Z</time>
      </trkpt>
      <trkpt lat="42.54371" lon="0.59204">
        <ele>2450.54</ele>
        <time>2015-01-10T13:01:11Z</time>
      </trkpt>
      <trkpt lat="42.54374" lon="0.59207">
        <ele>2449.1</ele>
        <time>2015-01-10T13:01:22Z</time>
      </trkpt>
      <trkpt lat="42.54376" lon="0.59209">
        <ele>2448.13</ele>
        <time>2015-01-10T13:01:34Z</time>
      </trkpt>
      <trkpt lat="42.54374" lon="0.59216">
        <ele>2447.65</ele>
        <time>2015-01-10T13:01:49Z</time>
      </trkpt>
      <trkpt lat="42.54378" lon="0.59216">
        <ele>2445.73</ele>
        <time>2015-01-10T13:01:59Z</time>
      </trkpt>
      <trkpt lat="42.54382" lon="0.59216">
        <ele>2444.77</ele>
        <time>2015-01-10T13:02:13Z</time>
      </trkpt>
      <trkpt lat="42.54386" lon="0.59215">
        <ele>2443.33</ele>
        <time>2015-01-10T13:02:25Z</time>
      </trkpt>
      <trkpt lat="42.54393" lon="0.59215">
        <ele>2440.92</ele>
        <time>2015-01-10T13:02:36Z</time>
      </trkpt>
      <trkpt lat="42.54396" lon="0.59215">
        <ele>2439.96</ele>
        <time>2015-01-10T13:02:40Z</time>
      </trkpt>
      <trkpt lat="42.54403" lon="0.59213">
        <ele>2437.56</ele>
        <time>2015-01-10T13:02:54Z</time>
      </trkpt>
      <trkpt lat="42.54409" lon="0.59212">
        <ele>2435.64</ele>
        <time>2015-01-10T13:03:06Z</time>
      </trkpt>
      <trkpt lat="42.54415" lon="0.59211">
        <ele>2433.23</ele>
        <time>2015-01-10T13:03:18Z</time>
      </trkpt>
      <trkpt lat="42.5442" lon="0.59211">
        <ele>2431.31</ele>
        <time>2015-01-10T13:03:30Z</time>
      </trkpt>
      <trkpt lat="42.54421" lon="0.59209">
        <ele>2430.35</ele>
        <time>2015-01-10T13:03:42Z</time>
      </trkpt>
      <trkpt lat="42.54422" lon="0.59209">
        <ele>2430.35</ele>
        <time>2015-01-10T13:03:57Z</time>
      </trkpt>
      <trkpt lat="42.54427" lon="0.59208">
        <ele>2429.39</ele>
        <time>2015-01-10T13:04:15Z</time>
      </trkpt>
      <trkpt lat="42.54432" lon="0.59206">
        <ele>2426.99</ele>
        <time>2015-01-10T13:04:28Z</time>
      </trkpt>
      <trkpt lat="42.54437" lon="0.59204">
        <ele>2423.62</ele>
        <time>2015-01-10T13:04:43Z</time>
      </trkpt>
      <trkpt lat="42.54445" lon="0.59203">
        <ele>2421.22</ele>
        <time>2015-01-10T13:04:56Z</time>
      </trkpt>
      <trkpt lat="42.5445" lon="0.59204">
        <ele>2419.3</ele>
        <time>2015-01-10T13:05:05Z</time>
      </trkpt>
      <trkpt lat="42.54457" lon="0.59206">
        <ele>2416.89</ele>
        <time>2015-01-10T13:05:17Z</time>
      </trkpt>
      <trkpt lat="42.54464" lon="0.59208">
        <ele>2414.49</ele>
        <time>2015-01-10T13:05:30Z</time>
      </trkpt>
      <trkpt lat="42.5447" lon="0.5921">
        <ele>2411.6</ele>
        <time>2015-01-10T13:05:44Z</time>
      </trkpt>
      <trkpt lat="42.54474" lon="0.59208">
        <ele>2409.2</ele>
        <time>2015-01-10T13:05:57Z</time>
      </trkpt>
      <trkpt lat="42.54479" lon="0.59209">
        <ele>2407.28</ele>
        <time>2015-01-10T13:06:10Z</time>
      </trkpt>
      <trkpt lat="42.54484" lon="0.59208">
        <ele>2404.88</ele>
        <time>2015-01-10T13:06:23Z</time>
      </trkpt>
      <trkpt lat="42.54489" lon="0.59209">
        <ele>2402.95</ele>
        <time>2015-01-10T13:06:35Z</time>
      </trkpt>
      <trkpt lat="42.54494" lon="0.59208">
        <ele>2401.03</ele>
        <time>2015-01-10T13:06:45Z</time>
      </trkpt>
      <trkpt lat="42.54502" lon="0.59207">
        <ele>2397.67</ele>
        <time>2015-01-10T13:06:59Z</time>
      </trkpt>
      <trkpt lat="42.54508" lon="0.59208">
        <ele>2395.26</ele>
        <time>2015-01-10T13:07:12Z</time>
      </trkpt>
      <trkpt lat="42.54514" lon="0.59207">
        <ele>2393.34</ele>
        <time>2015-01-10T13:07:24Z</time>
      </trkpt>
      <trkpt lat="42.54523" lon="0.59205">
        <ele>2390.46</ele>
        <time>2015-01-10T13:07:38Z</time>
      </trkpt>
      <trkpt lat="42.5453" lon="0.59205">
        <ele>2388.05</ele>
        <time>2015-01-10T13:07:49Z</time>
      </trkpt>
      <trkpt lat="42.54538" lon="0.59207">
        <ele>2385.65</ele>
        <time>2015-01-10T13:08:02Z</time>
      </trkpt>
      <trkpt lat="42.54542" lon="0.59209">
        <ele>2383.73</ele>
        <time>2015-01-10T13:08:16Z</time>
      </trkpt>
      <trkpt lat="42.5455" lon="0.59209">
        <ele>2380.36</ele>
        <time>2015-01-10T13:08:29Z</time>
      </trkpt>
      <trkpt lat="42.54555" lon="0.59211">
        <ele>2377.96</ele>
        <time>2015-01-10T13:08:40Z</time>
      </trkpt>
      <trkpt lat="42.54564" lon="0.5921">
        <ele>2376.04</ele>
        <time>2015-01-10T13:08:53Z</time>
      </trkpt>
      <trkpt lat="42.54572" lon="0.59213">
        <ele>2375.07</ele>
        <time>2015-01-10T13:09:04Z</time>
      </trkpt>
      <trkpt lat="42.54574" lon="0.59214">
        <ele>2373.15</ele>
        <time>2015-01-10T13:09:07Z</time>
      </trkpt>
      <trkpt lat="42.54579" lon="0.59215">
        <ele>2371.71</ele>
        <time>2015-01-10T13:09:20Z</time>
      </trkpt>
      <trkpt lat="42.54582" lon="0.59217">
        <ele>2371.23</ele>
        <time>2015-01-10T13:09:26Z</time>
      </trkpt>
      <trkpt lat="42.5459" lon="0.5922">
        <ele>2369.79</ele>
        <time>2015-01-10T13:09:40Z</time>
      </trkpt>
      <trkpt lat="42.54598" lon="0.59222">
        <ele>2367.86</ele>
        <time>2015-01-10T13:09:55Z</time>
      </trkpt>
      <trkpt lat="42.54601" lon="0.59224">
        <ele>2367.38</ele>
        <time>2015-01-10T13:10:01Z</time>
      </trkpt>
      <trkpt lat="42.54607" lon="0.59225">
        <ele>2366.42</ele>
        <time>2015-01-10T13:10:17Z</time>
      </trkpt>
      <trkpt lat="42.54613" lon="0.59229">
        <ele>2364.5</ele>
        <time>2015-01-10T13:10:30Z</time>
      </trkpt>
      <trkpt lat="42.54615" lon="0.5923">
        <ele>2364.02</ele>
        <time>2015-01-10T13:10:32Z</time>
      </trkpt>
      <trkpt lat="42.54624" lon="0.59236">
        <ele>2362.58</ele>
        <time>2015-01-10T13:10:46Z</time>
      </trkpt>
      <trkpt lat="42.54632" lon="0.59242">
        <ele>2361.62</ele>
        <time>2015-01-10T13:11:00Z</time>
      </trkpt>
      <trkpt lat="42.5464" lon="0.59246">
        <ele>2360.65</ele>
        <time>2015-01-10T13:11:14Z</time>
      </trkpt>
      <trkpt lat="42.54645" lon="0.5925">
        <ele>2359.69</ele>
        <time>2015-01-10T13:11:25Z</time>
      </trkpt>
      <trkpt lat="42.54645" lon="0.59259">
        <ele>2359.21</ele>
        <time>2015-01-10T13:11:31Z</time>
      </trkpt>
      <trkpt lat="42.54645" lon="0.59272">
        <ele>2357.77</ele>
        <time>2015-01-10T13:11:42Z</time>
      </trkpt>
      <trkpt lat="42.54646" lon="0.59274">
        <ele>2357.77</ele>
        <time>2015-01-10T13:11:43Z</time>
      </trkpt>
      <trkpt lat="42.54652" lon="0.59285">
        <ele>2356.33</ele>
        <time>2015-01-10T13:11:55Z</time>
      </trkpt>
      <trkpt lat="42.54652" lon="0.5929">
        <ele>2356.33</ele>
        <time>2015-01-10T13:12:10Z</time>
      </trkpt>
      <trkpt lat="42.54654" lon="0.59288">
        <ele>2355.85</ele>
        <time>2015-01-10T13:12:23Z</time>
      </trkpt>
      <trkpt lat="42.54653" lon="0.59287">
        <ele>2355.85</ele>
        <time>2015-01-10T13:12:43Z</time>
      </trkpt>
      <trkpt lat="42.54654" lon="0.59287">
        <ele>2355.85</ele>
        <time>2015-01-10T13:13:02Z</time>
      </trkpt>
      <trkpt lat="42.54655" lon="0.59289">
        <ele>2355.85</ele>
        <time>2015-01-10T13:13:21Z</time>
      </trkpt>
      <trkpt lat="42.54655" lon="0.59288">
        <ele>2355.85</ele>
        <time>2015-01-10T13:13:47Z</time>
      </trkpt>
      <trkpt lat="42.54654" lon="0.59287">
        <ele>2355.85</ele>
        <time>2015-01-10T13:14:13Z</time>
      </trkpt>
      <trkpt lat="42.54654" lon="0.59288">
        <ele>2355.37</ele>
        <time>2015-01-10T13:14:37Z</time>
      </trkpt>
      <trkpt lat="42.54654" lon="0.59288">
        <ele>2355.37</ele>
        <time>2015-01-10T13:14:41Z</time>
      </trkpt>
      <trkpt lat="42.54658" lon="0.59287">
        <ele>2354.41</ele>
        <time>2015-01-10T13:14:56Z</time>
      </trkpt>
      <trkpt lat="42.54666" lon="0.59294">
        <ele>2351.52</ele>
        <time>2015-01-10T13:15:09Z</time>
      </trkpt>
      <trkpt lat="42.54671" lon="0.59301">
        <ele>2348.16</ele>
        <time>2015-01-10T13:15:19Z</time>
      </trkpt>
      <trkpt lat="42.54675" lon="0.59307">
        <ele>2345.27</ele>
        <time>2015-01-10T13:15:29Z</time>
      </trkpt>
      <trkpt lat="42.54679" lon="0.59312">
        <ele>2341.91</ele>
        <time>2015-01-10T13:15:39Z</time>
      </trkpt>
      <trkpt lat="42.54684" lon="0.59312">
        <ele>2338.54</ele>
        <time>2015-01-10T13:15:50Z</time>
      </trkpt>
      <trkpt lat="42.5469" lon="0.59311">
        <ele>2336.14</ele>
        <time>2015-01-10T13:15:57Z</time>
      </trkpt>
      <trkpt lat="42.547" lon="0.59307">
        <ele>2333.26</ele>
        <time>2015-01-10T13:16:10Z</time>
      </trkpt>
      <trkpt lat="42.54708" lon="0.59305">
        <ele>2331.33</ele>
        <time>2015-01-10T13:16:27Z</time>
      </trkpt>
      <trkpt lat="42.5471" lon="0.59303">
        <ele>2330.37</ele>
        <time>2015-01-10T13:16:41Z</time>
      </trkpt>
      <trkpt lat="42.54715" lon="0.593">
        <ele>2328.93</ele>
        <time>2015-01-10T13:16:51Z</time>
      </trkpt>
      <trkpt lat="42.5472" lon="0.59298">
        <ele>2327.49</ele>
        <time>2015-01-10T13:17:02Z</time>
      </trkpt>
      <trkpt lat="42.54724" lon="0.59295">
        <ele>2326.53</ele>
        <time>2015-01-10T13:17:08Z</time>
      </trkpt>
      <trkpt lat="42.54733" lon="0.5929">
        <ele>2324.61</ele>
        <time>2015-01-10T13:17:22Z</time>
      </trkpt>
      <trkpt lat="42.5474" lon="0.59286">
        <ele>2323.16</ele>
        <time>2015-01-10T13:17:31Z</time>
      </trkpt>
      <trkpt lat="42.54747" lon="0.59281">
        <ele>2320.76</ele>
        <time>2015-01-10T13:17:41Z</time>
      </trkpt>
      <trkpt lat="42.54753" lon="0.59279">
        <ele>2318.84</ele>
        <time>2015-01-10T13:17:49Z</time>
      </trkpt>
      <trkpt lat="42.54758" lon="0.59275">
        <ele>2317.88</ele>
        <time>2015-01-10T13:17:56Z</time>
      </trkpt>
      <trkpt lat="42.54767" lon="0.59271">
        <ele>2316.91</ele>
        <time>2015-01-10T13:18:08Z</time>
      </trkpt>
      <trkpt lat="42.5477" lon="0.59269">
        <ele>2316.43</ele>
        <time>2015-01-10T13:18:11Z</time>
      </trkpt>
      <trkpt lat="42.54777" lon="0.59265">
        <ele>2314.99</ele>
        <time>2015-01-10T13:18:23Z</time>
      </trkpt>
      <trkpt lat="42.54786" lon="0.59262">
        <ele>2312.59</ele>
        <time>2015-01-10T13:18:35Z</time>
      </trkpt>
      <trkpt lat="42.54796" lon="0.59257">
        <ele>2311.63</ele>
        <time>2015-01-10T13:18:48Z</time>
      </trkpt>
      <trkpt lat="42.54801" lon="0.59249">
        <ele>2311.63</ele>
        <time>2015-01-10T13:19:00Z</time>
      </trkpt>
      <trkpt lat="42.54807" lon="0.59244">
        <ele>2312.59</ele>
        <time>2015-01-10T13:19:13Z</time>
      </trkpt>
      <trkpt lat="42.54815" lon="0.59239">
        <ele>2313.07</ele>
        <time>2015-01-10T13:19:26Z</time>
      </trkpt>
      <trkpt lat="42.54823" lon="0.59235">
        <ele>2313.55</ele>
        <time>2015-01-10T13:19:40Z</time>
      </trkpt>
      <trkpt lat="42.54832" lon="0.59233">
        <ele>2313.55</ele>
        <time>2015-01-10T13:19:56Z</time>
      </trkpt>
      <trkpt lat="42.54838" lon="0.59231">
        <ele>2312.59</ele>
        <time>2015-01-10T13:20:10Z</time>
      </trkpt>
      <trkpt lat="42.54838" lon="0.59231">
        <ele>2311.63</ele>
        <time>2015-01-10T13:20:22Z</time>
      </trkpt>
      <trkpt lat="42.54838" lon="0.59228">
        <ele>2311.63</ele>
        <time>2015-01-10T13:20:36Z</time>
      </trkpt>
      <trkpt lat="42.54844" lon="0.59225">
        <ele>2311.63</ele>
        <time>2015-01-10T13:20:52Z</time>
      </trkpt>
      <trkpt lat="42.54849" lon="0.59226">
        <ele>2310.67</ele>
        <time>2015-01-10T13:21:04Z</time>
      </trkpt>
      <trkpt lat="42.54857" lon="0.59222">
        <ele>2310.67</ele>
        <time>2015-01-10T13:21:17Z</time>
      </trkpt>
      <trkpt lat="42.54864" lon="0.59222">
        <ele>2311.15</ele>
        <time>2015-01-10T13:21:27Z</time>
      </trkpt>
      <trkpt lat="42.54869" lon="0.59222">
        <ele>2311.15</ele>
        <time>2015-01-10T13:21:32Z</time>
      </trkpt>
      <trkpt lat="42.54877" lon="0.5922">
        <ele>2312.11</ele>
        <time>2015-01-10T13:21:45Z</time>
      </trkpt>
      <trkpt lat="42.54881" lon="0.59219">
        <ele>2312.59</ele>
        <time>2015-01-10T13:21:51Z</time>
      </trkpt>
      <trkpt lat="42.54886" lon="0.59219">
        <ele>2312.59</ele>
        <time>2015-01-10T13:21:57Z</time>
      </trkpt>
      <trkpt lat="42.5489" lon="0.59219">
        <ele>2312.59</ele>
        <time>2015-01-10T13:22:03Z</time>
      </trkpt>
      <trkpt lat="42.549" lon="0.59221">
        <ele>2313.55</ele>
        <time>2015-01-10T13:22:16Z</time>
      </trkpt>
      <trkpt lat="42.54908" lon="0.59221">
        <ele>2314.51</ele>
        <time>2015-01-10T13:22:27Z</time>
      </trkpt>
      <trkpt lat="42.54916" lon="0.59219">
        <ele>2314.99</ele>
        <time>2015-01-10T13:22:38Z</time>
      </trkpt>
      <trkpt lat="42.54925" lon="0.59217">
        <ele>2314.99</ele>
        <time>2015-01-10T13:22:50Z</time>
      </trkpt>
      <trkpt lat="42.54928" lon="0.59216">
        <ele>2314.99</ele>
        <time>2015-01-10T13:22:53Z</time>
      </trkpt>
      <trkpt lat="42.54931" lon="0.59215">
        <ele>2315.47</ele>
        <time>2015-01-10T13:22:57Z</time>
      </trkpt>
      <trkpt lat="42.5494" lon="0.59214">
        <ele>2315.47</ele>
        <time>2015-01-10T13:23:09Z</time>
      </trkpt>
      <trkpt lat="42.54947" lon="0.59214">
        <ele>2316.43</ele>
        <time>2015-01-10T13:23:22Z</time>
      </trkpt>
      <trkpt lat="42.54953" lon="0.59215">
        <ele>2316.91</ele>
        <time>2015-01-10T13:23:31Z</time>
      </trkpt>
      <trkpt lat="42.5496" lon="0.59214">
        <ele>2318.36</ele>
        <time>2015-01-10T13:23:42Z</time>
      </trkpt>
      <trkpt lat="42.54967" lon="0.59216">
        <ele>2319.32</ele>
        <time>2015-01-10T13:23:52Z</time>
      </trkpt>
      <trkpt lat="42.54972" lon="0.59215">
        <ele>2319.8</ele>
        <time>2015-01-10T13:24:00Z</time>
      </trkpt>
      <trkpt lat="42.54979" lon="0.59214">
        <ele>2319.32</ele>
        <time>2015-01-10T13:24:10Z</time>
      </trkpt>
      <trkpt lat="42.54983" lon="0.59212">
        <ele>2318.84</ele>
        <time>2015-01-10T13:24:14Z</time>
      </trkpt>
      <trkpt lat="42.54991" lon="0.59209">
        <ele>2318.36</ele>
        <time>2015-01-10T13:24:25Z</time>
      </trkpt>
      <trkpt lat="42.55004" lon="0.59208">
        <ele>2317.4</ele>
        <time>2015-01-10T13:24:39Z</time>
      </trkpt>
      <trkpt lat="42.5501" lon="0.59209">
        <ele>2316.91</ele>
        <time>2015-01-10T13:24:47Z</time>
      </trkpt>
      <trkpt lat="42.55019" lon="0.59209">
        <ele>2315.47</ele>
        <time>2015-01-10T13:24:58Z</time>
      </trkpt>
      <trkpt lat="42.55024" lon="0.5921">
        <ele>2314.51</ele>
        <time>2015-01-10T13:25:09Z</time>
      </trkpt>
      <trkpt lat="42.5503" lon="0.59208">
        <ele>2314.51</ele>
        <time>2015-01-10T13:25:22Z</time>
      </trkpt>
      <trkpt lat="42.55038" lon="0.59207">
        <ele>2314.03</ele>
        <time>2015-01-10T13:25:34Z</time>
      </trkpt>
      <trkpt lat="42.55045" lon="0.59206">
        <ele>2314.03</ele>
        <time>2015-01-10T13:25:44Z</time>
      </trkpt>
      <trkpt lat="42.55049" lon="0.59206">
        <ele>2314.03</ele>
        <time>2015-01-10T13:25:48Z</time>
      </trkpt>
      <trkpt lat="42.55057" lon="0.59206">
        <ele>2313.55</ele>
        <time>2015-01-10T13:26:01Z</time>
      </trkpt>
      <trkpt lat="42.55066" lon="0.59208">
        <ele>2312.59</ele>
        <time>2015-01-10T13:26:15Z</time>
      </trkpt>
      <trkpt lat="42.55074" lon="0.59213">
        <ele>2312.59</ele>
        <time>2015-01-10T13:26:27Z</time>
      </trkpt>
      <trkpt lat="42.55082" lon="0.59214">
        <ele>2312.11</ele>
        <time>2015-01-10T13:26:42Z</time>
      </trkpt>
      <trkpt lat="42.5509" lon="0.59214">
        <ele>2313.07</ele>
        <time>2015-01-10T13:26:55Z</time>
      </trkpt>
      <trkpt lat="42.55093" lon="0.59214">
        <ele>2313.55</ele>
        <time>2015-01-10T13:27:13Z</time>
      </trkpt>
      <trkpt lat="42.55097" lon="0.59212">
        <ele>2314.99</ele>
        <time>2015-01-10T13:27:26Z</time>
      </trkpt>
      <trkpt lat="42.55103" lon="0.59208">
        <ele>2316.91</ele>
        <time>2015-01-10T13:27:37Z</time>
      </trkpt>
      <trkpt lat="42.5511" lon="0.59211">
        <ele>2317.4</ele>
        <time>2015-01-10T13:27:49Z</time>
      </trkpt>
      <trkpt lat="42.55116" lon="0.59215">
        <ele>2317.4</ele>
        <time>2015-01-10T13:28:02Z</time>
      </trkpt>
      <trkpt lat="42.55122" lon="0.59215">
        <ele>2318.36</ele>
        <time>2015-01-10T13:28:15Z</time>
      </trkpt>
      <trkpt lat="42.5513" lon="0.59217">
        <ele>2319.8</ele>
        <time>2015-01-10T13:28:30Z</time>
      </trkpt>
      <trkpt lat="42.55137" lon="0.59218">
        <ele>2321.24</ele>
        <time>2015-01-10T13:28:41Z</time>
      </trkpt>
      <trkpt lat="42.55143" lon="0.59218">
        <ele>2322.2</ele>
        <time>2015-01-10T13:28:54Z</time>
      </trkpt>
      <trkpt lat="42.5515" lon="0.5922">
        <ele>2322.68</ele>
        <time>2015-01-10T13:29:03Z</time>
      </trkpt>
      <trkpt lat="42.55156" lon="0.59219">
        <ele>2323.64</ele>
        <time>2015-01-10T13:29:15Z</time>
      </trkpt>
      <trkpt lat="42.55164" lon="0.59221">
        <ele>2324.61</ele>
        <time>2015-01-10T13:29:27Z</time>
      </trkpt>
      <trkpt lat="42.55167" lon="0.59221">
        <ele>2325.57</ele>
        <time>2015-01-10T13:29:38Z</time>
      </trkpt>
      <trkpt lat="42.55175" lon="0.59226">
        <ele>2326.05</ele>
        <time>2015-01-10T13:29:53Z</time>
      </trkpt>
      <trkpt lat="42.55184" lon="0.59227">
        <ele>2327.01</ele>
        <time>2015-01-10T13:30:06Z</time>
      </trkpt>
      <trkpt lat="42.55189" lon="0.59229">
        <ele>2327.01</ele>
        <time>2015-01-10T13:30:19Z</time>
      </trkpt>
      <trkpt lat="42.5519" lon="0.59231">
        <ele>2326.05</ele>
        <time>2015-01-10T13:30:31Z</time>
      </trkpt>
      <trkpt lat="42.55196" lon="0.59231">
        <ele>2325.57</ele>
        <time>2015-01-10T13:30:45Z</time>
      </trkpt>
      <trkpt lat="42.55199" lon="0.59231">
        <ele>2325.57</ele>
        <time>2015-01-10T13:30:49Z</time>
      </trkpt>
      <trkpt lat="42.55208" lon="0.59229">
        <ele>2325.57</ele>
        <time>2015-01-10T13:31:01Z</time>
      </trkpt>
      <trkpt lat="42.55213" lon="0.59226">
        <ele>2325.57</ele>
        <time>2015-01-10T13:31:14Z</time>
      </trkpt>
      <trkpt lat="42.55214" lon="0.59224">
        <ele>2327.01</ele>
        <time>2015-01-10T13:31:18Z</time>
      </trkpt>
      <trkpt lat="42.55221" lon="0.59218">
        <ele>2324.12</ele>
        <time>2015-01-10T13:31:31Z</time>
      </trkpt>
      <trkpt lat="42.55223" lon="0.59214">
        <ele>2324.12</ele>
        <time>2015-01-10T13:31:35Z</time>
      </trkpt>
      <trkpt lat="42.55236" lon="0.59209">
        <ele>2322.2</ele>
        <time>2015-01-10T13:31:50Z</time>
      </trkpt>
      <trkpt lat="42.55243" lon="0.59205">
        <ele>2320.76</ele>
        <time>2015-01-10T13:32:01Z</time>
      </trkpt>
      <trkpt lat="42.55248" lon="0.59201">
        <ele>2318.84</ele>
        <time>2015-01-10T13:32:12Z</time>
      </trkpt>
      <trkpt lat="42.55249" lon="0.59189">
        <ele>2317.4</ele>
        <time>2015-01-10T13:32:20Z</time>
      </trkpt>
      <trkpt lat="42.5525" lon="0.59167">
        <ele>2315.95</ele>
        <time>2015-01-10T13:32:35Z</time>
      </trkpt>
      <trkpt lat="42.55251" lon="0.59163">
        <ele>2315.95</ele>
        <time>2015-01-10T13:32:38Z</time>
      </trkpt>
      <trkpt lat="42.55251" lon="0.5916">
        <ele>2315.95</ele>
        <time>2015-01-10T13:32:40Z</time>
      </trkpt>
      <trkpt lat="42.55252" lon="0.59157">
        <ele>2315.95</ele>
        <time>2015-01-10T13:32:42Z</time>
      </trkpt>
      <trkpt lat="42.55253" lon="0.59152">
        <ele>2315.95</ele>
        <time>2015-01-10T13:32:46Z</time>
      </trkpt>
      <trkpt lat="42.55258" lon="0.59132">
        <ele>2314.99</ele>
        <time>2015-01-10T13:33:00Z</time>
      </trkpt>
      <trkpt lat="42.5526" lon="0.59128">
        <ele>2314.51</ele>
        <time>2015-01-10T13:33:04Z</time>
      </trkpt>
      <trkpt lat="42.55264" lon="0.59118">
        <ele>2315.47</ele>
        <time>2015-01-10T13:33:14Z</time>
      </trkpt>
      <trkpt lat="42.55265" lon="0.59113">
        <ele>2314.99</ele>
        <time>2015-01-10T13:33:18Z</time>
      </trkpt>
      <trkpt lat="42.55266" lon="0.5911">
        <ele>2314.51</ele>
        <time>2015-01-10T13:33:32Z</time>
      </trkpt>
      <trkpt lat="42.5527" lon="0.591">
        <ele>2313.07</ele>
        <time>2015-01-10T13:33:47Z</time>
      </trkpt>
      <trkpt lat="42.55271" lon="0.59097">
        <ele>2313.55</ele>
        <time>2015-01-10T13:33:59Z</time>
      </trkpt>
      <trkpt lat="42.55273" lon="0.59092">
        <ele>2312.59</ele>
        <time>2015-01-10T13:34:11Z</time>
      </trkpt>
      <trkpt lat="42.55274" lon="0.59095">
        <ele>2312.59</ele>
        <time>2015-01-10T13:34:24Z</time>
      </trkpt>
      <trkpt lat="42.55274" lon="0.59095">
        <ele>2311.63</ele>
        <time>2015-01-10T13:34:46Z</time>
      </trkpt>
      <trkpt lat="42.55275" lon="0.59095">
        <ele>2311.63</ele>
        <time>2015-01-10T13:34:55Z</time>
      </trkpt>
      <trkpt lat="42.55275" lon="0.59094">
        <ele>2311.15</ele>
        <time>2015-01-10T13:35:25Z</time>
      </trkpt>
      <trkpt lat="42.55274" lon="0.59094">
        <ele>2312.11</ele>
        <time>2015-01-10T13:35:37Z</time>
      </trkpt>
      <trkpt lat="42.55275" lon="0.59092">
        <ele>2312.11</ele>
        <time>2015-01-10T13:35:50Z</time>
      </trkpt>
      <trkpt lat="42.55276" lon="0.59096">
        <ele>2310.67</ele>
        <time>2015-01-10T13:36:04Z</time>
      </trkpt>
      <trkpt lat="42.55274" lon="0.59093">
        <ele>2311.15</ele>
        <time>2015-01-10T13:36:25Z</time>
      </trkpt>
      <trkpt lat="42.55275" lon="0.59094">
        <ele>2310.67</ele>
        <time>2015-01-10T13:36:55Z</time>
      </trkpt>
      <trkpt lat="42.55275" lon="0.59096">
        <ele>2310.19</ele>
        <time>2015-01-10T13:37:10Z</time>
      </trkpt>
      <trkpt lat="42.55275" lon="0.59095">
        <ele>2310.67</ele>
        <time>2015-01-10T13:37:25Z</time>
      </trkpt>
      <trkpt lat="42.55275" lon="0.59095">
        <ele>2310.67</ele>
        <time>2015-01-10T13:37:55Z</time>
      </trkpt>
      <trkpt lat="42.55274" lon="0.59095">
        <ele>2310.67</ele>
        <time>2015-01-10T13:38:21Z</time>
      </trkpt>
      <trkpt lat="42.55275" lon="0.59095">
        <ele>2311.15</ele>
        <time>2015-01-10T13:38:41Z</time>
      </trkpt>
      <trkpt lat="42.55275" lon="0.59093">
        <ele>2311.15</ele>
        <time>2015-01-10T13:39:05Z</time>
      </trkpt>
      <trkpt lat="42.55276" lon="0.59091">
        <ele>2310.67</ele>
        <time>2015-01-10T13:39:24Z</time>
      </trkpt>
      <trkpt lat="42.5528" lon="0.59077">
        <ele>2308.74</ele>
        <time>2015-01-10T13:39:40Z</time>
      </trkpt>
      <trkpt lat="42.55287" lon="0.59063">
        <ele>2305.86</ele>
        <time>2015-01-10T13:39:54Z</time>
      </trkpt>
      <trkpt lat="42.55293" lon="0.59048">
        <ele>2302.98</ele>
        <time>2015-01-10T13:40:06Z</time>
      </trkpt>
      <trkpt lat="42.55298" lon="0.59028">
        <ele>2301.05</ele>
        <time>2015-01-10T13:40:21Z</time>
      </trkpt>
      <trkpt lat="42.55303" lon="0.59011">
        <ele>2299.13</ele>
        <time>2015-01-10T13:40:36Z</time>
      </trkpt>
      <trkpt lat="42.55307" lon="0.58992">
        <ele>2297.21</ele>
        <time>2015-01-10T13:40:50Z</time>
      </trkpt>
      <trkpt lat="42.55309" lon="0.58976">
        <ele>2296.25</ele>
        <time>2015-01-10T13:41:02Z</time>
      </trkpt>
      <trkpt lat="42.55308" lon="0.58971">
        <ele>2296.25</ele>
        <time>2015-01-10T13:41:06Z</time>
      </trkpt>
      <trkpt lat="42.55314" lon="0.58952">
        <ele>2294.32</ele>
        <time>2015-01-10T13:41:21Z</time>
      </trkpt>
      <trkpt lat="42.55315" lon="0.58946">
        <ele>2293.84</ele>
        <time>2015-01-10T13:41:26Z</time>
      </trkpt>
      <trkpt lat="42.55322" lon="0.58929">
        <ele>2291.92</ele>
        <time>2015-01-10T13:41:40Z</time>
      </trkpt>
      <trkpt lat="42.55329" lon="0.58916">
        <ele>2289.52</ele>
        <time>2015-01-10T13:41:53Z</time>
      </trkpt>
      <trkpt lat="42.55332" lon="0.58918">
        <ele>2289.04</ele>
        <time>2015-01-10T13:42:07Z</time>
      </trkpt>
      <trkpt lat="42.55332" lon="0.58916">
        <ele>2289.04</ele>
        <time>2015-01-10T13:42:27Z</time>
      </trkpt>
      <trkpt lat="42.55333" lon="0.58919">
        <ele>2289.04</ele>
        <time>2015-01-10T13:42:40Z</time>
      </trkpt>
      <trkpt lat="42.55333" lon="0.5892">
        <ele>2289.04</ele>
        <time>2015-01-10T13:43:02Z</time>
      </trkpt>
      <trkpt lat="42.55331" lon="0.58918">
        <ele>2288.08</ele>
        <time>2015-01-10T13:43:18Z</time>
      </trkpt>
      <trkpt lat="42.55329" lon="0.58917">
        <ele>2287.59</ele>
        <time>2015-01-10T13:43:46Z</time>
      </trkpt>
      <trkpt lat="42.5533" lon="0.58917">
        <ele>2287.59</ele>
        <time>2015-01-10T13:44:15Z</time>
      </trkpt>
      <trkpt lat="42.5533" lon="0.58917">
        <ele>2287.59</ele>
        <time>2015-01-10T13:44:49Z</time>
      </trkpt>
      <trkpt lat="42.55329" lon="0.58917">
        <ele>2287.11</ele>
        <time>2015-01-10T13:45:17Z</time>
      </trkpt>
      <trkpt lat="42.5533" lon="0.58917">
        <ele>2287.11</ele>
        <time>2015-01-10T13:45:31Z</time>
      </trkpt>
      <trkpt lat="42.55332" lon="0.58917">
        <ele>2287.11</ele>
        <time>2015-01-10T13:45:46Z</time>
      </trkpt>
      <trkpt lat="42.55333" lon="0.58918">
        <ele>2287.11</ele>
        <time>2015-01-10T13:46:15Z</time>
      </trkpt>
      <trkpt lat="42.55333" lon="0.58919">
        <ele>2287.11</ele>
        <time>2015-01-10T13:46:47Z</time>
      </trkpt>
      <trkpt lat="42.55333" lon="0.5892">
        <ele>2286.63</ele>
        <time>2015-01-10T13:47:23Z</time>
      </trkpt>
      <trkpt lat="42.55332" lon="0.58917">
        <ele>2287.59</ele>
        <time>2015-01-10T13:47:43Z</time>
      </trkpt>
      <trkpt lat="42.55332" lon="0.58918">
        <ele>2287.59</ele>
        <time>2015-01-10T13:48:01Z</time>
      </trkpt>
      <trkpt lat="42.55333" lon="0.58917">
        <ele>2287.11</ele>
        <time>2015-01-10T13:48:10Z</time>
      </trkpt>
      <trkpt lat="42.55339" lon="0.58901">
        <ele>2284.71</ele>
        <time>2015-01-10T13:48:27Z</time>
      </trkpt>
      <trkpt lat="42.55339" lon="0.58896">
        <ele>2284.71</ele>
        <time>2015-01-10T13:48:31Z</time>
      </trkpt>
      <trkpt lat="42.55333" lon="0.58881">
        <ele>2282.31</ele>
        <time>2015-01-10T13:48:45Z</time>
      </trkpt>
      <trkpt lat="42.55331" lon="0.58878">
        <ele>2281.83</ele>
        <time>2015-01-10T13:48:48Z</time>
      </trkpt>
      <trkpt lat="42.55329" lon="0.58876">
        <ele>2281.35</ele>
        <time>2015-01-10T13:48:52Z</time>
      </trkpt>
      <trkpt lat="42.55325" lon="0.58871">
        <ele>2280.38</ele>
        <time>2015-01-10T13:48:57Z</time>
      </trkpt>
      <trkpt lat="42.55314" lon="0.58853">
        <ele>2277.02</ele>
        <time>2015-01-10T13:49:13Z</time>
      </trkpt>
      <trkpt lat="42.55302" lon="0.58834">
        <ele>2274.14</ele>
        <time>2015-01-10T13:49:30Z</time>
      </trkpt>
      <trkpt lat="42.55291" lon="0.58818">
        <ele>2271.25</ele>
        <time>2015-01-10T13:49:45Z</time>
      </trkpt>
      <trkpt lat="42.5529" lon="0.58816">
        <ele>2270.77</ele>
        <time>2015-01-10T13:49:47Z</time>
      </trkpt>
      <trkpt lat="42.55279" lon="0.58797">
        <ele>2267.41</ele>
        <time>2015-01-10T13:50:02Z</time>
      </trkpt>
      <trkpt lat="42.55266" lon="0.58781">
        <ele>2264.52</ele>
        <time>2015-01-10T13:50:19Z</time>
      </trkpt>
      <trkpt lat="42.55265" lon="0.58781">
        <ele>2264.04</ele>
        <time>2015-01-10T13:50:22Z</time>
      </trkpt>
      <trkpt lat="42.55259" lon="0.58774">
        <ele>2263.08</ele>
        <time>2015-01-10T13:50:28Z</time>
      </trkpt>
      <trkpt lat="42.55233" lon="0.58757">
        <ele>2261.16</ele>
        <time>2015-01-10T13:50:50Z</time>
      </trkpt>
      <trkpt lat="42.55214" lon="0.58743">
        <ele>2260.2</ele>
        <time>2015-01-10T13:51:08Z</time>
      </trkpt>
      <trkpt lat="42.55203" lon="0.58729">
        <ele>2259.72</ele>
        <time>2015-01-10T13:51:23Z</time>
      </trkpt>
      <trkpt lat="42.55191" lon="0.58711">
        <ele>2257.79</ele>
        <time>2015-01-10T13:51:38Z</time>
      </trkpt>
      <trkpt lat="42.55181" lon="0.58688">
        <ele>2257.31</ele>
        <time>2015-01-10T13:51:55Z</time>
      </trkpt>
      <trkpt lat="42.55178" lon="0.58657">
        <ele>2254.43</ele>
        <time>2015-01-10T13:52:13Z</time>
      </trkpt>
      <trkpt lat="42.55175" lon="0.58624">
        <ele>2252.99</ele>
        <time>2015-01-10T13:52:33Z</time>
      </trkpt>
      <trkpt lat="42.55178" lon="0.58589">
        <ele>2250.58</ele>
        <time>2015-01-10T13:52:53Z</time>
      </trkpt>
      <trkpt lat="42.55184" lon="0.58566">
        <ele>2249.62</ele>
        <time>2015-01-10T13:53:08Z</time>
      </trkpt>
      <trkpt lat="42.55184" lon="0.58565">
        <ele>2249.62</ele>
        <time>2015-01-10T13:53:09Z</time>
      </trkpt>
      <trkpt lat="42.55186" lon="0.58559">
        <ele>2249.14</ele>
        <time>2015-01-10T13:53:13Z</time>
      </trkpt>
      <trkpt lat="42.55193" lon="0.58544">
        <ele>2247.7</ele>
        <time>2015-01-10T13:53:23Z</time>
      </trkpt>
      <trkpt lat="42.55199" lon="0.58522">
        <ele>2245.78</ele>
        <time>2015-01-10T13:53:38Z</time>
      </trkpt>
      <trkpt lat="42.552" lon="0.58497">
        <ele>2243.37</ele>
        <time>2015-01-10T13:53:54Z</time>
      </trkpt>
      <trkpt lat="42.55204" lon="0.58476">
        <ele>2241.45</ele>
        <time>2015-01-10T13:54:08Z</time>
      </trkpt>
      <trkpt lat="42.55207" lon="0.58456">
        <ele>2240.49</ele>
        <time>2015-01-10T13:54:20Z</time>
      </trkpt>
      <trkpt lat="42.55206" lon="0.58427">
        <ele>2239.05</ele>
        <time>2015-01-10T13:54:40Z</time>
      </trkpt>
      <trkpt lat="42.55206" lon="0.58412">
        <ele>2237.13</ele>
        <time>2015-01-10T13:54:50Z</time>
      </trkpt>
      <trkpt lat="42.5521" lon="0.58388">
        <ele>2233.76</ele>
        <time>2015-01-10T13:55:05Z</time>
      </trkpt>
      <trkpt lat="42.55213" lon="0.58373">
        <ele>2230.88</ele>
        <time>2015-01-10T13:55:17Z</time>
      </trkpt>
      <trkpt lat="42.55213" lon="0.5837">
        <ele>2229.92</ele>
        <time>2015-01-10T13:55:20Z</time>
      </trkpt>
      <trkpt lat="42.55218" lon="0.58356">
        <ele>2226.07</ele>
        <time>2015-01-10T13:55:32Z</time>
      </trkpt>
      <trkpt lat="42.55221" lon="0.58344">
        <ele>2222.71</ele>
        <time>2015-01-10T13:55:41Z</time>
      </trkpt>
      <trkpt lat="42.55225" lon="0.58338">
        <ele>2220.78</ele>
        <time>2015-01-10T13:55:47Z</time>
      </trkpt>
      <trkpt lat="42.55232" lon="0.58329">
        <ele>2217.9</ele>
        <time>2015-01-10T13:55:58Z</time>
      </trkpt>
      <trkpt lat="42.55238" lon="0.58317">
        <ele>2215.01</ele>
        <time>2015-01-10T13:56:09Z</time>
      </trkpt>
      <trkpt lat="42.55243" lon="0.58309">
        <ele>2213.09</ele>
        <time>2015-01-10T13:56:16Z</time>
      </trkpt>
      <trkpt lat="42.55244" lon="0.58305">
        <ele>2212.13</ele>
        <time>2015-01-10T13:56:18Z</time>
      </trkpt>
      <trkpt lat="42.55249" lon="0.58299">
        <ele>2210.69</ele>
        <time>2015-01-10T13:56:24Z</time>
      </trkpt>
      <trkpt lat="42.55258" lon="0.58283">
        <ele>2206.84</ele>
        <time>2015-01-10T13:56:37Z</time>
      </trkpt>
      <trkpt lat="42.55272" lon="0.58264">
        <ele>2203.48</ele>
        <time>2015-01-10T13:56:54Z</time>
      </trkpt>
      <trkpt lat="42.55283" lon="0.58249">
        <ele>2201.56</ele>
        <time>2015-01-10T13:57:10Z</time>
      </trkpt>
      <trkpt lat="42.55285" lon="0.58247">
        <ele>2201.56</ele>
        <time>2015-01-10T13:57:12Z</time>
      </trkpt>
      <trkpt lat="42.55289" lon="0.5824">
        <ele>2201.56</ele>
        <time>2015-01-10T13:57:20Z</time>
      </trkpt>
      <trkpt lat="42.55291" lon="0.58238">
        <ele>2201.08</ele>
        <time>2015-01-10T13:57:23Z</time>
      </trkpt>
      <trkpt lat="42.55292" lon="0.58236">
        <ele>2200.59</ele>
        <time>2015-01-10T13:57:25Z</time>
      </trkpt>
      <trkpt lat="42.55298" lon="0.58226">
        <ele>2200.11</ele>
        <time>2015-01-10T13:57:37Z</time>
      </trkpt>
      <trkpt lat="42.55307" lon="0.58214">
        <ele>2199.15</ele>
        <time>2015-01-10T13:57:49Z</time>
      </trkpt>
      <trkpt lat="42.55312" lon="0.58207">
        <ele>2198.67</ele>
        <time>2015-01-10T13:57:56Z</time>
      </trkpt>
      <trkpt lat="42.55313" lon="0.58203">
        <ele>2198.67</ele>
        <time>2015-01-10T13:57:59Z</time>
      </trkpt>
      <trkpt lat="42.55319" lon="0.58187">
        <ele>2197.23</ele>
        <time>2015-01-10T13:58:13Z</time>
      </trkpt>
      <trkpt lat="42.55328" lon="0.58173">
        <ele>2194.83</ele>
        <time>2015-01-10T13:58:27Z</time>
      </trkpt>
      <trkpt lat="42.55334" lon="0.58164">
        <ele>2193.39</ele>
        <time>2015-01-10T13:58:36Z</time>
      </trkpt>
      <trkpt lat="42.55334" lon="0.58163">
        <ele>2193.39</ele>
        <time>2015-01-10T13:58:37Z</time>
      </trkpt>
      <trkpt lat="42.55339" lon="0.58159">
        <ele>2192.42</ele>
        <time>2015-01-10T13:58:42Z</time>
      </trkpt>
      <trkpt lat="42.55341" lon="0.58153">
        <ele>2191.46</ele>
        <time>2015-01-10T13:58:48Z</time>
      </trkpt>
      <trkpt lat="42.55343" lon="0.58149">
        <ele>2190.98</ele>
        <time>2015-01-10T13:58:52Z</time>
      </trkpt>
      <trkpt lat="42.55348" lon="0.58137">
        <ele>2188.58</ele>
        <time>2015-01-10T13:59:04Z</time>
      </trkpt>
      <trkpt lat="42.55351" lon="0.58124">
        <ele>2187.14</ele>
        <time>2015-01-10T13:59:15Z</time>
      </trkpt>
      <trkpt lat="42.55352" lon="0.58113">
        <ele>2186.18</ele>
        <time>2015-01-10T13:59:24Z</time>
      </trkpt>
      <trkpt lat="42.55353" lon="0.58111">
        <ele>2185.69</ele>
        <time>2015-01-10T13:59:26Z</time>
      </trkpt>
      <trkpt lat="42.55355" lon="0.58092">
        <ele>2183.77</ele>
        <time>2015-01-10T13:59:40Z</time>
      </trkpt>
      <trkpt lat="42.55357" lon="0.58078">
        <ele>2182.81</ele>
        <time>2015-01-10T13:59:52Z</time>
      </trkpt>
      <trkpt lat="42.55359" lon="0.58071">
        <ele>2182.33</ele>
        <time>2015-01-10T13:59:57Z</time>
      </trkpt>
      <trkpt lat="42.5536" lon="0.58069">
        <ele>2181.85</ele>
        <time>2015-01-10T13:59:59Z</time>
      </trkpt>
      <trkpt lat="42.55363" lon="0.58058">
        <ele>2180.89</ele>
        <time>2015-01-10T14:00:09Z</time>
      </trkpt>
      <trkpt lat="42.55364" lon="0.58051">
        <ele>2180.41</ele>
        <time>2015-01-10T14:00:14Z</time>
      </trkpt>
      <trkpt lat="42.55372" lon="0.58039">
        <ele>2178.97</ele>
        <time>2015-01-10T14:00:26Z</time>
      </trkpt>
      <trkpt lat="42.5538" lon="0.58026">
        <ele>2177.04</ele>
        <time>2015-01-10T14:00:38Z</time>
      </trkpt>
      <trkpt lat="42.55385" lon="0.58017">
        <ele>2175.6</ele>
        <time>2015-01-10T14:00:49Z</time>
      </trkpt>
      <trkpt lat="42.5539" lon="0.58007">
        <ele>2174.16</ele>
        <time>2015-01-10T14:01:00Z</time>
      </trkpt>
      <trkpt lat="42.55398" lon="0.57994">
        <ele>2171.76</ele>
        <time>2015-01-10T14:01:13Z</time>
      </trkpt>
      <trkpt lat="42.55402" lon="0.57988">
        <ele>2171.27</ele>
        <time>2015-01-10T14:01:19Z</time>
      </trkpt>
      <trkpt lat="42.5541" lon="0.57973">
        <ele>2169.35</ele>
        <time>2015-01-10T14:01:33Z</time>
      </trkpt>
      <trkpt lat="42.55416" lon="0.57964">
        <ele>2167.43</ele>
        <time>2015-01-10T14:01:44Z</time>
      </trkpt>
      <trkpt lat="42.55424" lon="0.57951">
        <ele>2165.51</ele>
        <time>2015-01-10T14:01:56Z</time>
      </trkpt>
      <trkpt lat="42.55431" lon="0.57942">
        <ele>2162.62</ele>
        <time>2015-01-10T14:02:07Z</time>
      </trkpt>
      <trkpt lat="42.55434" lon="0.57933">
        <ele>2161.66</ele>
        <time>2015-01-10T14:02:18Z</time>
      </trkpt>
      <trkpt lat="42.55443" lon="0.57924">
        <ele>2158.3</ele>
        <time>2015-01-10T14:02:31Z</time>
      </trkpt>
      <trkpt lat="42.5545" lon="0.57915">
        <ele>2155.89</ele>
        <time>2015-01-10T14:02:41Z</time>
      </trkpt>
      <trkpt lat="42.55455" lon="0.57907">
        <ele>2153.49</ele>
        <time>2015-01-10T14:02:55Z</time>
      </trkpt>
      <trkpt lat="42.55462" lon="0.57909">
        <ele>2152.53</ele>
        <time>2015-01-10T14:03:06Z</time>
      </trkpt>
      <trkpt lat="42.55466" lon="0.57909">
        <ele>2151.09</ele>
        <time>2015-01-10T14:03:17Z</time>
      </trkpt>
      <trkpt lat="42.55471" lon="0.57908">
        <ele>2148.68</ele>
        <time>2015-01-10T14:03:29Z</time>
      </trkpt>
      <trkpt lat="42.55475" lon="0.57907">
        <ele>2146.76</ele>
        <time>2015-01-10T14:03:40Z</time>
      </trkpt>
      <trkpt lat="42.55477" lon="0.57909">
        <ele>2146.28</ele>
        <time>2015-01-10T14:03:49Z</time>
      </trkpt>
      <trkpt lat="42.55483" lon="0.57904">
        <ele>2144.36</ele>
        <time>2015-01-10T14:04:00Z</time>
      </trkpt>
      <trkpt lat="42.55489" lon="0.579">
        <ele>2141.95</ele>
        <time>2015-01-10T14:04:09Z</time>
      </trkpt>
      <trkpt lat="42.55495" lon="0.579">
        <ele>2140.03</ele>
        <time>2015-01-10T14:04:18Z</time>
      </trkpt>
      <trkpt lat="42.55502" lon="0.57891">
        <ele>2136.67</ele>
        <time>2015-01-10T14:04:29Z</time>
      </trkpt>
      <trkpt lat="42.55507" lon="0.57881">
        <ele>2133.78</ele>
        <time>2015-01-10T14:04:41Z</time>
      </trkpt>
      <trkpt lat="42.55511" lon="0.57873">
        <ele>2131.86</ele>
        <time>2015-01-10T14:04:51Z</time>
      </trkpt>
      <trkpt lat="42.55516" lon="0.57868">
        <ele>2130.42</ele>
        <time>2015-01-10T14:05:01Z</time>
      </trkpt>
      <trkpt lat="42.55521" lon="0.57866">
        <ele>2128.5</ele>
        <time>2015-01-10T14:05:14Z</time>
      </trkpt>
      <trkpt lat="42.55527" lon="0.57863">
        <ele>2126.09</ele>
        <time>2015-01-10T14:05:26Z</time>
      </trkpt>
      <trkpt lat="42.55532" lon="0.57857">
        <ele>2125.13</ele>
        <time>2015-01-10T14:05:39Z</time>
      </trkpt>
      <trkpt lat="42.55534" lon="0.57853">
        <ele>2124.17</ele>
        <time>2015-01-10T14:05:46Z</time>
      </trkpt>
      <trkpt lat="42.55534" lon="0.5785">
        <ele>2123.69</ele>
        <time>2015-01-10T14:05:49Z</time>
      </trkpt>
      <trkpt lat="42.55541" lon="0.57839">
        <ele>2121.29</ele>
        <time>2015-01-10T14:06:02Z</time>
      </trkpt>
      <trkpt lat="42.55541" lon="0.57838">
        <ele>2121.29</ele>
        <time>2015-01-10T14:06:03Z</time>
      </trkpt>
      <trkpt lat="42.55548" lon="0.57819">
        <ele>2117.92</ele>
        <time>2015-01-10T14:06:19Z</time>
      </trkpt>
      <trkpt lat="42.5555" lon="0.57809">
        <ele>2116</ele>
        <time>2015-01-10T14:06:28Z</time>
      </trkpt>
      <trkpt lat="42.5555" lon="0.57806">
        <ele>2115.52</ele>
        <time>2015-01-10T14:06:30Z</time>
      </trkpt>
      <trkpt lat="42.5555" lon="0.57804">
        <ele>2114.56</ele>
        <time>2015-01-10T14:06:32Z</time>
      </trkpt>
      <trkpt lat="42.55555" lon="0.57788">
        <ele>2111.19</ele>
        <time>2015-01-10T14:06:44Z</time>
      </trkpt>
      <trkpt lat="42.55557" lon="0.57782">
        <ele>2110.23</ele>
        <time>2015-01-10T14:06:49Z</time>
      </trkpt>
      <trkpt lat="42.55557" lon="0.5778">
        <ele>2109.27</ele>
        <time>2015-01-10T14:06:51Z</time>
      </trkpt>
      <trkpt lat="42.55558" lon="0.57775">
        <ele>2108.31</ele>
        <time>2015-01-10T14:06:55Z</time>
      </trkpt>
      <trkpt lat="42.55562" lon="0.5776">
        <ele>2105.42</ele>
        <time>2015-01-10T14:07:07Z</time>
      </trkpt>
      <trkpt lat="42.55567" lon="0.57743">
        <ele>2102.06</ele>
        <time>2015-01-10T14:07:20Z</time>
      </trkpt>
      <trkpt lat="42.55571" lon="0.57732">
        <ele>2100.14</ele>
        <time>2015-01-10T14:07:28Z</time>
      </trkpt>
      <trkpt lat="42.55572" lon="0.5773">
        <ele>2100.14</ele>
        <time>2015-01-10T14:07:30Z</time>
      </trkpt>
      <trkpt lat="42.5558" lon="0.57722">
        <ele>2098.7</ele>
        <time>2015-01-10T14:07:39Z</time>
      </trkpt>
      <trkpt lat="42.55582" lon="0.57721">
        <ele>2097.73</ele>
        <time>2015-01-10T14:07:41Z</time>
      </trkpt>
      <trkpt lat="42.5559" lon="0.57713">
        <ele>2094.85</ele>
        <time>2015-01-10T14:07:54Z</time>
      </trkpt>
      <trkpt lat="42.55592" lon="0.57707">
        <ele>2094.37</ele>
        <time>2015-01-10T14:08:01Z</time>
      </trkpt>
      <trkpt lat="42.55599" lon="0.57701">
        <ele>2092.93</ele>
        <time>2015-01-10T14:08:08Z</time>
      </trkpt>
      <trkpt lat="42.55612" lon="0.57693">
        <ele>2089.56</ele>
        <time>2015-01-10T14:08:21Z</time>
      </trkpt>
      <trkpt lat="42.55624" lon="0.57688">
        <ele>2086.68</ele>
        <time>2015-01-10T14:08:33Z</time>
      </trkpt>
      <trkpt lat="42.55637" lon="0.57686">
        <ele>2083.79</ele>
        <time>2015-01-10T14:08:46Z</time>
      </trkpt>
      <trkpt lat="42.5564" lon="0.57687">
        <ele>2082.83</ele>
        <time>2015-01-10T14:08:50Z</time>
      </trkpt>
      <trkpt lat="42.55642" lon="0.57687">
        <ele>2082.35</ele>
        <time>2015-01-10T14:08:52Z</time>
      </trkpt>
      <trkpt lat="42.55652" lon="0.57685">
        <ele>2078.99</ele>
        <time>2015-01-10T14:09:04Z</time>
      </trkpt>
      <trkpt lat="42.55662" lon="0.57686">
        <ele>2075.62</ele>
        <time>2015-01-10T14:09:17Z</time>
      </trkpt>
      <trkpt lat="42.5567" lon="0.57684">
        <ele>2072.74</ele>
        <time>2015-01-10T14:09:27Z</time>
      </trkpt>
      <trkpt lat="42.55671" lon="0.57681">
        <ele>2071.78</ele>
        <time>2015-01-10T14:09:32Z</time>
      </trkpt>
      <trkpt lat="42.55678" lon="0.57677">
        <ele>2069.86</ele>
        <time>2015-01-10T14:09:43Z</time>
      </trkpt>
      <trkpt lat="42.55683" lon="0.57676">
        <ele>2066.49</ele>
        <time>2015-01-10T14:09:52Z</time>
      </trkpt>
      <trkpt lat="42.55687" lon="0.57674">
        <ele>2064.57</ele>
        <time>2015-01-10T14:09:58Z</time>
      </trkpt>
      <trkpt lat="42.55689" lon="0.57673">
        <ele>2064.09</ele>
        <time>2015-01-10T14:10:00Z</time>
      </trkpt>
      <trkpt lat="42.55695" lon="0.57671">
        <ele>2061.68</ele>
        <time>2015-01-10T14:10:07Z</time>
      </trkpt>
      <trkpt lat="42.55705" lon="0.57663">
        <ele>2057.84</ele>
        <time>2015-01-10T14:10:20Z</time>
      </trkpt>
      <trkpt lat="42.55712" lon="0.57651">
        <ele>2055.44</ele>
        <time>2015-01-10T14:10:33Z</time>
      </trkpt>
      <trkpt lat="42.55717" lon="0.57638">
        <ele>2053.51</ele>
        <time>2015-01-10T14:10:45Z</time>
      </trkpt>
      <trkpt lat="42.55721" lon="0.57618">
        <ele>2050.63</ele>
        <time>2015-01-10T14:10:59Z</time>
      </trkpt>
      <trkpt lat="42.55722" lon="0.57611">
        <ele>2049.19</ele>
        <time>2015-01-10T14:11:04Z</time>
      </trkpt>
      <trkpt lat="42.55723" lon="0.57602">
        <ele>2047.26</ele>
        <time>2015-01-10T14:11:11Z</time>
      </trkpt>
      <trkpt lat="42.55725" lon="0.57596">
        <ele>2046.3</ele>
        <time>2015-01-10T14:11:16Z</time>
      </trkpt>
      <trkpt lat="42.55734" lon="0.57585">
        <ele>2042.94</ele>
        <time>2015-01-10T14:11:31Z</time>
      </trkpt>
      <trkpt lat="42.55735" lon="0.57585">
        <ele>2042.46</ele>
        <time>2015-01-10T14:11:32Z</time>
      </trkpt>
      <trkpt lat="42.55738" lon="0.57581">
        <ele>2041.02</ele>
        <time>2015-01-10T14:11:37Z</time>
      </trkpt>
      <trkpt lat="42.55738" lon="0.57578">
        <ele>2041.5</ele>
        <time>2015-01-10T14:11:39Z</time>
      </trkpt>
      <trkpt lat="42.55742" lon="0.57567">
        <ele>2037.65</ele>
        <time>2015-01-10T14:11:47Z</time>
      </trkpt>
      <trkpt lat="42.55743" lon="0.57562">
        <ele>2035.25</ele>
        <time>2015-01-10T14:11:51Z</time>
      </trkpt>
      <trkpt lat="42.55744" lon="0.57556">
        <ele>2036.21</ele>
        <time>2015-01-10T14:11:55Z</time>
      </trkpt>
      <trkpt lat="42.55747" lon="0.57543">
        <ele>2033.33</ele>
        <time>2015-01-10T14:12:06Z</time>
      </trkpt>
      <trkpt lat="42.55747" lon="0.5754">
        <ele>2032.84</ele>
        <time>2015-01-10T14:12:08Z</time>
      </trkpt>
      <trkpt lat="42.55752" lon="0.57521">
        <ele>2029.48</ele>
        <time>2015-01-10T14:12:22Z</time>
      </trkpt>
      <trkpt lat="42.55756" lon="0.57506">
        <ele>2026.6</ele>
        <time>2015-01-10T14:12:33Z</time>
      </trkpt>
      <trkpt lat="42.55766" lon="0.57493">
        <ele>2023.23</ele>
        <time>2015-01-10T14:12:46Z</time>
      </trkpt>
      <trkpt lat="42.55771" lon="0.57481">
        <ele>2020.35</ele>
        <time>2015-01-10T14:12:57Z</time>
      </trkpt>
      <trkpt lat="42.55776" lon="0.57469">
        <ele>2016.98</ele>
        <time>2015-01-10T14:13:08Z</time>
      </trkpt>
      <trkpt lat="42.55779" lon="0.57455">
        <ele>2013.62</ele>
        <time>2015-01-10T14:13:19Z</time>
      </trkpt>
      <trkpt lat="42.55782" lon="0.5745">
        <ele>2012.66</ele>
        <time>2015-01-10T14:13:23Z</time>
      </trkpt>
      <trkpt lat="42.55785" lon="0.57444">
        <ele>2011.7</ele>
        <time>2015-01-10T14:13:28Z</time>
      </trkpt>
      <trkpt lat="42.55792" lon="0.57429">
        <ele>2009.29</ele>
        <time>2015-01-10T14:13:40Z</time>
      </trkpt>
      <trkpt lat="42.55792" lon="0.57427">
        <ele>2007.85</ele>
        <time>2015-01-10T14:13:42Z</time>
      </trkpt>
      <trkpt lat="42.55793" lon="0.57425">
        <ele>2007.37</ele>
        <time>2015-01-10T14:13:44Z</time>
      </trkpt>
      <trkpt lat="42.55797" lon="0.57413">
        <ele>2004.49</ele>
        <time>2015-01-10T14:13:54Z</time>
      </trkpt>
      <trkpt lat="42.55798" lon="0.57405">
        <ele>2002.56</ele>
        <time>2015-01-10T14:14:00Z</time>
      </trkpt>
      <trkpt lat="42.55802" lon="0.5739">
        <ele>1999.2</ele>
        <time>2015-01-10T14:14:11Z</time>
      </trkpt>
      <trkpt lat="42.55806" lon="0.57371">
        <ele>1995.83</ele>
        <time>2015-01-10T14:14:24Z</time>
      </trkpt>
      <trkpt lat="42.55809" lon="0.57362">
        <ele>1994.39</ele>
        <time>2015-01-10T14:14:31Z</time>
      </trkpt>
      <trkpt lat="42.55814" lon="0.57343">
        <ele>1991.03</ele>
        <time>2015-01-10T14:14:45Z</time>
      </trkpt>
      <trkpt lat="42.55816" lon="0.57324">
        <ele>1987.66</ele>
        <time>2015-01-10T14:14:59Z</time>
      </trkpt>
      <trkpt lat="42.55816" lon="0.57316">
        <ele>1986.7</ele>
        <time>2015-01-10T14:15:05Z</time>
      </trkpt>
      <trkpt lat="42.55818" lon="0.57302">
        <ele>1982.86</ele>
        <time>2015-01-10T14:15:17Z</time>
      </trkpt>
      <trkpt lat="42.5582" lon="0.5729">
        <ele>1979.97</ele>
        <time>2015-01-10T14:15:27Z</time>
      </trkpt>
      <trkpt lat="42.55823" lon="0.57278">
        <ele>1976.61</ele>
        <time>2015-01-10T14:15:37Z</time>
      </trkpt>
      <trkpt lat="42.55823" lon="0.57277">
        <ele>1976.61</ele>
        <time>2015-01-10T14:15:38Z</time>
      </trkpt>
      <trkpt lat="42.55824" lon="0.5727">
        <ele>1974.2</ele>
        <time>2015-01-10T14:15:44Z</time>
      </trkpt>
      <trkpt lat="42.55825" lon="0.5726">
        <ele>1970.84</ele>
        <time>2015-01-10T14:15:56Z</time>
      </trkpt>
      <trkpt lat="42.55825" lon="0.57259">
        <ele>1970.36</ele>
        <time>2015-01-10T14:15:57Z</time>
      </trkpt>
      <trkpt lat="42.55824" lon="0.57248">
        <ele>1967.48</ele>
        <time>2015-01-10T14:16:10Z</time>
      </trkpt>
      <trkpt lat="42.55823" lon="0.57245">
        <ele>1966.51</ele>
        <time>2015-01-10T14:16:14Z</time>
      </trkpt>
      <trkpt lat="42.55824" lon="0.57242">
        <ele>1965.55</ele>
        <time>2015-01-10T14:16:17Z</time>
      </trkpt>
      <trkpt lat="42.55823" lon="0.57238">
        <ele>1964.59</ele>
        <time>2015-01-10T14:16:20Z</time>
      </trkpt>
      <trkpt lat="42.55821" lon="0.57233">
        <ele>1963.63</ele>
        <time>2015-01-10T14:16:23Z</time>
      </trkpt>
      <trkpt lat="42.55821" lon="0.57231">
        <ele>1963.15</ele>
        <time>2015-01-10T14:16:25Z</time>
      </trkpt>
      <trkpt lat="42.55819" lon="0.57219">
        <ele>1960.27</ele>
        <time>2015-01-10T14:16:38Z</time>
      </trkpt>
      <trkpt lat="42.55817" lon="0.57208">
        <ele>1958.34</ele>
        <time>2015-01-10T14:16:48Z</time>
      </trkpt>
      <trkpt lat="42.55814" lon="0.57194">
        <ele>1955.94</ele>
        <time>2015-01-10T14:17:01Z</time>
      </trkpt>
      <trkpt lat="42.55815" lon="0.57185">
        <ele>1953.54</ele>
        <time>2015-01-10T14:17:10Z</time>
      </trkpt>
      <trkpt lat="42.55816" lon="0.57178">
        <ele>1952.57</ele>
        <time>2015-01-10T14:17:16Z</time>
      </trkpt>
      <trkpt lat="42.55817" lon="0.57174">
        <ele>1951.61</ele>
        <time>2015-01-10T14:17:19Z</time>
      </trkpt>
      <trkpt lat="42.55818" lon="0.57164">
        <ele>1949.21</ele>
        <time>2015-01-10T14:17:26Z</time>
      </trkpt>
      <trkpt lat="42.55821" lon="0.57155">
        <ele>1947.29</ele>
        <time>2015-01-10T14:17:33Z</time>
      </trkpt>
      <trkpt lat="42.55827" lon="0.57146">
        <ele>1945.36</ele>
        <time>2015-01-10T14:17:42Z</time>
      </trkpt>
      <trkpt lat="42.55833" lon="0.57133">
        <ele>1942</ele>
        <time>2015-01-10T14:17:53Z</time>
      </trkpt>
      <trkpt lat="42.55835" lon="0.57128">
        <ele>1940.56</ele>
        <time>2015-01-10T14:17:58Z</time>
      </trkpt>
      <trkpt lat="42.55837" lon="0.57126">
        <ele>1940.08</ele>
        <time>2015-01-10T14:18:01Z</time>
      </trkpt>
      <trkpt lat="42.5584" lon="0.57119">
        <ele>1938.64</ele>
        <time>2015-01-10T14:18:08Z</time>
      </trkpt>
      <trkpt lat="42.55841" lon="0.5711">
        <ele>1936.71</ele>
        <time>2015-01-10T14:18:15Z</time>
      </trkpt>
      <trkpt lat="42.55842" lon="0.57108">
        <ele>1936.23</ele>
        <time>2015-01-10T14:18:17Z</time>
      </trkpt>
      <trkpt lat="42.55844" lon="0.57103">
        <ele>1934.79</ele>
        <time>2015-01-10T14:18:22Z</time>
      </trkpt>
      <trkpt lat="42.55846" lon="0.57099">
        <ele>1933.83</ele>
        <time>2015-01-10T14:18:25Z</time>
      </trkpt>
      <trkpt lat="42.55851" lon="0.57092">
        <ele>1931.91</ele>
        <time>2015-01-10T14:18:33Z</time>
      </trkpt>
      <trkpt lat="42.55859" lon="0.57079">
        <ele>1928.54</ele>
        <time>2015-01-10T14:18:46Z</time>
      </trkpt>
      <trkpt lat="42.55865" lon="0.57069">
        <ele>1925.66</ele>
        <time>2015-01-10T14:18:57Z</time>
      </trkpt>
      <trkpt lat="42.55868" lon="0.57061">
        <ele>1923.74</ele>
        <time>2015-01-10T14:19:04Z</time>
      </trkpt>
      <trkpt lat="42.55871" lon="0.57054">
        <ele>1923.25</ele>
        <time>2015-01-10T14:19:10Z</time>
      </trkpt>
      <trkpt lat="42.55872" lon="0.57047">
        <ele>1922.29</ele>
        <time>2015-01-10T14:19:14Z</time>
      </trkpt>
      <trkpt lat="42.55877" lon="0.57029">
        <ele>1920.37</ele>
        <time>2015-01-10T14:19:27Z</time>
      </trkpt>
      <trkpt lat="42.55879" lon="0.57024">
        <ele>1919.89</ele>
        <time>2015-01-10T14:19:30Z</time>
      </trkpt>
      <trkpt lat="42.5588" lon="0.57018">
        <ele>1919.89</ele>
        <time>2015-01-10T14:19:35Z</time>
      </trkpt>
      <trkpt lat="42.55882" lon="0.57012">
        <ele>1919.41</ele>
        <time>2015-01-10T14:19:40Z</time>
      </trkpt>
      <trkpt lat="42.55887" lon="0.57007">
        <ele>1919.89</ele>
        <time>2015-01-10T14:19:45Z</time>
      </trkpt>
      <trkpt lat="42.55888" lon="0.57005">
        <ele>1919.89</ele>
        <time>2015-01-10T14:19:47Z</time>
      </trkpt>
      <trkpt lat="42.55891" lon="0.57003">
        <ele>1919.89</ele>
        <time>2015-01-10T14:19:50Z</time>
      </trkpt>
      <trkpt lat="42.55895" lon="0.57001">
        <ele>1919.41</ele>
        <time>2015-01-10T14:19:54Z</time>
      </trkpt>
      <trkpt lat="42.55908" lon="0.57013">
        <ele>1919.89</ele>
        <time>2015-01-10T14:20:08Z</time>
      </trkpt>
      <trkpt lat="42.55914" lon="0.57021">
        <ele>1919.89</ele>
        <time>2015-01-10T14:20:15Z</time>
      </trkpt>
      <trkpt lat="42.55918" lon="0.57025">
        <ele>1919.89</ele>
        <time>2015-01-10T14:20:20Z</time>
      </trkpt>
      <trkpt lat="42.55918" lon="0.57029">
        <ele>1919.89</ele>
        <time>2015-01-10T14:20:23Z</time>
      </trkpt>
      <trkpt lat="42.55921" lon="0.57033">
        <ele>1919.89</ele>
        <time>2015-01-10T14:20:27Z</time>
      </trkpt>
      <trkpt lat="42.55922" lon="0.57035">
        <ele>1919.89</ele>
        <time>2015-01-10T14:20:29Z</time>
      </trkpt>
      <trkpt lat="42.55928" lon="0.57044">
        <ele>1920.85</ele>
        <time>2015-01-10T14:20:39Z</time>
      </trkpt>
      <trkpt lat="42.55935" lon="0.57049">
        <ele>1922.29</ele>
        <time>2015-01-10T14:20:48Z</time>
      </trkpt>
      <trkpt lat="42.55937" lon="0.5705">
        <ele>1922.29</ele>
        <time>2015-01-10T14:20:50Z</time>
      </trkpt>
      <trkpt lat="42.55946" lon="0.57048">
        <ele>1923.25</ele>
        <time>2015-01-10T14:21:03Z</time>
      </trkpt>
      <trkpt lat="42.55948" lon="0.57046">
        <ele>1923.74</ele>
        <time>2015-01-10T14:21:06Z</time>
      </trkpt>
      <trkpt lat="42.55954" lon="0.57044">
        <ele>1923.74</ele>
        <time>2015-01-10T14:21:11Z</time>
      </trkpt>
      <trkpt lat="42.5596" lon="0.57036">
        <ele>1923.74</ele>
        <time>2015-01-10T14:21:19Z</time>
      </trkpt>
      <trkpt lat="42.55971" lon="0.57031">
        <ele>1923.25</ele>
        <time>2015-01-10T14:21:29Z</time>
      </trkpt>
      <trkpt lat="42.5598" lon="0.57021">
        <ele>1923.25</ele>
        <time>2015-01-10T14:21:40Z</time>
      </trkpt>
      <trkpt lat="42.55985" lon="0.57015">
        <ele>1922.29</ele>
        <time>2015-01-10T14:21:48Z</time>
      </trkpt>
      <trkpt lat="42.55992" lon="0.5701">
        <ele>1920.85</ele>
        <time>2015-01-10T14:21:55Z</time>
      </trkpt>
      <trkpt lat="42.56008" lon="0.57006">
        <ele>1921.81</ele>
        <time>2015-01-10T14:22:10Z</time>
      </trkpt>
      <trkpt lat="42.56023" lon="0.56998">
        <ele>1921.81</ele>
        <time>2015-01-10T14:22:25Z</time>
      </trkpt>
      <trkpt lat="42.56032" lon="0.56997">
        <ele>1922.77</ele>
        <time>2015-01-10T14:22:38Z</time>
      </trkpt>
      <trkpt lat="42.56037" lon="0.56991">
        <ele>1922.29</ele>
        <time>2015-01-10T14:22:46Z</time>
      </trkpt>
      <trkpt lat="42.56052" lon="0.56983">
        <ele>1921.81</ele>
        <time>2015-01-10T14:23:01Z</time>
      </trkpt>
      <trkpt lat="42.56062" lon="0.56978">
        <ele>1921.81</ele>
        <time>2015-01-10T14:23:11Z</time>
      </trkpt>
      <trkpt lat="42.5607" lon="0.56975">
        <ele>1921.33</ele>
        <time>2015-01-10T14:23:18Z</time>
      </trkpt>
      <trkpt lat="42.56091" lon="0.56966">
        <ele>1920.85</ele>
        <time>2015-01-10T14:23:37Z</time>
      </trkpt>
      <trkpt lat="42.56094" lon="0.56964">
        <ele>1920.85</ele>
        <time>2015-01-10T14:23:40Z</time>
      </trkpt>
      <trkpt lat="42.5611" lon="0.56956">
        <ele>1920.37</ele>
        <time>2015-01-10T14:23:57Z</time>
      </trkpt>
      <trkpt lat="42.56127" lon="0.56958">
        <ele>1919.89</ele>
        <time>2015-01-10T14:24:14Z</time>
      </trkpt>
      <trkpt lat="42.56142" lon="0.56964">
        <ele>1919.89</ele>
        <time>2015-01-10T14:24:29Z</time>
      </trkpt>
      <trkpt lat="42.56146" lon="0.56968">
        <ele>1919.89</ele>
        <time>2015-01-10T14:24:33Z</time>
      </trkpt>
      <trkpt lat="42.56148" lon="0.56973">
        <ele>1919.89</ele>
        <time>2015-01-10T14:24:37Z</time>
      </trkpt>
      <trkpt lat="42.56157" lon="0.5698">
        <ele>1920.37</ele>
        <time>2015-01-10T14:24:48Z</time>
      </trkpt>
      <trkpt lat="42.56161" lon="0.56981">
        <ele>1920.37</ele>
        <time>2015-01-10T14:24:52Z</time>
      </trkpt>
      <trkpt lat="42.56166" lon="0.56992">
        <ele>1920.85</ele>
        <time>2015-01-10T14:25:01Z</time>
      </trkpt>
      <trkpt lat="42.56177" lon="0.57003">
        <ele>1921.33</ele>
        <time>2015-01-10T14:25:14Z</time>
      </trkpt>
      <trkpt lat="42.56189" lon="0.57014">
        <ele>1920.85</ele>
        <time>2015-01-10T14:25:27Z</time>
      </trkpt>
      <trkpt lat="42.56208" lon="0.57025">
        <ele>1921.33</ele>
        <time>2015-01-10T14:25:43Z</time>
      </trkpt>
      <trkpt lat="42.56224" lon="0.57036">
        <ele>1921.33</ele>
        <time>2015-01-10T14:25:59Z</time>
      </trkpt>
      <trkpt lat="42.56235" lon="0.57043">
        <ele>1921.33</ele>
        <time>2015-01-10T14:26:11Z</time>
      </trkpt>
    </trkseg>
  </trk>
</gpx>